     2              OBSERVATION DATA    GPS                 RINEX VERSION / TYPE
ASHTORIN MIT 11                                             PGM / RUN BY / DATE
                                                            COMMENT
Original Marker Name: cd14                                  COMMENT
Campaign Name: STRC/NBC 1997                                COMMENT
4-Character Station Name: CD14                              COMMENT
6-Character Antenna Code: DMRCHT                            COMMENT
Vertical Measurement Point: BCR                             COMMENT
Vertical Offset to Rinex Ref. Point: 0.0349                 COMMENT
Radial Measurement Point: ECF                               COMMENT
Radial Offset to Rinex Ref. Point: 0.1896                   COMMENT
Antenna Height from Field Measurement: 0.9570 m             COMMENT
Additional Antenna Identification Info.:                    COMMENT
Turborogue and Ashtech Choke Ring                           COMMENT
Original XYZ: 0.0000 0.0000 0.0000                          COMMENT
New XYZ position is based on association with SCEC monument COMMENT
E1C9D3R4+0011. Position of that monument is believed to be  COMMENT
valid to within 1 m horizontally; vertical accuracy         COMMENT
should be no worse than 3-times this value.                 COMMENT
                                                            COMMENT
Revised Rinex header created by UCSD GPS archive for        COMMENT
GSAC on 26-Jun-2003 (2003:177) 23:40:09 GMT                 COMMENT
For assistance contact dagnew@ucsd.edu or hjohnson@ucsd.edu COMMENT
                                                            COMMENT
BN 30 CFE                                                   MARKER NAME
cd14 bn30cfe                                                MARKER NUMBER
JAV CICESE (ENSENADA)                                       OBSERVER / AGENCY
495 ASHTECH Z12-XII3 1F371D0                                REC # / TYPE / VERS
759 DORNE-MARGOL. TYPE T                                    ANT # / TYPE
 -2287117.5787 -4879833.2440  3399826.3662                  APPROX POSITION XYZ
        0.9031        0.0000        0.0000                  ANTENNA: DELTA H/E/N
     1     1     0                                          WAVELENGTH FACT L1/2
     7    L1    L2    C1    P1    P2    D1    D2            # / TYPES OF OBSERV
    30                                                      INTERVAL
  1997     3     3    20    30    0.000000                  TIME OF FIRST OBS
  1997     3     3    23    59   30.000000                  TIME OF LAST OBS
     0                                                      # OF SATELLITES
                                                            END OF HEADER
 97  3  3 20 30  0.0000000  0  4 26  2 27 19                         0.000000000
   -188081.64519   -134367.11156  23237691.232    23237691.2015   23237695.9125
        -0.000          -0.000
    -81644.25319    -60563.25259  21170837.811    21170836.8355   21170842.2795
        -0.000          -0.000
    -10426.74519     -7355.19759  20183387.022    20183386.8825   20183391.7685
        -0.000          -0.000
    129014.68719     93368.77457  22411339.346    22411338.9135   22411345.3575
        -0.000          -0.000
 97  3  3 20 30 30.0000000  0  6 26  2 27 19  7 15                   0.000824255
   -262850.244 9   -192628.33246  23523255.125    23523255.5894   23523260.3864
        -0.000          -0.000
   -112515.303 9    -84618.59449  21464755.640    21464754.8104   21464760.2594
        -0.000          -0.000
    -13611.895 9     -9837.13349  20482573.406    20482573.2404   20482578.1954
        -0.000          -0.000
    182326.565 9    134910.46247  22721276.362    22721276.2984   22721282.7894
        -0.000          -0.000
   -260656.28319   -184783.42858  21166631.704    21166631.1165   21166637.2845
        -0.000          -0.000
   -118236.63218    -82859.88752         0.000           0.0005          0.0005
        -0.000          -0.000
 97  3  3 20 31  0.0010000  0  6 26  2 27 19  7 15                   0.001000074
  -1612066.137 9  -1243965.35746  23566300.308    23566300.7104   23566305.6374
        -0.000          -0.000
  -1418152.049 9  -1101997.85949  21516093.596    21516092.8594   21516098.3804
        -0.000          -0.000
  -1291248.422 9  -1005398.07149  20539239.758    20539239.5604   20539244.5874
        -0.000          -0.000
  -1038968.939 9   -816748.38747  22788664.278    22788664.0564   22788670.4284
        -0.000          -0.000
  -1616976.947 9  -1241656.63048  21208324.693    21208324.3334   21208330.5174
        -0.000          -0.000
  -1438959.12819  -1111994.30955         0.000           0.0005   23820778.6645
        -0.000          -0.000
 97  3  3 20 31 30.0010000  0  6 26  2 27 19  7 15                   0.001000103
  -1662073.704 9  -1282932.28546  23556784.081    23556784.5474   23556789.5674
        -0.000          -0.000
  -1424895.446 9  -1107252.44449  21514810.278    21514809.6174   21514815.2054
        -0.000          -0.000
  -1269654.718 9   -988571.81649  20543348.992    20543348.7364   20543353.7884
        -0.000          -0.000
   -961220.091 9   -756164.90047  22803459.507    22803459.2234   22803465.4944
        -0.000          -0.000
  -1674114.499 9  -1286179.36348  21197452.000    21197451.4704   21197457.6314
        -0.000          -0.000
  -1460434.18119  -1128728.09045  23816686.613    23816685.6225   23816692.2224
        -0.000          -0.000
 97  3  3 20 32  0.0010000  0  6 26  2 27 19  7 15                   0.001000138
  -1711594.695 9  -1321520.04846  23547360.720    23547361.0714   23547366.0854
        -0.000          -0.000
  -1431487.080 9  -1112388.77049  21513555.899    21513555.2664   21513560.9074
        -0.000          -0.000
  -1247561.819 9   -971356.57449  20547553.230    20547552.9454   20547558.0264
        -0.000          -0.000
   -883164.225 9   -695342.18447  22818313.066    22818312.7814   22818319.0204
        -0.000          -0.000
  -1730807.041 9  -1330355.33048  21186663.884    21186663.2684   21186669.4654
        -0.000          -0.000
  -1481386.998 9  -1145054.93645  23812699.385    23812699.1914   23812704.9234
        -0.000          -0.000
 97  3  3 20 32 30.0010000  0  6 26  2 27 19  7 15                   0.001000173
  -1760652.987 9  -1359747.26646  23538025.339    23538025.5644   23538030.6774
        -0.000          -0.000
  -1437964.218 9  -1117435.87949  21512323.369    21512322.7394   21512328.3574
        -0.000          -0.000
  -1225003.943 9   -953779.02049  20551845.901    20551845.6034   20551850.7364
        -0.000          -0.000
   -804822.379 9   -634296.62447  22833220.932    22833220.6804   22833226.9904
        -0.000          -0.000
  -1787081.495 9  -1374205.52048  21175955.247    21175954.5924   21175960.8014
        -0.000          -0.000
  -1501840.413 9  -1160992.61245  23808807.371    23808806.7664   23808812.7744
        -0.000          -0.000
 97  3  3 20 33  0.0010000  0  6 26  2 27 19  7 15                   0.001000204
  -1809258.117 9  -1397621.37046  23528776.163    23528776.3774   23528781.6064
        -0.000          -0.000
  -1444335.289 9  -1122400.33649  21511111.005    21511110.3684   21511115.9444
        -0.000          -0.000
  -1201979.346 9   -935837.78449  20556227.364    20556227.0704   20556232.2354
        -0.000          -0.000
   -726190.465 9   -573025.03947  22848184.045    22848183.8414   22848190.2814
        -0.000          -0.000
  -1842955.356 9  -1417743.56048  21165322.820    21165322.1724   21165328.3634
        -0.000          -0.000
  -1521790.836 9  -1176538.35745  23805010.939    23805010.1644   23805016.3184
        -0.000          -0.000
 97  3  3 20 33 30.0010000  0  6 26  2 27 19  7 15                   0.001000233
  -1857402.792 9  -1435136.69646  23519614.490    23519614.7594   23519620.1164
        -0.000          -0.000
  -1450582.721 9  -1127268.44849  21509922.184    21509921.5214   21509927.0884
        -0.000          -0.000
  -1178486.640 9   -917531.79049  20560697.915    20560697.6254   20560702.7664
        -0.000          -0.000
   -647269.880 9   -511528.53647  22863202.153    22863201.9254   22863208.4914
        -0.000          -0.000
  -1898408.897 9  -1460954.08548  21154770.424    21154769.7684   21154775.9074
        -0.000          -0.000
  -1541228.040 9  -1191684.18345  23801312.146    23801311.5554   23801317.5584
        -0.000          -0.000
 97  3  3 20 34  0.0010000  0  6 26  2 27 19  7 15                   0.001000276
  -1905075.334 9  -1472284.11247  23510542.729    23510542.9304   23510548.3244
        -0.000          -0.000
  -1456692.924 9  -1132029.62749  21508759.461    21508758.8364   21508764.3764
        -0.000          -0.000
  -1154533.263 9   -898866.82749  20565256.129    20565255.8304   20565260.9434
        -0.000          -0.000
   -568053.650 9   -449801.63747  22878276.662    22878276.4384   22878282.9324
        -0.000          -0.000
  -1953408.691 9  -1503811.03048  21144304.300    21144303.6234   21144309.7554
        -0.000          -0.000
  -1560141.687 9  -1206422.05045  23797712.806    23797712.2274   23797718.5084
        -0.000          -0.000
 97  3  3 20 34 30.0010000  0  6 26  2 27 19  7 15                   0.001000330
  -1952279.798 9  -1509066.79647  23501560.089    23501560.3084   23501565.6364
        -0.000          -0.000
  -1462664.477 9  -1136682.77049  21507623.192    21507622.5434   21507628.0234
        -0.000          -0.000
  -1130118.677 9   -879842.47849  20569902.140    20569901.8134   20569906.9134
        -0.000          -0.000
   -488538.106 9   -387841.51947  22893408.155    22893407.8934   22893414.3364
        -0.000          -0.000
  -2007948.104 9  -1546309.23748  21133925.776    21133925.0984   21133931.2084
        -0.000          -0.000
  -1578533.683 9  -1220753.42445  23794212.804    23794212.1014   23794218.7174
        -0.000          -0.000
 97  3  3 20 35  0.0010000  0  6 26  2 27 19  7 15                   0.001000378
  -1999032.478 9  -1545497.45147  23492663.505    23492663.6464   23492668.8114
        -0.000          -0.000
  -1468505.982 9  -1141234.57649  21506511.633    21506510.9824   21506516.4254
        -0.000          -0.000
  -1105270.991 9   -860480.65849  20574630.532    20574630.1804   20574635.2994
        -0.000          -0.000
   -408750.070 9   -325669.05447  22908591.402    22908591.1424   22908597.4904
        -0.000          -0.000
  -2062045.745 9  -1588463.21248  21123631.282    21123630.6254   21123636.6994
        -0.000          -0.000
  -1596426.477 8  -1234695.86045  23790807.997    23790807.2674   23790813.9664
        -0.000          -0.000
 97  3  3 20 35 30.0010000  0  6 26  2 27 19  7 15                   0.001000437
  -2045296.439 9  -1581547.28247  23483859.797    23483859.9714   23483865.1124
        -0.000          -0.000
  -1474179.366 9  -1145655.39049  21505432.045    21505431.4004   21505436.8444
        -0.000          -0.000
  -1079962.045 9   -840759.40549  20579446.698    20579446.3564   20579451.4654
        -0.000          -0.000
   -328670.877 9   -263269.70447  22923829.956    22923829.7234   22923836.0394
        -0.000          -0.000
  -2115663.217 9  -1630243.02849  21113428.212    21113427.5484   21113433.6334
        -0.000          -0.000
  -1613792.022 9  -1248227.46745  23787503.562    23787502.8344   23787509.4054
        -0.000          -0.000
 97  3  3 20 36  0.0010000  0  6 26  2 27 19  7 15                   0.001000498
  -2091081.141 9  -1617223.65047  23475147.410    23475147.5344   23475152.6654
        -0.000          -0.000
  -1479715.921 9  -1149969.58249  21504378.496    21504377.8494   21504383.3624
        -0.000          -0.000
  -1054204.809 9   -820688.84149  20584348.170    20584347.8134   20584352.9364
        -0.000          -0.000
   -248321.307 9   -200659.67546  22939119.942    22939119.6674   22939126.0664
        -0.000          -0.000
  -2168836.863 9  -1671677.00249  21103309.637    21103308.9834   21103315.0734
        -0.000          -0.000
  -1630651.490 9  -1261364.68846  23784295.372    23784294.6664   23784301.1674
        -0.000          -0.000
 97  3  3 20 36 30.0010000  0  6 26  2 27 19  7 15                   0.001000537
  -2136420.323 9  -1652552.86347  23466519.692    23466519.7874   23466525.0424
        -0.000          -0.000
  -1485166.684 9  -1154216.92149  21503341.277    21503340.6274   21503346.1984
        -0.000          -0.000
  -1028032.759 9   -800295.04949  20589328.578    20589328.2454   20589333.3784
        -0.000          -0.000
   -167741.812 9   -137870.49246  22954453.723    22954453.5224   22954459.9324
        -0.000          -0.000
  -2221618.191 9  -1712805.27749  21093265.723    21093265.0464   21093271.1444
        -0.000          -0.000
  -1647039.394 9  -1274134.46446  23781176.677    23781176.0054   23781182.7194
        -0.000          -0.000
 97  3  3 20 37  0.0010000  0  6 26  2 27 19  7 15                   0.001000551
  -2181309.732 9  -1687531.60546  23457977.295    23457977.4414   23457982.9074
        -0.000          -0.000
  -1490526.070 9  -1158393.05949  21502321.438    21502320.7734   21502326.4144
        -0.000          -0.000
  -1001431.637 9   -779566.91449  20594390.621    20594390.2804   20594395.4674
        -0.000          -0.000
    -86937.737 9    -74906.31446  22969830.286    22969830.0584   22969836.5194
        -0.000          -0.000
  -2273999.063 9  -1753621.50949  21083297.989    21083297.2874   21083303.4034
        -0.000          -0.000
  -1662947.731 9  -1286530.52546  23778149.319    23778148.7404   23778155.5974
        -0.000          -0.000
 97  3  3 20 37 30.0010000  0  6 26  2 27 19  7 15                   0.001000530
  -2225762.078 9  -1722169.79646  23449518.116    23449518.3364   23449523.9284
        -0.000          -0.000
  -1495829.141 9  -1162525.31249  21501312.302    21501311.6624   21501317.2624
        -0.000          -0.000
   -974401.333 9   -758504.35149  20599534.377    20599534.0294   20599539.2294
        -0.000          -0.000
     -5933.090 9    -11785.85946  22985245.040    22985244.8364   22985251.3184
        -0.000          -0.000
  -2325989.458 9  -1794133.47949  21073404.576    21073403.8964   21073409.9884
        -0.000          -0.000
  -1678389.505 9  -1298563.03546  23775210.835    23775210.2744   23775217.1164
        -0.000          -0.000
 97  3  3 20 38  0.0010000  0  6 26  2 27 19  7 15                   0.001000486
  -2269766.382 9  -1756458.84046  23441144.516    23441144.6144   23441150.1254
        -0.000          -0.000
  -1501062.416 9  -1166603.17949  21500316.544    21500315.8714   21500321.4064
        -0.000          -0.000
   -946929.208 9   -737097.51149  20604762.194    20604761.8604   20604767.0654
        -0.000          -0.000
     75290.947 9     51505.55446  23000701.561    23000701.3454   23000707.7864
        -0.000          -0.000
  -2377570.673 9  -1834326.60449  21063589.043    21063588.3514   21063594.4514
        -0.000          -0.000
  -1693344.020 9  -1310215.86246  23772365.136    23772364.5444   23772371.3164
        -0.000          -0.000
 97  3  3 20 38 30.0010000  0  6 26  2 27 19  7 15                   0.001000427
  -2313314.434 9  -1790392.37046  23432857.676    23432857.7804   23432863.0634
        -0.000          -0.000
  -1506199.962 9  -1170606.45549  21499338.969    21499338.2884   21499343.7734
        -0.000          -0.000
   -919005.157 9   -715338.52149  20610076.042    20610075.6914   20610080.9074
        -0.000          -0.000
    156758.753 9    114986.92246  23016204.346    23016204.1334   23016210.5324
        -0.000          -0.000
  -2428715.664 9  -1874179.81749  21053856.471    21053855.7794   21053861.9544
        -0.000          -0.000
  -1707793.629 9  -1321475.24046  23769615.687    23769615.0484   23769621.6574
        -0.000          -0.000
 97  3  3 20 39  0.0010000  0  6 26  2 27 19  7 15                   0.001000371
  -2356372.581 9  -1823944.15746  23424664.048    23424664.1524   23424669.2404
        -0.000          -0.000
  -1511204.096 9  -1174505.77349  21498386.734    21498386.0374   21498391.5344
        -0.000          -0.000
   -890592.530 9   -693198.82449  20615482.745    20615482.4094   20615487.6944
        -0.000          -0.000
    238511.691 9    178690.47546  23031761.383    23031761.2134   23031767.6204
        -0.000          -0.000
  -2479390.650 9  -1913666.78849  21044213.365    21044212.6754   21044218.8464
        -0.000          -0.000
  -1721708.360 9  -1332317.85646  23766967.902    23766967.1714   23766973.7184
        -0.000          -0.000
 97  3  3 20 39 30.0010000  0  6 26  2 27 19  7 15                   0.001000340
  -2398919.419 9  -1857097.51547  23416567.799    23416567.8684   23416572.7054
        -0.000          -0.000
  -1516062.765 9  -1178291.74449  21497462.124    21497461.4374   21497466.9954
        -0.000          -0.000
   -861675.343 9   -670665.96349  20620985.447    20620985.1394   20620990.4404
        -0.000          -0.000
    320583.639 9    242642.60146  23047379.222    23047379.1014   23047385.4744
        -0.000          -0.000
  -2529599.903 9  -1952790.85649  21034658.882    21034658.1894   21034664.3034
        -0.000          -0.000
  -1735073.026 9  -1342731.83646  23764424.640    23764423.9424   23764430.4634
        -0.000          -0.000
 97  3  3 20 40  0.0010000  0  6 26  2 27 19  7 15                   0.001000321
  -2440975.107 9  -1889868.16047  23408564.861    23408564.9094   23408569.7404
        -0.000          -0.000
  -1520777.093 9  -1181965.23149  21496565.071    21496564.3884   21496569.9174
        -0.000          -0.000
   -832265.855 9   -647749.48849  20626581.927    20626581.6254   20626586.9014
        -0.000          -0.000
    402972.558 9    306841.70146  23063057.548    23063057.3974   23063063.7294
        -0.000          -0.000
  -2579370.164 9  -1991572.84649  21025187.945    21025187.2464   21025193.2494
        -0.000          -0.000
  -1747896.866 9  -1352724.40146  23761984.273    23761983.6514   23761990.1344
        -0.000          -0.000
 97  3  3 20 40 30.0010000  0  6 26  2 27 19  7 15                   0.001000314
  -2482528.677 9  -1922247.53847  23400657.412    23400657.4624   23400662.4754
        -0.000          -0.000
  -1525348.825 9  -1185527.60649  21495695.144    21495694.4504   21495699.9344
        -0.000          -0.000
   -802351.317 9   -624439.46349  20632274.527    20632274.1944   20632279.4314
        -0.000          -0.000
    485671.357 9    371282.27647  23078794.765    23078794.5234   23078800.8974
        -0.000          -0.000
  -2628693.762 9  -2030006.79249  21015802.020    21015801.3134   21015807.2424
        -0.000          -0.000
  -1760176.391 8  -1362292.82945  23759647.428    23759646.8484   23759653.5194
        -0.000          -0.000
 97  3  3 20 41  0.0010000  0  6 26  2 27 19  7 15                   0.001000317
  -2523575.601 9  -1954232.14747  23392846.407    23392846.4794   23392851.6944
        -0.000          -0.000
  -1529780.055 9  -1188980.50849  21494851.974    21494851.2544   21494856.6974
        -0.000          -0.000
   -771912.257 9   -600720.73049  20638066.930    20638066.6044   20638071.7854
        -0.000          -0.000
    568675.029 9    435960.40647  23094589.937    23094589.6284   23094596.1784
        -0.000          -0.000
  -2677567.507 9  -2068090.19949  21006501.644    21006500.9124   21006506.9104
        -0.000          -0.000
  -1771902.103 9  -1371429.72745  23757416.189    23757415.4944   23757422.2334
        -0.000          -0.000
 97  3  3 20 41 30.0010000  0  6 26  2 27 19  7 15                   0.001000324
  -2564125.076 9  -1985829.10347  23385130.095    23385130.1714   23385135.5664
        -0.000          -0.000
  -1534069.995 9  -1192323.30949  21494035.655    21494034.9194   21494040.3914
        -0.000          -0.000
   -740955.989 9   -576598.97849  20643957.802    20643957.4564   20643962.5864
        -0.000          -0.000
    651969.347 9    500865.00847  23110440.212    23110439.9664   23110446.7464
        -0.000          -0.000
  -2725972.175 9  -2105808.09549  20997290.504    20997289.7794   20997295.8424
        -0.000          -0.000
  -1783068.216 9  -1380130.60346  23755291.212    23755290.5654   23755297.4524
        -0.000          -0.000
 97  3  3 20 42  0.0010000  0  6 26  2 27 19  7 15                   0.001000326
  -2604179.831 9  -2017040.58247  23377507.940    23377508.0784   23377513.4654
        -0.000          -0.000
  -1538216.445 9  -1195554.29649  21493246.616    21493245.8864   21493251.3494
        -0.000          -0.000
   -709489.647 9   -552079.76349  20649945.717    20649945.3704   20649950.4874
        -0.000          -0.000
    735536.198 9    565982.00047  23126342.404    23126342.2064   23126349.0704
        -0.000          -0.000
  -2773877.255 9  -2143136.70649  20988174.442    20988173.7104   20988179.8074
        -0.000          -0.000
  -1793674.072 9  -1388394.89746  23753272.884    23753272.2524   23753279.2554
        -0.000          -0.000
 97  3  3 20 42 30.0010000  0  6 26  2 27 19  7 15                   0.001000336
  -2643727.404 9  -2047856.84747  23369982.276    23369982.4084   23369987.7534
        -0.000          -0.000
  -1542225.936 9  -1198678.55349  21492483.665    21492482.9344   21492488.4024
        -0.000          -0.000
   -677521.138 9   -527169.25249  20656029.166    20656028.8094   20656033.9744
        -0.000          -0.000
    819374.237 9    631310.29147  23142296.415    23142296.1514   23142302.9624
        -0.000          -0.000
  -2821270.586 9  -2180066.54749  20979155.798    20979155.0834   20979161.1694
        -0.000          -0.000
  -1803725.463 9  -1396227.12446  23751360.206    23751359.5264   23751366.5364
        -0.000          -0.000
 97  3  3 20 43  0.0010000  0  6 26  2 27 19  7 15                   0.001000335
  -2682802.183 9  -2078304.71147  23362546.551    23362546.6664   23362552.0434
        -0.000          -0.000
  -1546125.251 9  -1201716.96749  21491741.610    21491740.8774   21491746.3824
        -0.000          -0.000
   -645095.179 9   -501902.28749  20662199.663    20662199.2974   20662204.5144
        -0.000          -0.000
    903461.566 9    696832.82247  23158297.810    23158297.5744   23158304.2804
        -0.000          -0.000
  -2868191.826 9  -2216628.52949  20970227.030    20970226.3144   20970232.3484
        -0.000          -0.000
  -1813253.587 9  -1403651.63046  23749547.122    23749546.4114   23749553.4314
        -0.000          -0.000
 97  3  3 20 43 30.0010000  0  6 26  2 27 19  7 15                   0.001000323
  -2721402.201 9  -2108382.62647  23355201.229    23355201.2904   23355206.5924
        -0.000          -0.000
  -1549904.532 9  -1204661.85049  21491022.409    21491021.7054   21491027.2604
        -0.000          -0.000
   -612226.716 9   -476290.50349  20668454.348    20668453.9674   20668459.2434
        -0.000          -0.000
    987792.512 9    762545.20347  23174345.574    23174345.3444   23174351.9944
        -0.000          -0.000
  -2914641.022 9  -2252822.68549  20961388.087    20961387.3634   20961393.3264
        -0.000          -0.000
  -1822260.114 9  -1410669.66846  23747833.252    23747832.5674   23747839.5084
        -0.000          -0.000
 97  3  3 20 44  0.0010000  0  6 26  2 27 19  7 15                   0.001000319
  -2759490.414 9  -2138061.74247  23347953.364    23347953.3494   23347958.6554
        -0.000          -0.000
  -1553536.870 9  -1207492.23449  21490331.239    21490330.5344   21490336.1414
        -0.000          -0.000
   -578890.076 9   -450313.90649  20674798.138    20674797.7454   20674803.0374
        -0.000          -0.000
   1072393.433 9    828467.95447  23190444.723    23190444.4594   23190451.0534
        -0.000          -0.000
  -2960620.933 9  -2288651.16349  20952638.465    20952637.7114   20952643.6624
        -0.000          -0.000
  -1830725.646 9  -1417266.17746  23746222.451    23746221.7924   23746228.6124
        -0.000          -0.000
 97  3  3 20 44 30.0010000  0  6 26  2 27 19  7 15                   0.001000291
  -2797115.333 9  -2167379.86347  23340793.526    23340793.5354   23340798.8514
        -0.000          -0.000
  -1557065.789 9  -1210242.03349  21489659.727    21489659.0094   21489664.6224
        -0.000          -0.000
   -545125.755 9   -424004.05349  20681223.276    20681222.8874   20681228.1814
        -0.000          -0.000
   1157222.012 9    894568.10047  23206587.076    23206586.8444   23206593.4984
        -0.000          -0.000
  -3006199.325 9  -2324166.76549  20943965.111    20943964.3654   20943970.3924
        -0.000          -0.000
  -1838693.528 9  -1423474.90746  23744706.372    23744705.6224   23744712.3484
        -0.000          -0.000
 97  3  3 20 45  0.0010000  0  6 26  2 27 19  7 15                   0.001000249
  -2834258.417 9  -2196322.50547  23333725.481    23333725.4784   23333730.7484
        -0.000          -0.000
  -1560460.644 9  -1212887.36149  21489013.741    21489013.0164   21489018.5874
        -0.000          -0.000
   -510908.627 9   -397341.36549  20687734.660    20687734.2594   20687739.5224
        -0.000          -0.000
   1242296.410 9    960859.80047  23222776.269    23222776.0374   23222782.7184
        -0.000          -0.000
  -3051354.944 9  -2359352.93349  20935372.275    20935371.5444   20935377.5814
        -0.000          -0.000
  -1846131.989 9  -1429271.10846  23743290.904    23743290.1824   23743296.8624
        -0.000          -0.000
 97  3  3 20 45 30.0010000  0  6 26  2 27 19  7 15                   0.001000218
  -2870875.035 9  -2224854.93147  23326757.624    23326757.5824   23326762.9284
        -0.000          -0.000
  -1563687.444 9  -1215401.73749  21488399.706    21488398.9714   21488404.5244
        -0.000          -0.000
   -476184.867 9   -370283.90349  20694342.453    20694342.0454   20694347.2754
        -0.000          -0.000
   1327657.401 9   1027374.81347  23239020.031    23239019.7924   23239026.4654
        -0.000          -0.000
  -3096047.391 9  -2394178.18949  20926867.579    20926866.8524   20926872.8934
        -0.000          -0.000
  -1853000.215 9  -1434622.96246  23741983.880    23741983.1674   23741989.9294
        -0.000          -0.000
 97  3  3 20 46  0.0010000  0  6 26  2 27 19  7 15                   0.001000196
  -2906987.013 9  -2252994.13347  23319885.647    23319885.6394   23319891.2304
        -0.000          -0.000
  -1566797.027 9  -1217824.78249  21487808.004    21487807.2714   21487812.8124
        -0.000          -0.000
   -440989.823 9   -342859.20949  20701039.882    20701039.4594   20701044.6584
        -0.000          -0.000
   1413284.624 9   1094097.26447  23255314.542    23255314.2714   23255320.8404
        -0.000          -0.000
  -3140317.394 9  -2428674.27149  20918443.274    20918442.5734   20918448.5814
        -0.000          -0.000
  -1859334.060 9  -1439558.41446  23740778.483    23740777.8324   23740784.7154
        -0.000          -0.000
 97  3  3 20 46 30.0010000  0  6 26  2 27 19  7 15                   0.001000183
  -2942602.729 9  -2280746.62947  23313108.101    23313108.1124   23313113.8874
        -0.000          -0.000
  -1569789.368 9  -1220156.46449  21487238.556    21487237.8454   21487243.3564
        -0.000          -0.000
   -405326.631 9   -315069.72149  20707826.381    20707825.9904   20707831.1804
        -0.000          -0.000
   1499185.096 9   1161032.63846  23271660.960    23271660.6154   23271667.1024
        -0.000          -0.000
  -3184148.039 9  -2462827.99349  20910102.586    20910101.8884   20910107.8414
        -0.000          -0.000
  -1865128.624 9  -1444073.65146  23739675.785    23739675.1854   23739682.0884
        -0.000          -0.000
 97  3  3 20 47  0.0010000  0  6 26  2 27 19  7 15                   0.001000178
  -2977720.666 9  -2308111.23647  23306425.237    23306425.2884   23306431.2294
        -0.000          -0.000
  -1572660.839 9  -1222393.96649  21486692.138    21486691.4334   21486696.9644
        -0.000          -0.000
   -369207.536 9   -286924.98348  20714699.584    20714699.2024   20714704.4184
        -0.000          -0.000
   1585348.896 9   1228173.21946  23288057.290    23288056.9744   23288063.5074
        -0.000          -0.000
  -3227533.559 9  -2496634.86149  20901846.617    20901845.9034   20901851.8174
        -0.000          -0.000
  -1870385.940 9  -1448170.24546  23738675.445    23738674.7374   23738681.4304
        -0.000          -0.000
 97  3  3 20 47 30.0010000  0  6 26  2 27 19  7 15                   0.001000200
  -3012308.734 9  -2335062.96747  23299843.317    23299843.3854   23299849.3954
        -0.000          -0.000
  -1575384.221 9  -1224516.07149  21486173.848    21486173.1524   21486178.6504
        -0.000          -0.000
   -332602.341 9   -258401.46748  20721665.318    20721664.9604   20721670.1484
        -0.000          -0.000
   1671801.873 9   1295539.15046  23304508.627    23304508.3154   23304515.0014
        -0.000          -0.000
  -3270446.590 9  -2530073.56049  20893680.477    20893679.7864   20893685.6534
        -0.000          -0.000
  -1875076.592 9  -1451825.28646  23737782.861    23737782.1954   23737788.7954
        -0.000          -0.000
 97  3  3 20 48  0.0010000  0  6 26  2 27 19  7 15                   0.001000202
  -3046427.402 9  -2361648.93247  23293350.706    23293350.7994   23293356.7454
        -0.000          -0.000
  -1578010.932 9  -1226562.84749  21485673.993    21485673.3284   21485678.8204
        -0.000          -0.000
   -295578.053 9   -229551.38248  20728710.879    20728710.5024   20728715.6754
        -0.000          -0.000
   1758468.410 9   1363071.48946  23321000.699    23321000.3974   23321007.1764
        -0.000          -0.000
  -3312933.152 9  -2563179.94949  20885595.566    20885594.8744   20885600.7674
        -0.000          -0.000
  -1879257.279 9  -1455082.94146  23736987.329    23736986.6174   23736993.2084
        -0.000          -0.000
 97  3  3 20 48 30.0010000  0  6 26  2 27 19  7 15                   0.001000181
  -3080068.143 9  -2387862.49347  23286949.149    23286949.2404   23286955.0414
        -0.000          -0.000
  -1580520.499 9  -1228518.34049  21485196.410    21485195.7584   21485201.2874
        -0.000          -0.000
   -258106.108 9   -200352.47148  20735841.585    20735841.1864   20735846.3314
        -0.000          -0.000
   1845348.896 9   1430770.50646  23337533.541    23337533.2824   23337540.0914
        -0.000          -0.000
  -3354961.771 9  -2595929.49549  20877597.730    20877597.0604   20877602.9604
        -0.000          -0.000
  -1882901.208 9  -1457922.35046  23736293.905    23736293.2664   23736299.8534
        -0.000          -0.000
 97  3  3 20 49  0.0010000  0  6 26  2 27 19  7 15                   0.001000167
  -3113174.930 9  -2413659.97547  23280649.333    23280649.3624   23280654.9334
        -0.000          -0.000
  -1582871.668 9  -1230350.40849  21484748.994    21484748.3584   21484753.8874
        -0.000          -0.000
   -220124.718 9   -170756.59548  20743069.232    20743068.8424   20743074.0004
        -0.000          -0.000
   1932490.214 9   1498672.78946  23354116.113    23354115.8914   23354122.6074
        -0.000          -0.000
  -3396484.425 9  -2628284.77949  20869696.246    20869695.5704   20869701.4884
        -0.000          -0.000
  -1885960.508 9  -1460306.18746  23735711.768    23735711.2194   23735717.7664
        -0.000          -0.000
 97  3  3 20 49 30.0010000  0  6 26  2 27 19  7 15                   0.001000153
  -3145778.078 9  -2439065.00847  23274445.210    23274445.2674   23274450.6784
        -0.000          -0.000
  -1585104.912 9  -1232090.59349  21484324.070    21484323.4224   21484328.9324
        -0.000          -0.000
   -181646.204 9   -140773.35048  20750391.474    20750391.0734   20750396.2664
        -0.000          -0.000
   2019888.464 9   1566775.27646  23370747.595    23370747.2994   23370753.9764
        -0.000          -0.000
  -3437519.133 9  -2660259.85349  20861887.588    20861886.9264   20861892.8424
        -0.000          -0.000
  -1888457.006 9  -1462251.49346  23735236.749    23735236.1984   23735242.8384
        -0.000          -0.000
 97  3  3 20 50  0.0010000  0  6 26  2 27 19  7 15                   0.001000140
  -3177887.425 9  -2464085.26947  23268334.949    23268335.0464   23268340.4174
        -0.000          -0.000
  -1587232.498 9  -1233748.44649  21483919.173    21483918.5234   21483924.0564
        -0.000          -0.000
   -142679.586 9   -110409.76248  20757806.583    20757806.2204   20757811.4694
        -0.000          -0.000
   2107548.595 9   1635081.80546  23387428.698    23387428.4704   23387435.0624
        -0.000          -0.000
  -3478066.880 9  -2691855.47449  20854171.567    20854170.8984   20854176.8494
        -0.000          -0.000
  -1890396.947 9  -1463763.10946  23734867.632    23734867.0434   23734873.7634
        -0.000          -0.000
 97  3  3 20 50 30.0010000  0  6 26  2 27 19  7 15                   0.001000137
  -3209504.211 9  -2488721.71247  23262318.479    23262318.5124   23262323.8944
        -0.000          -0.000
  -1589258.317 9  -1235327.00649  21483533.619    21483532.9804   21483538.6094
        -0.000          -0.000
   -103219.949 9    -79662.00448  20765315.467    20765315.1414   20765320.4674
        -0.000          -0.000
   2195493.977 9   1703610.62846  23404164.230    23404164.0244   23404170.5994
        -0.000          -0.000
  -3518136.466 9  -2723078.50449  20846546.584    20846545.9364   20846551.8484
        -0.000          -0.000
  -1891782.261 9  -1464842.55346  23734603.993    23734603.3564   23734610.1374
        -0.000          -0.000
 97  3  3 20 51  0.0010000  0  6 26  2 27 19  7 15                   0.001000135
  -3240643.521 9  -2512986.08747  23256392.968    23256392.9344   23256398.2664
        -0.000          -0.000
  -1591194.039 9  -1236835.35349  21483165.252    21483164.6254   21483170.2814
        -0.000          -0.000
    -63296.489 9    -48552.82248  20772912.651    20772912.3224   20772917.6504
        -0.000          -0.000
   2283706.468 9   1772347.56346  23420950.525    23420950.3334   23420956.8964
        -0.000          -0.000
  -3557754.751 9  -2753949.87149  20839007.498    20839006.8464   20839012.7284
        -0.000          -0.000
  -1892638.103 9  -1465509.43046  23734441.112    23734440.4884   23734447.3134
        -0.000          -0.000
 97  3  3 20 51 30.0010000  0  6 26  2 27 19  7 15                   0.001000128
  -3271299.658 9  -2536873.98147  23250559.221    23250559.2834   23250564.6004
        -0.000          -0.000
  -1593041.777 9  -1238275.14449  21482813.679    21482813.0584   21482818.6944
        -0.000          -0.000
    -22924.539 9    -17094.16748  20780595.190    20780594.8934   20780600.1874
        -0.000          -0.000
   2372158.362 9   1841271.07046  23437782.401    23437782.2114   23437788.8414
        -0.000          -0.000
  -3596925.605 9  -2784472.59049  20831553.560    20831552.8864   20831558.7504
        -0.000          -0.000
  -1892966.357 9  -1465765.18446  23734378.625    23734377.9924   23734384.8034
        -0.000          -0.000
 97  3  3 20 52  0.0010000  0  6 26  2 27 19  7 15                   0.001000124
  -3301424.904 9  -2560348.17447  23244826.531    23244826.5924   23244831.9884
        -0.000          -0.000
  -1594758.895 9  -1239613.14749  21482486.943    21482486.2944   21482491.9034
        -0.000          -0.000
     17929.106 9     14739.83048  20788369.418    20788369.1214   20788374.3524
        -0.000          -0.000
   2460843.987 9   1910376.69846  23454658.789    23454658.5584   23454665.2774
        -0.000          -0.000
  -3635627.046 9  -2814629.53049  20824188.895    20824188.2054   20824194.0894
        -0.000          -0.000
  -1892737.768 9  -1465587.05946  23734422.151    23734421.5024   23734428.2764
        -0.000          -0.000
 97  3  3 20 52 30.0010000  0  6 26  2 27 19  7 15                   0.001000127
  -3330998.732 9  -2583392.70347  23239198.700    23239198.7984   23239204.2744
        -0.000          -0.000
  -1596329.362 9  -1240836.87749  21482188.052    21482187.4114   21482193.0074
        -0.000          -0.000
     59287.874 9     46967.42948  20796239.759    20796239.4734   20796244.6234
        -0.000          -0.000
   2549763.065 9   1979664.22146  23471579.606    23471579.3544   23471586.1154
        -0.000          -0.000
  -3673858.170 9  -2844419.98649  20816913.694    20816913.0314   20816918.9384
        -0.000          -0.000
  -1891939.961 9  -1464965.37746  23734573.994    23734573.3574   23734580.0384
        -0.000          -0.000
 97  3  3 20 53  0.0010000  0  6 26  2 27 19  7 15                   0.001000110
  -3360054.182 9  -2606033.30847  23233669.559    23233669.6664   23233675.2614
        -0.000          -0.000
  -1597787.808 9  -1241973.32049  21481910.506    21481909.8734   21481915.4684
        -0.000          -0.000
    101121.924 9     79565.37548  20804200.543    20804200.2324   20804205.3654
        -0.000          -0.000
   2638866.034 9   2049095.04646  23488535.324    23488535.0764   23488541.8854
        -0.000          -0.000
  -3711649.622 9  -2873867.84949  20809722.170    20809721.5304   20809727.4524
        -0.000          -0.000
  -1890597.261 9  -1463919.09646  23734829.509    23734828.8114   23734835.5304
        -0.000          -0.000
 97  3  3 20 53 30.0010000  0  6 26  2 27 19  7 15                   0.001000080
  -3388589.911 9  -2628268.93347  23228239.429    23228239.5644   23228245.1564
        -0.000          -0.000
  -1599131.337 9  -1243020.21049  21481654.818    21481654.2204   21481659.8124
        -0.000          -0.000
    143455.492 9    112552.57148  20812256.405    20812256.0954   20812261.1974
        -0.000          -0.000
   2728177.133 9   2118688.04446  23505530.654    23505530.3994   23505537.3154
        -0.000          -0.000
  -3748998.826 9  -2902971.09849  20802614.843    20802614.2004   20802620.1304
        -0.000          -0.000
  -1888702.919 9  -1462442.97646  23735189.966    23735189.2704   23735196.0504
        -0.000          -0.000
 97  3  3 20 54  0.0010000  0  6 26  2 27 19  7 15                   0.001000067
  -3416579.152 9  -2650078.71147  23222913.355    23222913.4524   23222918.9444
        -0.000          -0.000
  -1600320.715 9  -1243946.99249  21481428.543    21481427.9374   21481433.4804
        -0.000          -0.000
    186335.495 9    145965.54448  20820416.162    20820415.8664   20820421.0244
        -0.000          -0.000
   2817764.765 9   2188496.53846  23522578.638    23522578.3484   23522585.2984
        -0.000          -0.000
  -3785871.583 9  -2931703.09049  20795598.211    20795597.5574   20795603.4794
        -0.000          -0.000
  -1886217.782 9  -1460506.49446  23735662.926    23735662.1834   23735668.8644
        -0.000          -0.000
 97  3  3 20 54 30.0010000  0  6 26  2 27 19  7 15                   0.001000070
  -3444053.959 9  -2671487.65247  23217685.095    23217685.2014   23217690.7424
        -0.000          -0.000
  -1601386.266 9  -1244777.28249  21481225.795    21481225.1774   21481230.7334
        -0.000          -0.000
    229727.054 9    179777.14448  20828673.312    20828673.0204   20828678.2604
        -0.000          -0.000
   2907634.216 9   2258524.63346  23539680.220    23539679.9784   23539686.8854
        -0.000          -0.000
  -3822285.334 9  -2960077.41049  20788668.951    20788668.3144   20788674.1744
        -0.000          -0.000
  -1883160.888 9  -1458124.49546  23736244.472    23736243.8114   23736250.5314
        -0.000          -0.000
 97  3  3 20 55  0.0010000  0  6 26  2 27 19  7 15                   0.001000069
  -3471044.595 9  -2692519.31547  23212548.938    23212549.0074   23212554.6874
        -0.000          -0.000
  -1602346.160 9  -1245525.24249  21481043.132    21481042.5044   21481048.0564
        -0.000          -0.000
    273594.133 9    213959.26448  20837020.887    20837020.6214   20837025.9564
        -0.000          -0.000
   2997756.984 9   2328750.12446  23556830.102    23556829.8754   23556836.7104
        -0.000          -0.000
  -3858257.549 9  -2988107.68149  20781823.645    20781822.9934   20781828.8184
        -0.000          -0.000
  -1879559.261 9  -1455318.00546  23736929.690    23736929.1564   23736935.8754
        -0.000          -0.000
 97  3  3 20 55 30.0010000  0  6 26  2 27 19  7 15                   0.001000070
  -3497540.266 9  -2713165.27147  23207506.918    23207506.9674   23207512.7674
        -0.000          -0.000
  -1603197.645 9  -1246188.72149  21480881.120    21480880.4964   21480886.0474
        -0.000          -0.000
    317910.226 9    248491.28248  20845453.967    20845453.7034   20845458.9904
        -0.000          -0.000
   3088126.488 9   2399167.87646  23574027.035    23574026.8004   23574033.5154
        -0.000          -0.000
  -3893792.196 9  -3015796.98349  20775061.640    20775061.0044   20775066.7754
        -0.000          -0.000
  -1875422.914 9  -1452094.85346  23737716.796    23737716.2414   23737722.9664
        -0.000          -0.000
 97  3  3 20 56  0.0010000  0  6 26  2 27 19  7 15                   0.001000065
  -3523547.617 9  -2733430.74247  23202557.787    23202557.8834   23202563.7594
        -0.000          -0.000
  -1603948.400 9  -1246773.71249  21480738.258    21480737.6254   21480743.1824
        -0.000          -0.000
    362634.802 9    283341.58948  20853964.778    20853964.5314   20853969.7424
        -0.000          -0.000
   3178707.676 9   2469750.55546  23591264.328    23591264.0284   23591270.6534
        -0.000          -0.000
  -3928890.906 9  -3043146.60149  20768382.602    20768381.9384   20768387.7024
        -0.000          -0.000
  -1870757.790 9  -1448459.66446  23738604.641    23738604.0064   23738610.7024
        -0.000          -0.000
 97  3  3 20 56 30.0010000  0  6 26  2 27 19  7 15                   0.001000070
  -3549030.184 9  -2753287.27747  23197708.603    23197708.6904   23197714.5484
        -0.000          -0.000
  -1604554.246 9  -1247245.79049  21480622.966    21480622.3444   21480627.8824
        -0.000          -0.000
    407791.336 9    318528.48948  20862557.784    20862557.5124   20862562.7384
        -0.000          -0.000
   3269523.405 9   2540516.00646  23608545.988    23608545.7144   23608552.4424
        -0.000          -0.000
  -3963517.261 9  -3070128.14849  20761793.366    20761792.7004   20761798.4724
        -0.000          -0.000
  -1865531.554 9  -1444387.25446  23739599.219    23739598.5884   23739605.1854
        -0.000          -0.000
 97  3  3 20 57  0.0010000  0  6 26  2 27 19  7 15                   0.001000073
  -3573994.138 9  -2772739.69347  23192958.201    23192958.2694   23192964.0404
        -0.000          -0.000
  -1605010.089 9  -1247600.97849  21480536.225    21480535.6054   21480541.1044
        -0.000          -0.000
    453378.765 9    354051.15148  20871232.736    20871232.5064   20871237.7584
        -0.000          -0.000
   3360560.634 9   2611454.03646  23625869.799    23625869.5214   23625876.4174
        -0.000          -0.000
  -3997664.434 9  -3096736.30349  20755295.323    20755294.6884   20755300.4744
        -0.000          -0.000
  -1859750.607 9  -1439882.60146  23740699.484    23740698.7664   23740705.1784
        -0.000          -0.000
 97  3  3 20 57 30.0010000  0  6 26  2 27 19  7 15                   0.001000069
  -3598451.569 9  -2791797.42147  23188304.207    23188304.2804   23188309.9174
        -0.000          -0.000
  -1605337.769 9  -1247856.29749  21480473.837    21480473.2484   21480478.7054
        -0.000          -0.000
    499394.860 9    389907.83948  20879989.388    20879989.1144   20879994.3844
        -0.000          -0.000
   3451816.669 9   2682562.57546  23643235.173    23643234.9694   23643242.0814
        -0.000          -0.000
  -4031328.750 9  -3122968.21349  20748889.225    20748888.5734   20748894.3114
        -0.000          -0.000
  -1853417.388 9  -1434947.59546  23741904.728    23741903.9824   23741910.2824
        -0.000          -0.000
 97  3  3 20 58  0.0010000  0  6 26  2 27 19  7 15                   0.001000064
  -3622390.751 9  -2810451.30847  23183748.832    23183748.9154   23183754.4534
        -0.000          -0.000
  -1605507.653 9  -1247988.66449  21480441.474    21480440.8904   21480446.2974
        -0.000          -0.000
    545900.664 9    426146.12048  20888839.138    20888838.8684   20888844.1944
        -0.000          -0.000
   3543325.570 9   2753868.14846  23660648.775    23660648.5644   23660655.7854
        -0.000          -0.000
  -4064484.467 9  -3148803.80949  20742579.934    20742579.2714   20742584.9504
        -0.000          -0.000
  -1846499.198 9  -1429556.78146  23743221.131    23743220.4214   23743226.6904
        -0.000          -0.000
 97  3  3 20 58 30.0010000  0  6 26  2 27 19  7 15                   0.001000051
  -3645818.954 9  -2828707.04447  23179290.583    23179290.7014   23179296.2544
        -0.000          -0.000
  -1605534.629 9  -1248009.67249  21480436.342    21480435.7544   21480441.2024
        -0.000          -0.000
    592902.668 9    462771.04848  20897783.374    20897783.1064   20897788.4514
        -0.000          -0.000
   3635080.540 9   2825365.47246  23678109.289    23678109.0864   23678116.3414
        -0.000          -0.000
  -4097148.489 9  -3174256.26449  20736364.157    20736363.4944   20736369.1264
        -0.000          -0.000
  -1839011.430 9  -1423722.13646  23744646.017    23744645.3144   23744651.4524
        -0.000          -0.000
 97  3  3 20 59  0.0010000  0  6 26  2 27 19  7 15                   0.001000048
  -3668703.726 9  -2846539.32547  23174935.776    23174935.9454   23174941.4134
        -0.000          -0.000
  -1605401.447 9  -1247905.88649  21480461.647    21480461.0664   21480466.5554
        -0.000          -0.000
    640424.427 9    499800.97948  20906826.609    20906826.3054   20906831.5864
        -0.000          -0.000
   3727094.176 9   2897064.38946  23695619.018    23695618.8444   23695625.9834
        -0.000          -0.000
  -4129294.006 9  -3199304.68949  20730246.995    20730246.3294   20730251.9714
        -0.000          -0.000
  -1830922.553 9  -1417419.08646  23746185.232    23746184.5384   23746190.6584
        -0.000          -0.000
 97  3  3 20 59 30.0010000  0  6 26  2 27 19  7 15                   0.001000043
  -3691062.993 9  -2863962.11247  23170680.938    23170681.1014   23170686.5274
        -0.000          -0.000
  -1605138.018 9  -1247700.60749  21480511.762    21480511.1824   21480516.6724
        -0.000          -0.000
    688440.298 9    537215.93448  20915963.729    20915963.4104   20915968.7064
        -0.000          -0.000
   3819330.416 9   2968936.74346  23713170.950    23713170.8034   23713177.8174
        -0.000          -0.000
  -4160962.161 9  -3223981.14349  20724220.728    20724220.0814   20724225.7684
        -0.000          -0.000
  -1822258.622 9  -1410667.95146  23747833.882    23747833.2674   23747839.4564
        -0.000          -0.000
 97  3  3 21  0  0.0010000  0  6 26  2 27 19  7 15                   0.001000040
  -3712882.622 9  -2880964.40847  23166528.821    23166528.9264   23166534.3384
        -0.000          -0.000
  -1604728.028 9  -1247381.12349  21480589.816    21480589.2284   21480594.7064
        -0.000          -0.000
    736958.668 9    575022.44548  20925196.376    20925196.0784   20925201.3984
        -0.000          -0.000
   3911786.248 9   3040980.20446  23730764.599    23730764.3954   23730771.4234
        -0.000          -0.000
  -4192165.975 9  -3248295.77549  20718282.843    20718282.1824   20718287.8734
        -0.000          -0.000
  -1813015.276 9  -1403465.32346  23749592.867    23749592.2794   23749598.5064
        -0.000          -0.000
 97  3  3 21  0 30.0010000  0  6 26  2 27 19  7 15                   0.001000045
  -3734153.936 9  -2897539.45347  23162480.932    23162481.0584   23162486.4454
        -0.000          -0.000
  -1604175.238 9  -1246950.36749  21480695.044    21480694.4454   21480699.8744
        -0.000          -0.000
    785968.468 9    613211.89248  20934522.607    20934522.3514   20934527.6534
        -0.000          -0.000
   4004460.970 9   3113194.24846  23748399.945    23748399.7654   23748406.7474
        -0.000          -0.000
  -4222885.275 9  -3272232.86349  20712437.155    20712436.5094   20712442.2004
        -0.000          -0.000
  -1803186.133 9  -1395806.23546  23751463.276    23751462.7054   23751469.0124
        -0.000          -0.000
 97  3  3 21  1  0.0010000  0  6 26  2 27 19  7 15                   0.001000035
  -3754918.052 9  -2913719.27847  23158529.555    23158529.6744   23158535.1414
        -0.000          -0.000
  -1603523.949 9  -1246442.85649  21480819.035    21480818.4194   21480823.8314
        -0.000          -0.000
    835446.287 9    651766.02448  20943938.048    20943937.7434   20943943.0084
        -0.000          -0.000
   4097324.758 9   3185555.60246  23766071.319    23766071.1524   23766078.2264
        -0.000          -0.000
  -4253148.828 9  -3295814.82049  20706678.173    20706677.5354   20706683.2084
        -0.000          -0.000
  -1792804.133 9  -1387716.35646  23753439.002    23753438.4374   23753444.7304
        -0.000          -0.000
 97  3  3 21  1 30.0010000  0  6 26  2 27 19  7 15                   0.001000027
  -3775154.318 9  -2929487.78047  23154678.613    23154678.7694   23154684.3204
        -0.000          -0.000
  -1602752.039 9  -1245841.35949  21480965.962    21480965.3374   21480970.7254
        -0.000          -0.000
    885436.360 9    690719.31948  20953450.957    20953450.6484   20953455.8214
        -0.000          -0.000
   4190418.385 9   3258096.03446  23783786.673    23783786.4174   23783793.5834
        -0.000          -0.000
  -4282942.623 9  -3319030.73449  20701008.663    20701008.0104   20701013.6304
        -0.000          -0.000
  -1781850.938 9  -1379181.38646  23755523.388    23755522.8044   23755529.0624
        -0.000          -0.000
 97  3  3 21  2  0.0010000  0  6 26  2 27 19  7 15                   0.001000028
  -3794869.072 9  -2944849.91447  23150927.049    23150927.1674   23150932.6924
        -0.000          -0.000
  -1601864.004 9  -1245149.37449  21481134.948    21481134.3104   21481139.7134
        -0.000          -0.000
    935934.966 9    730068.87348  20963060.504    20963060.2154   20963065.3564
        -0.000          -0.000
   4283755.936 9   3330826.52046  23801548.339    23801548.1014   23801555.2844
        -0.000          -0.000
  -4312261.860 9  -3341876.86049  20695429.329    20695428.6634   20695434.3094
        -0.000          -0.000
  -1770324.215 9  -1370199.51946  23757716.745    23757716.1854   23757722.5284
        -0.000          -0.000
 97  3  3 21  2 30.0010000  0  6 26  2 27 19  7 15                   0.001000021
  -3814098.490 9  -2959833.86347  23147267.844    23147267.9704   23147273.4224
        -0.000          -0.000
  -1600904.364 9  -1244401.59249  21481317.554    21481316.9444   21481322.3044
        -0.000          -0.000
    986886.358 9    769771.24648  20972756.195    20972755.9334   20972761.0644
        -0.000          -0.000
   4377308.292 9   3403724.39946  23819350.899    23819350.6474   23819357.7214
        -0.000          -0.000
  -4341134.971 9  -3364375.36749  20689934.903    20689934.2674   20689939.9374
        -0.000          -0.000
  -1758265.371 9  -1360803.01546  23760011.443    23760010.8374   23760017.2194
        -0.000          -0.000
 97  3  3 21  3  0.0010000  0  6 26  2 27 19  7 15                   0.001000033
  -3832803.015 9  -2974408.81947  23143708.522    23143708.6544   23143714.1134
        -0.000          -0.000
  -1599831.316 9  -1243565.43749  21481521.745    21481521.1524   21481526.4984
        -0.000          -0.000
   1038320.326 9    809849.65248  20982543.706    20982543.4184   20982548.6764
        -0.000          -0.000
   4471112.741 9   3476818.71246  23837201.346    23837201.1394   23837208.0774
        -0.000          -0.000
  -4369553.560 9  -3386519.69249  20684527.013    20684526.3904   20684532.0524
        -0.000          -0.000
  -1745642.497 9  -1350967.00546  23762413.475    23762412.8444   23762419.2214
        -0.000          -0.000
 97  3  3 21  3 30.0010000  0  6 26  2 27 19  7 15                   0.001000052
  -3850999.741 9  -2988588.07847  23140245.818    23140245.9214   23140251.4104
        -0.000          -0.000
  -1598646.249 9  -1242641.99649  21481747.240    21481746.6564   21481752.0334
        -0.000          -0.000
   1090193.298 9    850270.13748  20992414.770    20992414.4844   20992419.8484
        -0.000          -0.000
   4565140.571 9   3550087.09446  23855094.267    23855094.0624   23855100.9084
        -0.000          -0.000
  -4397537.785 9  -3408325.55549  20679201.815    20679201.1674   20679206.7954
        -0.000          -0.000
  -1732471.309 9  -1340703.74446  23764919.741    23764919.1494   23764925.6124
        -0.000          -0.000
 97  3  3 21  4  0.0010000  0  6 26  2 27 19  7 15                   0.001000052
  -3868715.488 9  -3002392.53947  23136874.701    23136874.8054   23136880.2624
        -0.000          -0.000
  -1597365.156 9  -1241643.73749  21481991.027    21481990.4284   21481995.8384
        -0.000          -0.000
   1142467.106 9    891002.96348  21002362.167    21002361.9174   21002367.2434
        -0.000          -0.000
   4659347.365 9   3623494.93146  23873021.246    23873021.0214   23873027.8254
        -0.000          -0.000
  -4425092.321 9  -3429796.59549  20673958.341    20673957.6874   20673963.2834
        -0.000          -0.000
  -1718771.771 9  -1330028.77346  23767526.523    23767525.9844   23767532.4814
        -0.000          -0.000
 97  3  3 21  4 30.0010000  0  6 26  2 27 19  7 15                   0.001000050
  -3885908.103 9  -3015789.38547  23133603.107    23133603.2394   23133608.5824
        -0.000          -0.000
  -1595943.505 9  -1240535.94249  21482261.510    21482260.9204   21482266.3984
        -0.000          -0.000
   1195189.204 9    932085.11548  21012394.955    21012394.6424   21012399.8814
        -0.000          -0.000
   4753760.764 9   3697063.77746  23890987.531    23890987.2644   23890994.1634
        -0.000          -0.000
  -4452185.775 9  -3450908.34849  20668802.561    20668801.9164   20668807.4944
        -0.000          -0.000
  -1704508.856 9  -1318914.81646  23770240.619    23770240.1154   23770246.6564
        -0.000          -0.000
 97  3  3 21  5  0.0010000  0  6 26  2 27 19  7 15                   0.001000045
  -3902571.893 9  -3028774.15847  23130432.175    23130432.2854   23130437.5824
        -0.000          -0.000
  -1594377.824 9  -1239315.92049  21482559.462    21482558.8544   21482564.3524
        -0.000          -0.000
   1248380.633 9    973532.97448  21022516.972    21022516.6744   21022521.8754
        -0.000          -0.000
   4848375.832 9   3770789.75346  23908992.154    23908991.8894   23908999.0334
        -0.000          -0.000
  -4478811.668 9  -3471655.77149  20663735.757    20663735.1244   20663740.6874
        -0.000          -0.000
  -1689678.063 9  -1307358.34346  23773062.789    23773062.2914   23773068.8384
        -0.000          -0.000
 97  3  3 21  5 30.0010000  0  6 26  2 27 19  7 15                   0.001000039
  -3918695.958 9  -3041338.34847  23127363.967    23127364.0494   23127369.2684
        -0.000          -0.000
  -1592647.508 9  -1237967.60749  21482888.744    21482888.1464   21482893.6614
        -0.000          -0.000
   1302066.958 9   1015366.46448  21032733.111    21032732.7724   21032738.0644
        -0.000          -0.000
   4943211.611 9   3844687.72046  23927038.858    23927038.5564   23927045.8484
        -0.000          -0.000
  -4504932.240 9  -3492009.43649  20658765.163    20658764.5154   20658770.0624
        -0.000          -0.000
  -1674260.054 9  -1295344.30446  23775996.851    23775996.2704   23776002.8784
        -0.000          -0.000
 97  3  3 21  6  0.0010000  0  6 26  2 27 19  7 15                   0.001000033
  -3934285.056 9  -3053485.69347  23124397.415    23124397.5534   23124402.7394
        -0.000          -0.000
  -1590775.664 9  -1236509.01549  21483244.938    21483244.3394   21483249.8304
        -0.000          -0.000
   1356252.099 9   1057588.65148  21043044.144    21043043.8444   21043049.2034
        -0.000          -0.000
   5038264.049 9   3918754.49946  23945126.759    23945126.4844   23945133.8564
        -0.000          -0.000
  -4530563.452 9  -3511981.78149  20653887.697    20653887.0424   20653892.5794
        -0.000          -0.000
  -1658269.595 9  -1282884.19846  23779039.751    23779039.1244   23779045.6954
        -0.000          -0.000
 97  3  3 21  6 30.0010000  0  6 26  2 27 19  7 15                   0.001000028
  -3949354.242 9  -3065227.91347  23121529.902    23121530.0184   23121535.1704
        -0.000          -0.000
  -1588797.971 9  -1234967.94149  21483621.274    21483620.6694   21483626.1474
        -0.000          -0.000
   1410916.803 9   1100184.51548  21053446.538    21053446.2524   21053451.6154
        -0.000          -0.000
   5133528.005 9   3992986.11345  23963254.915    23963254.6444   23963262.1004
        -0.000          -0.000
  -4555741.235 9  -3531600.80349  20649096.517    20649095.8784   20649101.4154
        -0.000          -0.000
  -1641724.415 9  -1269991.83146  23782188.111    23782187.5144   23782194.1454
        -0.000          -0.000
 97  3  3 21  7  0.0010000  0  6 26  2 27 19  7 15                   0.001000029
  -3963905.553 9  -3076566.59847  23118760.937    23118761.0154   23118766.1414
        -0.000          -0.000
  -1586707.815 9  -1233339.23849  21484018.977    21484018.3644   21484023.8154
        -0.000          -0.000
   1466057.965 9   1143151.65248  21063939.626    21063939.2984   21063944.6464
        -0.000          -0.000
   5229010.652 9   4067388.13545  23981424.714    23981424.4364   23981431.8164
        -0.000          -0.000
  -4580449.606 9  -3550854.05349  20644394.685    20644394.0334   20644399.5704
        -0.000          -0.000
  -1624612.055 9  -1256657.51646  23785444.523    23785443.8604   23785450.3964
        -0.000          -0.000
 97  3  3 21  7 30.0010000  0  6 26  2 27 19  7 15                   0.001000025
  -3977954.090 9  -3087513.50847  23116087.512    23116087.5664   23116092.8864
        -0.000          -0.000
  -1584495.721 9  -1231615.51849  21484439.871    21484439.2824   21484444.7124
        -0.000          -0.000
   1521666.960 9   1186483.32648  21074521.668    21074521.3534   21074526.6944
        -0.000          -0.000
   5324710.832 9   4141959.66445  23999635.833    23999635.6484   23999642.7924
        -0.000          -0.000
  -4604685.912 9  -3569739.46149  20639782.693    20639782.0264   20639787.5724
        -0.000          -0.000
  -1606927.111 9  -1242877.03146  23788809.871    23788809.1804   23788815.7914
        -0.000          -0.000
 97  3  3 21  8  0.0010000  0  6 26  2 27 19  7 15                   0.001000028
  -3991488.355 9  -3098059.68647  23113511.946    23113512.0294   23113517.5074
        -0.000          -0.000
  -1582172.825 9  -1229805.45749  21484881.928    21484881.2964   21484886.7114
        -0.000          -0.000
   1577739.375 9   1230176.10748  21085191.925    21085191.5964   21085196.8914
        -0.000          -0.000
   5420624.228 9   4216697.32546  24017887.617    24017887.4424   24017894.4924
        -0.000          -0.000
  -4628460.387 9  -3588264.99649  20635258.514    20635257.8584   20635263.3954
        -0.000          -0.000
  -1588668.328 9  -1228649.37046  23792284.338    23792283.6954   23792290.3624
        -0.000          -0.000
 97  3  3 21  8 30.0010000  0  6 26  2 27 19  7 15                   0.001000024
  -4004527.231 9  -3108219.83347  23111030.740    23111030.8064   23111036.3604
        -0.000          -0.000
  -1579738.816 9  -1227908.82049  21485345.114    21485344.4864   21485349.8774
        -0.000          -0.000
   1634259.198 9   1274217.52448  21095947.362    21095947.0404   21095952.2434
        -0.000          -0.000
   5516734.895 9   4291588.69646  24036176.895    24036176.7414   24036183.8474
        -0.000          -0.000
  -4651778.801 9  -3606435.16649  20630821.155    20630820.5104   20630826.0264
        -0.000          -0.000
  -1569843.049 9  -1213980.29946  23795866.662    23795866.0744   23795872.7204
        -0.000          -0.000
 97  3  3 21  9  0.0010000  0  6 26  2 27 19  7 15                   0.001000011
  -4017060.468 9  -3117985.98247  23108645.813    23108645.8474   23108651.3884
        -0.000          -0.000
  -1577174.104 9  -1225910.33349  21485833.162    21485832.5484   21485837.9164
        -0.000          -0.000
   1691227.016 9   1318608.02848  21106787.995    21106787.6454   21106792.8554
        -0.000          -0.000
   5613039.276 9   4366631.01246  24054503.072    24054502.8244   24054510.0794
        -0.000          -0.000
  -4674631.322 9  -3624242.29549  20626472.480    20626471.8214   20626477.3204
        -0.000          -0.000
  -1550451.218 9  -1198869.76246  23799556.894    23799556.3104   23799562.8444
        -0.000          -0.000
 97  3  3 21  9 30.0010000  0  6 26  2 27 19  7 15                   0.001000014
  -4029041.887 9  -3127322.15547  23106365.824    23106365.9164   23106371.4544
        -0.000          -0.000
  -1574459.083 9  -1223794.72549  21486349.809    21486349.2104   21486354.5444
        -0.000          -0.000
   1748671.686 9   1363370.10648  21117719.278    21117718.9574   21117724.2534
        -0.000          -0.000
   5709553.589 9   4441836.91746  24072869.269    24072868.9794   24072876.2594
        -0.000          -0.000
  -4697002.754 9  -3641674.55249  20622215.327    20622214.6584   20622220.1594
        -0.000          -0.000
  -1530471.039 9  -1183300.78246  23803359.028    23803358.4684   23803364.8844
        -0.000          -0.000
 97  3  3 21 10  0.0010000  0  6 26  2 27 19  7 15                   0.001000029
  -4040480.488 9  -3136235.33647  23104189.272    23104189.3224   23104194.8064
        -0.000          -0.000
  -1571638.823 9  -1221597.11449  21486886.470    21486885.8884   21486891.2054
        -0.000          -0.000
   1806563.103 9   1408480.29448  21128735.667    21128735.3514   21128740.6574
        -0.000          -0.000
   5806243.798 9   4517179.88346  24091268.898    24091268.6714   24091275.9684
        -0.000          -0.000
  -4718934.783 9  -3658764.41949  20618041.772    20618041.1074   20618046.6054
        -0.000          -0.000
  -1509938.125 9  -1167301.09046  23807266.270    23807265.7134   23807272.2294
        -0.000          -0.000
 97  3  3 21 10 30.0010000  0  6 26  2 27 19  7 15                   0.001000042
  -4051388.550 9  -3144735.12647  23102113.569    23102113.6304   23102119.0924
        -0.000          -0.000
  -1568713.688 9  -1219317.78249  21487443.047    21487442.5034   21487447.8564
        -0.000          -0.000
   1864885.063 9   1453925.96948  21139834.004    21139833.6584   21139838.9954
        -0.000          -0.000
   5903094.598 9   4592648.00346  24109699.122    24109698.8034   24109706.1574
        -0.000          -0.000
  -4740430.287 9  -3675514.13549  20613951.255    20613950.6094   20613956.0764
        -0.000          -0.000
  -1488864.599 9  -1150880.12446  23811276.323    23811275.7574   23811282.3044
        -0.000          -0.000
 97  3  3 21 11  0.0010000  0  6 26  2 27 19  7 15                   0.001000053
  -4061763.316 9  -3152819.35647  23100139.254    23100139.3464   23100144.8864
        -0.000          -0.000
  -1565690.369 9  -1216961.94149  21488018.361    21488017.8354   21488023.1614
        -0.000          -0.000
   1923638.355 9   1499707.74248  21151014.337    21151013.9884   21151019.3184
        -0.000          -0.000
   6000099.968 9   4668236.54646  24128158.604    24128158.3434   24128165.7024
        -0.000          -0.000
  -4761482.455 9  -3691918.39449  20609945.206    20609944.5524   20609950.0014
        -0.000          -0.000
  -1467251.212 9  -1134038.51746  23815389.361    23815388.7294   23815395.1344
        -0.000          -0.000
 97  3  3 21 11 30.0010000  0  6 26  2 27 19  7 15                   0.001000049
  -4071625.169 9  -3160503.90247  23098262.586    23098262.6654   23098268.2554
        -0.000          -0.000
  -1562571.134 9  -1214531.35649  21488611.936    21488611.3544   21488616.6804
        -0.000          -0.000
   1982826.860 9   1545828.65148  21162277.514    21162277.1704   21162282.4484
        -0.000          -0.000
   6097256.563 8   4743942.94446  24146646.814    24146646.5344   24146653.9564
        -0.000          -0.000
  -4782088.041 9  -3707974.66349  20606024.096    20606023.4374   20606028.9114
        -0.000          -0.000
  -1445102.329 9  -1116779.62346  23819604.280    23819603.4714   23819609.9034
        -0.000          -0.000
 97  3  3 21 12  0.0010000  0  6 26  2 27 19  7 15                   0.001000041
  -4080960.015 9  -3167777.80047  23096486.340    23096486.3854   23096491.9764
        -0.000          -0.000
  -1559305.164 9  -1211986.44249  21489233.412    21489232.8444   21489238.2004
        -0.000          -0.000
   2042486.888 9   1592316.97848  21173630.483    21173630.1314   21173635.3624
        -0.000          -0.000
   6194611.299 8   4819803.72145  24165172.782    24165172.6094   24165179.8854
        -0.000          -0.000
  -4802198.990 9  -3723645.50949  20602197.136    20602196.4864   20602201.9594
        -0.000          -0.000
  -1422382.576 9  -1099075.90645  23823927.604    23823926.9284   23823933.1634
        -0.000          -0.000
 97  3  3 21 12 30.0010000  0  6 26  2 27 19  7 15                   0.001000022
  -4089773.995 9  -3174645.82447  23094809.127    23094809.1864   23094814.7764
        -0.000          -0.000
  -1555864.428 9  -1209305.33949  21489888.199    21489887.6304   21489892.9854
        -0.000          -0.000
   2102645.490 9   1639193.81148  21185078.312    21185077.9664   21185083.2104
        -0.000          -0.000
   6292185.752 9   4895835.69145  24183740.573    24183740.2754   24183747.6484
        -0.000          -0.000
  -4821784.901 9  -3738907.22649  20598470.055    20598469.3774   20598474.8874
        -0.000          -0.000
  -1399074.615 9  -1080913.84745  23828362.965    23828362.2584   23828368.4094
        -0.000          -0.000
 97  3  3 21 13  0.0010000  0  6 26  2 27 19  7 15                   0.001000001
  -4098060.042 9  -3181102.47747  23093232.351    23093232.3784   23093237.9544
        -0.000          -0.000
  -1552240.604 9  -1206481.56849  21490577.824    21490577.2134   21490582.5864
        -0.000          -0.000
   2163320.487 9   1686473.02248  21196624.394    21196624.0534   21196629.3204
        -0.000          -0.000
   6389993.515 9   4972049.48145  24202352.830    24202352.5504   24202359.9334
        -0.000          -0.000
  -4840840.317 9  -3753755.57649  20594843.873    20594843.2174   20594848.7344
        -0.000          -0.000
  -1375169.821 8  -1062286.73445  23832911.828    23832911.1004   23832917.2064
        -0.000          -0.000
 97  3  3 21 13 30.0010000  0  6 26  2 27 19  7 15                   0.000999985
  -4105818.860 9  -3187148.30447  23091755.961    23091756.0204   23091761.4584
        -0.000          -0.000
  -1548430.482 9  -1203512.63349  21491302.822    21491302.2214   21491307.6244
        -0.000          -0.000
   2224499.036 9   1734144.61148  21208266.226    21208265.8834   21208271.2514
        -0.000          -0.000
   6488038.162 9   5048447.85945  24221010.241    24221009.8634   24221017.2694
        -0.000          -0.000
  -4859394.634 9  -3768213.46149  20591313.057    20591312.4014   20591317.9164
        -0.000          -0.000
  -1350673.029 8  -1043198.34145  23837573.293    23837572.5924   23837578.8754
        -0.000          -0.000
 97  3  3 21 14  0.0010000  0  6 26  2 27 19  7 15                   0.000999986
  -4113047.973 9  -3192781.37247  23090380.285    23090380.3424   23090385.8134
        -0.000          -0.000
  -1544456.917 9  -1200416.33649  21492059.029    21492058.4074   21492063.7884
        -0.000          -0.000
   2286160.893 9   1782192.79648  21220000.005    21219999.7004   21220005.0994
        -0.000          -0.000
   6586315.935 9   5125027.91245  24239711.980    24239711.6574   24239718.9274
        -0.000          -0.000
  -4877469.796 9  -3782297.97549  20587873.409    20587872.7724   20587878.3054
        -0.000          -0.000
  -1325586.842 8  -1023650.66545  23842346.961    23842346.2384   23842352.7494
        -0.000          -0.000
 97  3  3 21 14 30.0010000  0  7 26  2 27  4 19  7 15                0.001000058
  -4119779.067 9  -3198026.36547  23089099.349    23089099.4294   23089104.9684
        -0.000          -0.000
  -1540378.859 9  -1197238.61549  21492835.092    21492834.4404   21492839.8404
        -0.000          -0.000
   2348242.863 9   1830568.34948  21231813.858    21231813.5714   21231818.9294
        -0.000          -0.000
  -1930193.06518   -957781.35555  24876722.360    24876722.4345   24876730.1905
        -0.000          -0.000
   6684775.281 9   5201749.44645  24258448.159    24258447.8764   24258455.0474
        -0.000          -0.000
  -4895126.171 9  -3796056.16349  20584513.486    20584512.8384   20584518.3704
        -0.000          -0.000
  -1299957.186 8  -1003679.51145  23847224.036    23847223.3114   23847230.1014
        -0.000          -0.000
 97  3  3 21 15  0.0010000  0  7 26  2 27  4 19  7 15                0.001000046
  -4126013.679 9  -3202884.50147  23087912.889    23087912.9604   23087918.5994
        -0.000          -0.000
  -1536206.613 9  -1193987.50149  21493628.954    21493628.3414   21493633.7764
        -0.000          -0.000
   2410715.113 9   1879248.02248  21243701.983    21243701.6714   21243706.9854
        -0.000          -0.000
  -2032256.455 8  -1037311.20845  24857300.203    24857300.2084   24857308.2524
        -0.000          -0.000
   6783406.229 9   5278604.69545  24277216.950    24277216.7434   24277224.0194
        -0.000          -0.000
  -4912402.997 9  -3809518.60049  20581225.756    20581225.0954   20581230.6594
        -0.000          -0.000
  -1273795.350 8   -983293.68845  23852202.433    23852201.5554   23852208.5634
        -0.000          -0.000
 97  3  3 21 15 30.0010000  0  7 26  2 27  4 19  7 15                0.001000054
  -4131732.726 9  -3207340.91047  23086824.546    23086824.6144   23086830.2744
        -0.000          -0.000
  -1531925.661 9  -1190651.68349  21494443.559    21494442.9674   21494448.3894
        -0.000          -0.000
   2473600.339 9   1928249.48448  21255668.614    21255668.3574   21255673.6344
        -0.000          -0.000
  -2134405.279 8  -1116907.66945  24837862.007    24837861.9474   24837869.7754
        -0.000          -0.000
   6882225.965 9   5355607.03745  24296021.695    24296021.6244   24296028.8994
        -0.000          -0.000
  -4929268.844 9  -3822660.79849  20578016.239    20578015.5964   20578021.1814
        -0.000          -0.000
  -1247075.720 8   -962473.21845  23857287.163    23857286.2844   23857293.2134
        -0.000          -0.000
 97  3  3 21 16  0.0010000  0  7 26  2 27  4 19  7 15                0.001000075
  -4136943.610 9  -3211401.33347  23085833.011    23085833.1004   23085838.6714
        -0.000          -0.000
  -1527555.090 9  -1187246.02649  21495275.270    21495274.6514   21495280.0934
        -0.000          -0.000
   2536895.498 9   1977570.37748  21267713.282    21267712.9894   21267718.3064
        -0.000          -0.000
  -2236618.078 8  -1196553.92645  24818411.540    24818411.6714   24818419.4044
        -0.000          -0.000
   6981223.575 9   5432747.99845  24314860.371    24314860.2824   24314867.8044
        -0.000          -0.000
  -4945708.168 9  -3835470.63249  20574887.945    20574887.2924   20574892.8754
        -0.000          -0.000
  -1219808.522 8   -941226.06545  23862475.941    23862475.1224   23862481.9714
        -0.000          -0.000
 97  3  3 21 16 30.0010000  0  7 26  2 27  4 19  7 15                0.001000089
  -4141667.324 9  -3215082.15447  23084934.187    23084934.2834   23084939.8374
        -0.000          -0.000
  -1523092.252 9  -1183768.47949  21496124.493    21496123.8734   21496129.3744
        -0.000          -0.000
   2600600.998 9   2027211.01548  21279836.016    21279835.7464   21279841.0824
        -0.000          -0.000
  -2338910.351 8  -1276262.15445  24798946.198    24798945.9894   24798953.9514
        -0.000          -0.000
   7080366.793 9   5510002.39645  24333726.770    24333726.5724   24333734.1544
        -0.000          -0.000
  -4961733.042 9  -3847957.52249  20571838.508    20571837.8534   20571843.3954
        -0.000          -0.000
  -1192016.414 8   -919569.90445  23867764.548    23867763.7414   23867770.4674
        -0.000          -0.000
 97  3  3 21 17  0.0010000  0  7 26  2 27  4 19  7 15                0.001000095
  -4145892.583 9  -3218374.56347  23084130.196    23084130.2594   23084135.8374
        -0.000          -0.000
  -1518519.029 9  -1180204.91849  21496994.772    21496994.1414   21496999.6464
        -0.000          -0.000
   2664755.659 9   2077201.64748  21292044.220    21292043.9454   21292049.3094
        -0.000          -0.000
  -2441257.433 8  -1356013.06945  24779469.914    24779469.7004   24779477.7904
        -0.000          -0.000
   7179661.177 9   5587374.57745  24352621.925    24352621.7324   24352629.2674
        -0.000          -0.000
  -4977313.571 9  -3860098.17149  20568873.655    20568872.9864   20568878.4924
        -0.000          -0.000
  -1163684.335 8   -897492.97145  23873155.821    23873155.1194   23873161.6624
        -0.000          -0.000
 97  3  3 21 17 30.0010000  0  7 26  2 27  4 19  7 15                0.001000089
  -4149608.380 9  -3221269.98147  23083423.094    23083423.1194   23083428.7294
        -0.000          -0.000
  -1513834.039 9  -1176554.26249  21497886.350    21497885.7034   21497891.1594
        -0.000          -0.000
   2729375.087 9   2127554.44048  21304340.976    21304340.6824   21304345.9984
        -0.000          -0.000
  -2543661.951 8  -1435808.75545  24759982.927    24759982.7814   24759990.5184
        -0.000          -0.000
   7279102.672 9   5664861.39445  24371545.125    24371544.8804   24371552.4734
        -0.000          -0.000
  -4992422.798 9  -3871871.56449  20565998.466    20565997.7864   20566003.2924
        -0.000          -0.000
  -1134805.782 8   -874990.21845  23878650.980    23878650.3654   23878657.0954
        -0.000          -0.000
 97  3  3 21 18  0.0010000  0  7 26  2 27  4 19  7 15                0.001000085
  -4152781.837 9  -3223742.79247  23082819.169    23082819.2374   23082824.8074
        -0.000          -0.000
  -1509000.131 9  -1172787.57049  21498806.217    21498805.5674   21498810.9824
        -0.000          -0.000
   2794490.809 9   2178293.95948  21316732.170    21316731.8544   21316737.0784
        -0.000          -0.000
  -2646122.465 8  -1515648.06345  24740485.166    24740485.1474   24740493.0454
        -0.000          -0.000
   7378715.355 9   5742481.61645  24390500.927    24390500.6384   24390507.9584
        -0.000          -0.000
  -5007053.645 9  -3883272.19949  20563214.225    20563213.5444   20563219.0684
        -0.000          -0.000
  -1105358.373 8   -852044.20645  23884254.623    23884254.0754   23884260.5964
        -0.000          -0.000
 97  3  3 21 18 30.0010000  0  7 26  2 27  4 19  7 15                0.001000065
  -4155436.666 9  -3225811.49547  23082313.915    23082313.9774   23082319.6134
        -0.000          -0.000
  -1504033.371 9  -1168917.35849  21499751.384    21499750.7424   21499756.0974
        -0.000          -0.000
   2860089.004 9   2229409.42548  21329215.082    21329214.7424   21329219.9534
        -0.000          -0.000
  -2748669.707 8  -1595554.97345  24720971.131    24720971.2874   24720978.9874
        -0.000          -0.000
   7478474.197 8   5820215.72145  24409484.440    24409484.2554   24409491.4684
        -0.000          -0.000
  -5021230.451 9  -3894319.03849  20560516.432    20560515.7814   20560521.2984
        -0.000          -0.000
  -1075358.387 9   -828667.59845  23889963.602    23889963.0334   23889969.3454
        -0.000          -0.000
 97  3  3 21 19  0.0010000  0  7 26  2 27  4 19  7 15                0.001000047
  -4157550.115 9  -3227458.33447  23081911.666    23081911.7754   23081917.3794
        -0.000          -0.000
  -1498928.242 9  -1164939.32249  21500722.822    21500722.1804   21500727.4974
        -0.000          -0.000
   2926173.714 9   2280903.99648  21341790.511    21341790.2064   21341795.4484
        -0.000          -0.000
  -2851291.629 8  -1675520.09045  24701442.765    24701442.8074   24701450.7844
        -0.000          -0.000
   7578411.690 8   5898089.03945  24428501.882    24428501.5714   24428508.9714
        -0.000          -0.000
  -5034920.931 9  -3904986.92549  20557911.234    20557910.5754   20557916.0544
        -0.000          -0.000
  -1044780.051 9   -804840.34245  23895782.552    23895781.8444   23895788.2154
        -0.000          -0.000
 97  3  3 21 19 30.0010000  0  7 26  2 27  4 19  7 15                0.001000028
  -4159126.919 9  -3228687.00847  23081611.534    23081611.6334   23081617.2594
        -0.000          -0.000
  -1493684.356 9  -1160853.17149  21501720.608    21501719.9694   21501725.3094
        -0.000          -0.000
   2992731.513 9   2332767.20748  21354456.068    21354455.7684   21354461.0224
        -0.000          -0.000
  -2954005.232 8  -1755556.65745  24681897.077    24681897.1684   24681905.0034
        -0.000          -0.000
   7678535.894 9   5976107.84945  24447554.796    24447554.4904   24447561.8294
        -0.000          -0.000
  -5048129.241 9  -3915279.09549  20555397.787    20555397.1254   20555402.5884
        -0.000          -0.000
  -1013622.144 9   -780561.46845  23901711.568    23901710.8704   23901717.4184
        -0.000          -0.000
 97  3  3 21 20  0.0010000  0  7 26  2 27  4 19  7 15                0.001000011
  -4160177.178 9  -3229505.37447  23081411.640    23081411.7614   23081417.2874
        -0.000          -0.000
  -1488303.731 9  -1156660.47249  21502744.425    21502743.8304   21502749.1964
        -0.000          -0.000
   3059755.380 9   2384993.58648  21367210.312    21367210.0184   21367215.2884
        -0.000          -0.000
  -3056790.947 8  -1835649.39545  24662337.633    24662337.7394   24662345.2694
        -0.000          -0.000
   7778851.640 8   6054275.92345  24466644.334    24466643.9254   24466651.4454
        -0.000          -0.000
  -5060841.091 9  -3925184.41049  20552978.766    20552978.0994   20552983.5744
        -0.000          -0.000
   -981881.755 9   -755828.69645  23907751.676    23907750.9684   23907757.5414
        -0.000          -0.000
 97  3  3 21 20 30.0010000  0  7 26  2 27  4 19  7 15                0.000999996
  -4160712.413 9  -3229922.43647  23081309.780    23081309.9024   23081315.3974
        -0.000          -0.000
  -1482793.849 9  -1152367.04949  21503792.970    21503792.3444   21503797.7144
        -0.000          -0.000
   3127217.167 9   2437561.20648  21380047.910    21380047.5814   21380052.8734
        -0.000          -0.000
  -3159632.053 9  -1915785.26645  24642767.433    24642767.4084   24642775.1504
        -0.000          -0.000
   7879352.504 8   6132588.22945  24485769.081    24485768.7754   24485776.1104
        -0.000          -0.000
  -5073054.173 9  -3934701.07549  20550654.676    20550654.0184   20550659.5094
        -0.000          -0.000
   -949566.001 9   -730647.59545  23913901.208    23913900.5314   23913907.0064
        -0.000          -0.000
 97  3  3 21 21  0.0010000  0  7 26  2 27  4 19  7 15                0.000999994
  -4160723.664 9  -3229931.18947  23081307.663    23081307.7734   23081313.2904
        -0.000          -0.000
  -1477132.465 9  -1147955.57649  21504870.295    21504869.6594   21504875.0254
        -0.000          -0.000
   3195125.272 9   2490476.60048  21392970.383    21392970.0654   21392975.4014
        -0.000          -0.000
  -3262508.158 9  -1995948.41845  24623190.857    24623190.7504   24623198.3024
        -0.000          -0.000
   7980050.238 9   6211053.94545  24504931.406    24504931.0694   24504938.3084
        -0.000          -0.000
  -5084762.969 9  -3943824.79649  20548426.525    20548425.8614   20548431.3564
        -0.000          -0.000
   -916668.771 9   -705013.38745  23920161.423    23920160.7674   23920167.0564
        -0.000          -0.000
 97  3  3 21 21 30.0010000  0  7 26  2 27  4 19  7 15                0.001000003
  -4160218.544 9  -3229537.57747  23081403.836    23081403.9174   23081409.5134
        -0.000          -0.000
  -1471332.619 9  -1143436.21149  21505973.943    21505973.3254   21505978.7094
        -0.000          -0.000
   3263476.593 9   2543737.35748  21405977.190    21405976.8914   21405982.2444
        -0.000          -0.000
  -3365401.189 8  -2076124.78045  24603610.936    24603610.9544   24603618.5494
        -0.000          -0.000
   8080932.616 9   6289663.55745  24524128.774    24524128.5284   24524135.6434
        -0.000          -0.000
  -5095996.435 9  -3952578.12449  20546288.853    20546288.2014   20546293.6994
        -0.000          -0.000
   -883206.230 9   -678938.67845  23926529.305    23926528.4894   23926534.8564
        -0.000          -0.000
 97  3  3 21 22  0.0010000  0  7 26  2 27  4 19  7 15                0.001000023
  -4159202.081 9  -3228745.50447  23081597.173    23081597.2534   23081603.0084
        -0.000          -0.000
  -1465405.937 9  -1138818.01749  21507101.752    21507101.1444   21507106.5344
        -0.000          -0.000
   3332254.933 9   2597330.85848  21419065.254    21419064.9604   21419070.2684
        -0.000          -0.000
  -3468303.792 9  -2156308.56145  24584029.271    24584029.2614   24584036.7354
        -0.000          -0.000
   8181984.168 9   6368405.00145  24543358.330    24543358.1464   24543365.1674
        -0.000          -0.000
  -5106781.389 9  -3960981.97049  20544236.589    20544235.9114   20544241.3754
        -0.000          -0.000
   -849198.275 9   -652438.96645  23933000.677    23932999.8594   23933006.3874
        -0.000          -0.000
 97  3  3 21 22 30.0010000  0  7 26  2 27  4 19  7 15                0.001000051
  -4157668.071 9  -3227550.17247  23081888.928    23081889.0714   23081894.9964
        -0.000          -0.000
  -1459334.292 9  -1134086.85949  21508257.190    21508256.5844   21508261.9814
        -0.000          -0.000
   3401473.177 9   2651267.15248  21432237.076    21432236.7614   21432242.0564
        -0.000          -0.000
  -3571231.559 9  -2236511.94145  24564442.617    24564442.8504   24564450.1704
        -0.000          -0.000
   8283202.316 9   6447276.27745  24562619.532    24562619.3434   24562626.5614
        -0.000          -0.000
  -5117139.506 9  -3969053.21149  20542265.461    20542264.7764   20542270.2454
        -0.000          -0.000
   -814649.912 9   -625518.15945  23939575.006    23939574.2384   23939580.8124
        -0.000          -0.000
 97  3  3 21 23  0.0010000  0  7 26  2 27  4 19  7 15                0.001000074
  -4155629.056 9  -3225961.31147  23082276.976    23082277.0724   23082282.9914
        -0.000          -0.000
  -1453136.874 9  -1129257.70049  21509436.544    21509435.9374   21509441.3274
        -0.000          -0.000
   3471129.862 9   2705545.07948  21445492.257    21445491.9854   21445497.2794
        -0.000          -0.000
  -3674206.814 8  -2316752.34445  24544847.023    24544847.1674   24544854.4564
        -0.000          -0.000
   8384570.570 9   6526264.50945  24581909.269    24581909.0484   24581916.3184
        -0.000          -0.000
  -5127081.526 9  -3976800.22049  20540373.542    20540372.8564   20540378.3294
        -0.000          -0.000
   -779577.095 9   -598188.68745  23946249.120    23946248.2484   23946254.9334
        -0.000          -0.000
 97  3  3 21 23 30.0010000  0  7 26  2 27  4 19  7 15                0.001000091
  -4153087.416 9  -3223980.79147  23082760.684    23082760.7374   23082766.5844
        -0.000          -0.000
  -1446820.783 9  -1124336.07049  21510638.408    21510637.7954   21510643.2114
        -0.000          -0.000
   3541206.406 9   2760150.16948  21458827.436    21458827.1534   21458832.4354
        -0.000          -0.000
  -3777240.438 9  -2397038.20645  24525240.245    24525240.4594   24525247.4814
        -0.000          -0.000
   8486076.279 8   6605359.81345  24601225.077    24601224.8864   24601232.3384
        -0.000          -0.000
  -5136620.577 9  -3984233.22949  20538558.329    20538557.6624   20538563.1194
        -0.000          -0.000
   -743983.351 9   -570453.29545  23953022.361    23953021.4084   23953028.0494
        -0.000          -0.000
 97  3  3 21 24  0.0010000  0  7 26  2 27  4 19  7 15                0.001000090
  -4150046.394 9  -3221611.15747  23083339.365    23083339.3974   23083345.2604
        -0.000          -0.000
  -1440363.531 9  -1119304.43849  21511867.174    21511866.5754   21511871.9644
        -0.000          -0.000
   3611701.669 9   2815081.54048  21472242.294    21472241.9964   21472247.2674
        -0.000          -0.000
  -3880357.203 8  -2477388.84245  24505617.711    24505618.0244   24505624.7934
        -0.000          -0.000
   8587703.746 8   6684550.01845  24620564.187    24620563.8884   24620571.2014
        -0.000          -0.000
  -5145753.728 9  -3991349.94649  20536820.355    20536819.6864   20536825.1594
        -0.000          -0.000
   -707865.857 9   -542309.76845  23959895.191    23959894.4104   23959901.0414
        -0.000          -0.000
 97  3  3 21 24 30.0010000  0  7 26  2 27  4 19  7 15                0.001000071
  -4146509.615 9  -3218855.22947  23084012.244    23084012.3514   23084018.3024
        -0.000          -0.000
  -1433760.427 9  -1114159.15549  21513123.679    21513123.0954   21513128.4404
        -0.000          -0.000
   3682636.159 9   2870355.16048  21485740.673    21485740.3424   21485745.6594
        -0.000          -0.000
  -3983548.289 9  -2557797.41145  24485981.039    24485981.4784   24485987.9604
        -0.000          -0.000
   8689447.928 8   6763831.15245  24639925.396    24639925.0554   24639932.4014
        -0.000          -0.000
  -5154463.147 9  -3998136.48249  20535162.974    20535162.3034   20535167.8164
        -0.000          -0.000
   -671208.452 9   -513745.53545  23966871.005    23966870.1704   23966876.7364
        -0.000          -0.000
 97  3  3 21 25  0.0010000  0  7 26  2 27  4 19  7 15                0.001000050
  -4142464.052 9  -3215702.82847  23084782.061    23084782.1584   23084788.1254
        -0.000          -0.000
  -1427020.092 9  -1108906.93849  21514406.343    21514405.7474   21514411.0884
        -0.000          -0.000
   3754005.513 9   2925967.63548  21499321.746    21499321.4404   21499326.8024
        -0.000          -0.000
  -4086785.282 8  -2638241.76145  24466335.649    24466336.1284   24466342.6324
        -0.000          -0.000
   8791316.263 8   6843209.00745  24659310.184    24659310.1154   24659317.2584
        -0.000          -0.000
  -5162737.697 9  -4004584.15949  20533588.357    20533587.6934   20533593.1834
        -0.000          -0.000
   -633993.691 9   -484747.00345  23973952.967    23973952.1194   23973958.5554
        -0.000          -0.000
 97  3  3 21 25 30.0010000  0  7 26  2 27  4 19  7 15                0.001000022
  -4137923.205 9  -3212164.49047  23085646.162    23085646.2794   23085652.2764
        -0.000          -0.000
  -1420151.974 9  -1103555.15449  21515713.321    21515712.7024   21515718.0754
        -0.000          -0.000
   3825797.448 9   2981909.39748  21512983.337    21512983.0124   21512988.3794
        -0.000          -0.000
  -4190069.672 8  -2718723.03445  24446681.158    24446681.6054   24446688.2644
        -0.000          -0.000
   8893296.973 8   6922674.45245  24678716.512    24678716.4204   24678723.7004
        -0.000          -0.000
  -5170589.207 9  -4010702.20049  20532094.244    20532093.5684   20532099.0464
        -0.000          -0.000
   -596227.633 9   -455318.88945  23981139.604    23981138.7734   23981145.0964
        -0.000          -0.000
 97  3  3 21 26  0.0010000  0  7 26  2 27  4 19  7 15                0.001000000
  -4132859.607 9  -3208218.82247  23086609.769    23086609.8734   23086615.8674
        -0.000          -0.000
  -1413138.414 9  -1098090.03649  21517047.895    21517047.3184   21517052.6884
        -0.000          -0.000
   3898041.436 9   3038203.40848  21526730.976    21526730.6544   21526735.9414
        -0.000          -0.000
  -4293371.835 8  -2799218.15345  24427023.293    24427023.8334   24427030.4424
        -0.000          -0.000
   8995421.538 8   7002251.97345  24698150.400    24698150.2864   24698157.5294
        -0.000          -0.000
  -5177966.371 9  -4016450.61749  20530690.371    20530689.7194   20530695.1894
        -0.000          -0.000
   -557886.328 9   -425442.55145  23988435.682    23988434.9514   23988441.0334
        -0.000          -0.000
 97  3  3 21 26 30.0010000  0  7 26  2 27  4 19  7 15                0.000999980
  -4127298.808 9  -3203885.73147  23087667.991    23087668.0904   23087674.0704
        -0.000          -0.000
  -1406019.668 9  -1092542.95749  21518402.583    21518401.9904   21518407.3384
        -0.000          -0.000
   3970705.029 9   3094824.38748  21540558.414    21540558.0924   21540563.3244
        -0.000          -0.000
  -4396687.348 8  -2879723.65245  24407363.022    24407363.3654   24407370.3654
        -0.000          -0.000
   9097685.461 8   7081938.08045  24717610.741    24717610.5044   24717617.9564
        -0.000          -0.000
  -5184887.837 9  -4021843.94649  20529373.220    20529372.5614   20529378.0474
        -0.000          -0.000
   -518993.839 9   -395136.71945  23995836.593    23995835.8384   23995842.0304
        -0.000          -0.000
 97  3  3 21 27  0.0010000  0  7 26  2 27  4 19  7 15                0.000999969
  -4121228.135 9  -3199155.33747  23088823.290    23088823.3604   23088829.2514
        -0.000          -0.000
  -1398779.397 9  -1086901.17748  21519780.314    21519779.7374   21519785.0804
        -0.000          -0.000
   4043774.386 9   3151761.53948  21554463.014    21554462.6664   21554467.9584
        -0.000          -0.000
  -4500012.300 8  -2960236.49645  24387700.871    24387701.1564   24387708.2334
        -0.000          -0.000
   9200109.575 8   7161749.02045  24737101.400    24737101.2514   24737108.4264
        -0.000          -0.000
  -5191343.013 9  -4026873.93349  20528144.797    20528144.1224   20528149.5974
        -0.000          -0.000
   -479549.636 9   -364400.96545  24003342.501    24003341.7224   24003347.9654
        -0.000          -0.000
 97  3  3 21 27 30.0010000  0  7 26  2 27  4 19  7 15                0.000999976
  -4114627.433 9  -3194011.92747  23090079.456    23090079.5104   23090085.2834
        -0.000          -0.000
  -1391392.084 9  -1081144.81948  21521186.039    21521185.4934   21521190.8284
        -0.000          -0.000
   4117270.689 9   3209031.37448  21568448.800    21568448.5044   21568453.9114
        -0.000          -0.000
  -4603337.157 8  -3040749.23445  24368038.872    24368038.9774   24368045.9984
        -0.000          -0.000
   9302715.931 8   7241701.96545  24756626.687    24756626.5844   24756633.8614
        -0.000          -0.000
  -5197313.866 9  -4031526.52249  20527008.574    20527007.8984   20527013.3534
        -0.000          -0.000
   -439546.451 9   -333229.66645  24010954.912    24010954.2624   24010960.2954
        -0.000          -0.000
 97  3  3 21 28  0.0010000  0  7 26  2 27  4 19  7 15                0.000999987
  -4107520.720 9  -3188474.20947  23091431.912    23091431.9444   23091437.6004
        -0.000          -0.000
  -1383878.722 9  -1075290.24948  21522615.804    21522615.2034   21522620.5704
        -0.000          -0.000
   4191174.109 9   3266618.44548  21582512.169    21582511.8784   21582517.3014
        -0.000          -0.000
  -4706679.794 8  -3121275.89045  24348373.396    24348373.5524   24348380.4874
        -0.000          -0.000
   9405480.260 9   7321778.02045  24776182.093    24776181.9864   24776189.3434
        -0.000          -0.000
  -5202832.412 9  -4035826.66749  20525958.377    20525957.7054   20525963.1954
        -0.000          -0.000
   -399007.501 9   -301640.85145  24018669.276    24018668.5924   24018674.6624
        -0.000          -0.000
 97  3  3 21 28 30.0010000  0  7 26  2 27  4 19  7 15                0.000999997
  -4099926.214 9  -3182556.41947  23092876.943    23092877.0344   23092882.6694
        -0.000          -0.000
  -1376239.771 9  -1069337.81648  21524069.516    21524068.8774   21524074.2724
        -0.000          -0.000
   4265484.765 9   3324522.84248  21596653.129    21596652.8184   21596658.1784
        -0.000          -0.000
  -4810037.304 8  -3201814.10645  24328705.082    24328705.1584   24328712.2354
        -0.000          -0.000
   9508391.953 9   7401968.90245  24795765.632    24795765.3394   24795772.6944
        -0.000          -0.000
  -5207937.245 9  -4039804.44249  20524986.955    20524986.3084   20524991.7774
        -0.000          -0.000
   -357939.741 9   -269639.98545  24026484.247    24026483.7624   24026489.6164
        -0.000          -0.000
 97  3  3 21 29  0.0010000  0  7 26  2 27  4 19  7 15                0.001000005
  -4091837.027 9  -3176253.14047  23094416.262    23094416.3584   23094421.9574
        -0.000          -0.000
  -1368464.894 9  -1063279.46848  21525549.059    21525548.4134   21525553.8274
        -0.000          -0.000
   4340219.422 9   3382757.62648  21610874.706    21610874.3634   21610879.7304
        -0.000          -0.000
  -4913422.053 8  -3282373.56145  24309031.690    24309031.7784   24309038.8144
        -0.000          -0.000
   9611452.378 9   7482275.68645  24815377.518    24815377.0824   24815384.5204
        -0.000          -0.000
  -5212617.624 9  -4043451.47249  20524096.356    20524095.6744   20524101.1494
        -0.000          -0.000
   -316337.198 9   -237222.37545  24034401.002    24034400.3604   24034406.1704
        -0.000          -0.000
 97  3  3 21 29 30.0010000  0  7 26  2 27  4 19  7 15                0.001000013
  -4083250.879 9  -3169562.64047  23096050.191    23096050.2774   23096055.8844
        -0.000          -0.000
  -1360557.036 9  -1057117.49648  21527053.865    21527053.2214   21527058.6254
        -0.000          -0.000
   4415402.059 9   3441341.49248  21625181.397    21625181.1194   21625186.5004
        -0.000          -0.000
  -5016815.724 8  -3362939.96145  24289356.487    24289356.5384   24289363.6144
        -0.000          -0.000
   9714660.889 9   7562697.86245  24835017.495    24835017.1464   24835024.5814
        -0.000          -0.000
  -5216869.236 9  -4046764.40049  20523287.257    20523286.5944   20523292.0724
        -0.000          -0.000
   -274190.132 9   -204380.48245  24042421.337    24042420.7894   24042426.4264
        -0.000          -0.000
 97  3  3 21 30  0.0010000  0  7 26  2 27  4 19  7 15                0.001000001
  -4074202.816 9  -3162512.19547  23097771.980    23097772.0354   23097777.6884
        -0.000          -0.000
  -1352524.202 9  -1050858.14349  21528582.430    21528581.8034   21528587.2174
        -0.000          -0.000
   4491023.315 9   3500267.13248  21639571.635    21639571.3674   21639576.7264
        -0.000          -0.000
  -5120226.732 8  -3443519.85645  24269677.891    24269678.0114   24269684.8964
        -0.000          -0.000
   9817993.111 9   7643216.42745  24854681.029    24854680.6334   24854688.1614
        -0.000          -0.000
  -5220695.724 9  -4049746.06449  20522559.031    20522558.4084   20522563.8464
        -0.000          -0.000
   -231509.364 9   -171122.70745  24050543.285    24050542.6574   24050548.2854
        -0.000          -0.000
 97  3  3 21 30 30.0010000  0  6 26  2 27  4  7 15                   0.000999995
  -4064686.145 9  -3155096.62747  23099582.910    23099582.9924   23099588.6684
        -0.000          -0.000
  -1344356.844 9  -1044493.96149  21530136.666    21530136.0274   21530141.4264
        -0.000          -0.000
   4567089.268 9   3559539.29448  21654046.543    21654046.2164   21654051.5744
        -0.000          -0.000
  -5223650.637 8  -3524109.81445  24249996.794    24249996.9874   24250003.7434
        -0.000          -0.000
  -5224073.310 9  -4052377.93649  20521916.331    20521915.6734   20521921.1084
        -0.000          -0.000
   -188292.788 9   -137447.45945  24058767.117    24058766.5534   24058772.2874
        -0.000          -0.000
 97  3  3 21 31  0.0010000  0  6 26  2 27  4  7 15                   0.000999973
  -4054646.186 9  -3147273.26447  23101493.400    23101493.4594   23101499.1534
        -0.000          -0.000
  -1336013.501 9  -1037992.65049  21531724.326    21531723.6984   21531729.1114
        -0.000          -0.000
   4643625.558 9   3619177.95048  21668610.946    21668610.6334   21668616.0274
        -0.000          -0.000
  -5327044.433 8  -3604676.30945  24230321.559    24230321.6384   24230328.3934
        -0.000          -0.000
  -5226938.114 9  -4054610.24049  20521371.165    20521370.5214   20521375.9524
        -0.000          -0.000
   -144501.946 9   -103324.68245  24067100.262    24067099.4334   24067105.4754
        -0.000          -0.000
 97  3  3 21 31 30.0010000  0  6 26  2 27  4  7 15                   0.000999960
  -4044086.814 9  -3139045.17947  23103502.759    23103502.8584   23103508.5024
        -0.000          -0.000
  -1327491.919 9  -1031352.45349  21533345.845    21533345.2554   21533350.6694
        -0.000          -0.000
   4720616.307 9   3679170.72848  21683261.809    21683261.5004   21683266.9144
        -0.000          -0.000
  -5430399.809 8  -3685212.85745  24210653.630    24210653.7934   24210660.6004
        -0.000          -0.000
  -5229306.151 9  -4056455.44849  20520920.496    20520919.8534   20520925.3334
        -0.000          -0.000
   -100145.711 9    -68761.38845  24075540.821    24075540.1214   24075546.1514
        -0.000          -0.000
 97  3  3 21 32  0.0010000  0  6 26  2 27  4  7 15                   0.000999960
  -4032997.947 9  -3130404.50847  23105612.962    23105613.0574   23105618.6324
        -0.000          -0.000
  -1318778.996 9  -1024563.16149  21535003.867    21535003.2774   21535008.6704
        -0.000          -0.000
   4798044.615 9   3739504.45148  21697995.968    21697995.6404   21698001.0864
        -0.000          -0.000
  -5533713.613 8  -3765717.04145  24190993.600    24190993.7344   24191000.6114
        -0.000          -0.000
  -5231171.123 9  -4057908.66749  20520565.611    20520564.9584   20520570.4294
        -0.000          -0.000
    -55224.075 9    -33757.50345  24084089.156    24084088.4924   24084094.2734
        -0.000          -0.000
 97  3  3 21 32 30.0010000  0  6 26  2 27  4  7 15                   0.000999976
  -4021372.270 9  -3121345.54747  23107825.263    23107825.3564   23107830.8584
        -0.000          -0.000
  -1309888.666 9  -1017635.62549  21536695.680    21536695.0864   21536700.4684
        -0.000          -0.000
   4875873.062 9   3800149.98448  21712806.189    21712805.8574   21712811.3184
        -0.000          -0.000
  -5636993.647 9  -3846194.88045  24171340.001    24171340.0904   24171347.0734
        -0.000          -0.000
  -5232564.367 9  -4058994.29449  20520300.488    20520299.8324   20520305.2934
        -0.000          -0.000
     -9757.428 9      1671.06245  24092741.228    24092740.6034   24092746.4474
        -0.000          -0.000
 97  3  3 21 33  0.0010000  0  6 26  2 27  4  7 15                   0.000999999
  -4009229.122 9  -3111883.34847  23110136.051    23110136.1454   23110141.6434
        -0.000          -0.000
  -1300850.648 9  -1010593.01149  21538415.509    21538414.9464   21538420.3074
        -0.000          -0.000
   4954060.619 9   3861075.34648  21727684.760    21727684.4274   21727689.8204
        -0.000          -0.000
  -5740267.635 9  -3926668.03245  24151687.555    24151687.6754   24151694.5554
        -0.000          -0.000
  -5233530.047 9  -4059746.76049  20520116.736    20520116.0794   20520121.5384
        -0.000          -0.000
     36226.535 9     37502.73645  24101491.615    24101490.9554   24101496.8614
        -0.000          -0.000
 97  3  3 21 33 30.0010000  0  6 26  2 27  4  7 15                   0.001000018
  -3996583.615 9  -3102029.70947  23112542.432    23112542.5394   23112548.0804
        -0.000          -0.000
  -1291672.564 9  -1003441.25549  21540162.048    21540161.4864   21540166.8684
        -0.000          -0.000
   5032608.303 9   3922281.32248  21742631.913    21742631.5894   21742636.9324
        -0.000          -0.000
  -5843554.962 9  -4007151.55245  24132032.457    24132032.6614   24132039.5564
        -0.000          -0.000
  -5234090.501 9  -4060183.46449  20520010.050    20520009.3834   20520014.8504
        -0.000          -0.000
     82718.443 9     73730.18945  24110338.829    24110338.1004   24110344.0734
        -0.000          -0.000
 97  3  3 21 34  0.0010000  0  6 26  2 27  4  7 15                   0.001000044
  -3983422.067 9  -3091773.93847  23115047.032    23115047.0964   23115052.6574
        -0.000          -0.000
  -1282339.976 9   -996169.10149  21541937.966    21541937.3974   21541942.7924
        -0.000          -0.000
   5111537.114 9   3983784.28048  21757651.617    21757651.3114   21757656.6554
        -0.000          -0.000
  -5946832.237 9  -4087627.27445  24112379.434    24112379.6574   24112386.2844
        -0.000          -0.000
  -5234225.666 9  -4060288.76849  20519984.305    20519983.6514   20519989.1434
        -0.000          -0.000
    129737.781 9    110368.63645  24119286.291    24119285.4064   24119291.6894
        -0.000          -0.000
 97  3  3 21 34 30.0010000  0  6 26  2 27  4  7 15                   0.001000074
  -3969755.274 9  -3081124.48747  23117647.642    23117647.7364   23117653.4194
        -0.000          -0.000
  -1272877.135 9   -988795.45349  21543738.688    21543738.1104   21543743.5084
        -0.000          -0.000
   5190854.196 9   4045589.78248  21772745.168    21772744.8134   21772750.2214
        -0.000          -0.000
  -6050113.788 9  -4168106.31045  24092725.554    24092725.7134   24092732.3994
        -0.000          -0.000
  -5233962.299 9  -4060083.53049  20520034.396    20520033.7364   20520039.2344
        -0.000          -0.000
    177274.356 9    147410.11145  24128332.160    24128331.3744   24128337.6534
        -0.000          -0.000
 97  3  3 21 35  0.0010000  0  6 26  2 27  4  7 15                   0.001000090
  -3955614.201 9  -3070105.46547  23120338.553    23120338.6334   23120344.4384
        -0.000          -0.000
  -1263300.408 9   -981333.06948  21545561.105    21545560.5094   21545565.8704
        -0.000          -0.000
   5270565.988 9   4107702.84648  21787913.741    21787913.4114   21787918.8634
        -0.000          -0.000
  -6153415.288 9  -4248600.91146  24073067.903    24073067.9924   24073074.7314
        -0.000          -0.000
  -5233308.876 9  -4059574.35149  20520158.681    20520158.0304   20520163.5604
        -0.000          -0.000
    225317.546 9    184846.33845  24137474.672    24137473.6844   24137480.0064
        -0.000          -0.000
 97  3  3 21 35 30.0010000  0  6 26  2 27  4  7 15                   0.001000089
  -3941010.926 9  -3058726.28547  23123117.558    23123117.6284   23123123.3814
        -0.000          -0.000
  -1253604.253 9   -973777.61748  21547406.232    21547405.6114   21547410.9974
        -0.000          -0.000
   5350682.349 9   4170131.16048  21803159.429    21803159.1174   21803164.4944
        -0.000          -0.000
  -6256723.070 9  -4329100.38546  24053408.919    24053409.0224   24053415.8924
        -0.000          -0.000
  -5232257.186 9  -4058754.83449  20520358.812    20520358.1624   20520363.7064
        -0.000          -0.000
    273867.626 9    222677.57745  24146713.208    24146712.4484   24146718.8024
        -0.000          -0.000
 97  3  3 21 36  0.0010000  0  6 26  2 27  4  7 15                   0.001000081
  -3925944.328 9  -3046986.08647  23125984.706    23125984.7634   23125990.4714
        -0.000          -0.000
  -1243789.910 9   -966130.07648  21549273.824    21549273.2094   21549278.5794
        -0.000          -0.000
   5431205.930 9   4232876.79248  21818482.649    21818482.3194   21818487.6644
        -0.000          -0.000
  -6360003.933 9  -4409578.89546  24033755.183    24033755.2874   24033762.1764
        -0.000          -0.000
  -5230803.239 9  -4057621.87349  20520635.472    20520634.8204   20520640.3684
        -0.000          -0.000
    322927.581 9    260906.08945  24156049.141    24156048.3554   24156054.5894
        -0.000          -0.000
 97  3  3 21 36 30.0010000  0  6 26  2 27  4  7 15                   0.001000082
  -3910388.068 9  -3034864.32347  23128945.043    23128945.0944   23128950.7174
        -0.000          -0.000
  -1233826.462 9   -958366.34548  21551169.820    21551169.1864   21551174.5654
        -0.000          -0.000
   5512170.530 9   4295966.07048  21833889.706    21833889.3734   21833894.7574
        -0.000          -0.000
  -6463229.927 9  -4490014.63446  24014111.865    24014111.9564   24014118.7224
        -0.000          -0.000
  -5228927.297 9  -4056160.08449  20520992.450    20520991.7934   20520997.3404
        -0.000          -0.000
    372516.010 9    299546.41745  24165485.760    24165484.8834   24165491.0464
        -0.000          -0.000
 97  3  3 21 37  0.0010000  0  6 26  2 27  4  7 15                   0.001000076
  -3894368.491 9  -3022381.53547  23131993.435    23131993.5044   23131999.1614
        -0.000          -0.000
  -1223718.162 9   -950489.74148  21553093.369    21553092.7344   21553098.0744
        -0.000          -0.000
   5593550.475 9   4359378.99847  21849375.819    21849375.4924   21849380.9044
        -0.000          -0.000
  -6566402.911 9  -4570409.10146  23994478.699    23994478.7984   23994485.4604
        -0.000          -0.000
  -5226632.531 9  -4054371.93949  20521429.111    20521428.4614   20521433.9974
        -0.000          -0.000
    422615.108 8    338584.68345  24175019.204    24175018.4234   24175024.7744
        -0.000          -0.000
 97  3  3 21 37 30.0010000  0  6 26  2 27  4  7 15                   0.001000055
  -3877906.019 9  -3009553.64247  23135126.043    23135126.1164   23135131.9374
        -0.000          -0.000
  -1213499.060 9   -942526.79948  21555038.047    21555037.3984   21555042.7224
        -0.000          -0.000
   5675312.302 9   4423089.49947  21864934.506    21864934.1914   21864939.6424
        -0.000          -0.000
  -6669536.611 9  -4650772.91846  23974852.940    23974852.9754   23974859.6264
        -0.000          -0.000
  -5223945.763 9  -4052278.34149  20521940.329    20521939.6774   20521945.1704
        -0.000          -0.000
    473201.991 8    378003.02445  24184645.574    24184644.6494   24184651.0274
        -0.000          -0.000
 97  3  3 21 38  0.0010000  0  6 26  2 27  4  7 15                   0.001000056
  -3860941.634 9  -2996334.62947  23138354.277    23138354.3604   23138360.2584
        -0.000          -0.000
  -1203125.056 9   -934443.15249  21557012.167    21557011.5024   21557016.8394
        -0.000          -0.000
   5757509.872 9   4487139.53147  21880576.179    21880575.9124   21880581.3744
        -0.000          -0.000
  -6772586.236 9  -4731071.25745  23955243.097    23955243.2404   23955249.8374
        -0.000          -0.000
  -5220825.406 9  -4049846.88149  20522534.077    20522533.4264   20522538.9104
        -0.000          -0.000
    524326.882 8    417840.60045  24194374.249    24194373.4644   24194379.8704
        -0.000          -0.000
 97  3  3 21 38 30.0010000  0  6 26  2 27  4  7 15                   0.001000060
  -3843496.390 9  -2982740.93447  23141674.007    23141674.0524   23141680.0484
        -0.000          -0.000
  -1192620.869 9   -926258.06949  21559011.001    21559010.3484   21559015.7294
        -0.000          -0.000
   5840108.975 9   4551502.45447  21896294.338    21896294.0614   21896299.4924
        -0.000          -0.000
  -6875595.588 9  -4811338.22845  23935641.021    23935641.0804   23935647.8604
        -0.000          -0.000
  -5217294.490 9  -4047095.50549  20523205.956    20523205.3314   20523210.8084
        -0.000          -0.000
    575967.029 8    458079.66445  24204200.890    24204199.9614   24204206.5584
        -0.000          -0.000
 97  3  3 21 39  0.0010000  0  6 26  2 27  4  7 15                   0.001000059
  -3825583.407 9  -2968782.78147  23145082.692    23145082.7234   23145088.7644
        -0.000          -0.000
  -1182009.549 9   -917989.50049  21561030.316    21561029.6204   21561035.0094
        -0.000          -0.000
   5923075.785 9   4616151.89947  21912082.398    21912082.1314   21912087.5234
        -0.000          -0.000
  -6978582.698 9  -4891587.86345  23916043.203    23916043.3584   23916049.9684
        -0.000          -0.000
  -5213356.731 9  -4044027.11149  20523955.312    20523954.6624   20523960.1524
        -0.000          -0.000
    628114.245 8    498713.83445  24214124.030    24214123.4414   24214129.7104
        -0.000          -0.000
 97  3  3 21 39 30.0010000  0  6 26  2 27  4  7 15                   0.001000059
  -3807189.878 9  -2954450.17547  23148582.832    23148582.8804   23148588.9894
        -0.000          -0.000
  -1171278.522 9   -909627.65448  21563072.288    21563071.6564   21563077.0314
        -0.000          -0.000
   6006418.074 9   4681093.92947  21927941.914    21927941.6524   21927947.0394
        -0.000          -0.000
  -7081542.557 9  -4971816.22745  23896450.633    23896450.8314   23896457.3124
        -0.000          -0.000
  -5209008.899 9  -4040639.18049  20524782.673    20524782.0194   20524787.5144
        -0.000          -0.000
    680772.353 8    539746.11845  24224144.506    24224144.1234   24224150.1484
        -0.000          -0.000
 97  3  3 21 40  0.0010000  0  6 26  2 27  4  7 15                   0.001000058
  -3788305.965 9  -2939735.44747  23152176.238    23152176.3324   23152182.3264
        -0.000          -0.000
  -1160405.041 9   -901154.80948  21565141.407    21565140.7744   21565146.2054
        -0.000          -0.000
   6090139.412 9   4746331.31047  21943873.550    21943873.2734   21943878.6684
        -0.000          -0.000
  -7184467.387 9  -5052017.28345  23876864.540    23876864.7724   23876871.2714
        -0.000          -0.000
  -5204233.161 9  -4036917.81749  20525691.447    20525690.8104   20525696.2824
        -0.000          -0.000
    733942.333 8    581177.24445  24234262.447    24234262.0204   24234268.1764
        -0.000          -0.000
 97  3  3 21 40 30.0010000  0  6 26  2 27  4  7 15                   0.001000058
  -3768928.325 9  -2924635.99347  23155863.645    23155863.7694   23155869.6194
        -0.000          -0.000
  -1149356.370 9   -892545.45048  21567243.874    21567243.2584   21567248.6714
        -0.000          -0.000
   6174241.365 9   4811865.28147  21959877.591    21959877.3044   21959882.7354
        -0.000          -0.000
  -7287330.243 9  -5132170.05245  23857290.346    23857290.5424   23857297.0094
        -0.000          -0.000
  -5198996.998 9  -4032837.68149  20526687.927    20526687.2804   20526692.7344
        -0.000          -0.000
    787638.346 8    623018.27745  24244480.511    24244480.0074   24244486.1354
        -0.000          -0.000
 97  3  3 21 41  0.0010000  0  6 26  2 27  4  7 15                   0.001000059
  -3749066.551 9  -2909159.29447  23159643.225    23159643.3234   23159649.1054
        -0.000          -0.000
  -1138117.802 9   -883788.11648  21569382.512    21569381.8784   21569387.2984
        -0.000          -0.000
   6258739.587 9   4877708.03547  21975957.088    21975956.8114   21975962.1974
        -0.000          -0.000
  -7390114.023 9  -5212261.20245  23837731.131    23837731.4034   23837737.8234
        -0.000          -0.000
  -5193302.713 9  -4028400.56449  20527771.541    20527770.8904   20527776.3364
        -0.000          -0.000
    841861.064 8    665269.74545  24254798.759    24254798.1924   24254804.5524
        -0.000          -0.000
 97  3  3 21 41 30.0010000  0  6 26  2 27  4  7 15                   0.001000058
  -3728727.229 9  -2893310.49047  23163513.628    23163513.7934   23163519.4504
        -0.000          -0.000
  -1126684.427 9   -874878.99048  21571558.243    21571557.6114   21571562.9854
        -0.000          -0.000
   6343642.056 9   4943865.78247  21992113.515    21992113.2074   21992118.5814
        -0.000          -0.000
  -7492806.431 9  -5292281.17846  23818189.404    23818189.5514   23818196.0534
        -0.000          -0.000
  -5187160.767 9  -4023614.62049  20528940.312    20528939.6614   20528945.0924
        -0.000          -0.000
    896602.019 8    707925.02045  24265215.712    24265214.8624   24265221.4774
        -0.000          -0.000
 97  3  3 21 42  0.0010000  0  6 26  2 27  4  7 15                   0.001000059
  -3707916.545 9  -2877094.37447  23167473.924    23167474.0414   23167479.5994
        -0.000          -0.000
  -1115066.390 9   -865825.97148  21573769.078    21573768.4714   21573773.7904
        -0.000          -0.000
   6428945.191 9   5010335.74147  22008346.201    22008345.9194   22008351.2524
        -0.000          -0.000
  -7595407.863 9  -5372230.27246  23798664.978    23798665.0874   23798671.6104
        -0.000          -0.000
  -5180587.404 9  -4018492.50249  20530191.185    20530190.5054   20530195.9344
        -0.000          -0.000
    951856.936 8    750980.78245  24275730.295    24275729.6414   24275736.2154
        -0.000          -0.000
 97  3  3 21 42 30.0010000  0  6 26  2 27  4  7 15                   0.001000051
  -3686659.277 9  -2860530.26247  23171519.172    23171519.2804   23171524.7034
        -0.000          -0.000
  -1103290.695 9   -856650.10348  21576009.920    21576009.3004   21576014.5914
        -0.000          -0.000
   6514638.849 9   5077110.00347  22024653.156    22024652.8704   22024658.2164
        -0.000          -0.000
  -7697943.848 9  -5452128.35046  23779152.923    23779152.9564   23779159.6634
        -0.000          -0.000
  -5173633.089 9  -4013073.53949  20531514.514    20531513.8494   20531519.2514
        -0.000          -0.000
   1007603.409 8    794419.57145  24286338.527    24286337.9184   24286344.3554
        -0.000          -0.000
 97  3  3 21 43  0.0010000  0  6 26  2 27  4  7 15                   0.001000046
  -3664937.312 9  -2843604.05547  23175652.791    23175652.8694   23175658.3294
        -0.000          -0.000
  -1091370.642 9   -847361.75248  21578278.223    21578277.5894   21578282.9404
        -0.000          -0.000
   6600732.958 9   5144196.30047  22041036.325    22041036.0384   22041041.4074
        -0.000          -0.000
  -7800416.747 9  -5531977.27646  23759652.870    23759652.9254   23759659.5454
        -0.000          -0.000
  -5166309.291 9  -4007366.66749  20532908.158    20532907.4944   20532912.8804
        -0.000          -0.000
   1063843.283 8    838242.85045  24297040.513    24297039.8094   24297046.4514
        -0.000          -0.000
 97  3  3 21 43 30.0010000  0  6 26  2 27  4  7 15                   0.001000048
  -3642738.430 9  -2826306.21647  23179877.000    23179877.1054   23179882.5724
        -0.000          -0.000
  -1079309.978 9   -837963.82848  21580573.248    21580572.6014   21580578.0344
        -0.000          -0.000
   6687214.690 9   5211584.64847  22057493.307    22057492.9954   22057498.3434
        -0.000          -0.000
  -7902827.741 9  -5611777.96246  23740164.552    23740164.6664   23740171.1594
        -0.000          -0.000
  -5158602.299 9  -4001361.20349  20534374.764    20534374.0994   20534379.4804
        -0.000          -0.000
   1120579.447 8    882452.83345  24307837.243    24307836.5954   24307843.0774
        -0.000          -0.000
 97  3  3 21 44  0.0010000  0  6 26  2 27  4  7 15                   0.001000034
  -3620092.212 9  -2808659.81547  23184186.399    23184186.4924   23184192.0284
        -0.000          -0.000
  -1067146.148 9   -828485.51948  21582887.925    21582887.2884   21582892.7484
        -0.000          -0.000
   6774047.704 9   5279246.71947  22074017.204    22074016.8564   22074022.1444
        -0.000          -0.000
  -8005217.707 9  -5691562.27546  23720680.453    23720680.5654   23720686.8314
        -0.000          -0.000
  -5150533.064 9  -3995073.47549  20535910.325    20535909.6554   20535914.9904
        -0.000          -0.000
   1177781.774 8    927026.06645  24318722.603    24318721.9094   24318728.3424
        -0.000          -0.000
 97  3  3 21 44 30.0010000  0  6 26  2 27  4  7 15                   0.001000017
  -3596974.512 9  -2790646.03247  23188585.575    23188585.6864   23188591.2024
        -0.000          -0.000
  -1054848.171 9   -818902.67748  21585228.148    21585227.5284   21585232.9984
        -0.000          -0.000
   6861249.809 9   5347196.39747  22090611.171    22090610.8784   22090616.1764
        -0.000          -0.000
  -8107550.616 9  -5771302.11046  23701207.137    23701207.2364   23701213.4834
        -0.000          -0.000
  -5142046.905 9  -3988460.87449  20537525.206    20537524.5384   20537529.8124
        -0.000          -0.000
   1235479.123 8    971985.02245  24329702.141    24329701.2094   24329707.4614
        -0.000          -0.000
 97  3  3 21 45  0.0010000  0  7 26  2 27  4  9  7 15                0.000999989
  -3573353.519 9  -2772240.07247  23193080.566    23193080.6644   23193086.2474
        -0.000          -0.000
  -1042382.754 9   -809189.36148  21587600.296    21587599.6564   21587605.0904
        -0.000          -0.000
   6948838.751 9   5415447.49947  22107278.754    22107278.4894   22107283.8904
        -0.000          -0.000
  -8209777.410 9  -5850959.28546  23681753.895    23681754.0534   23681760.3674
        -0.000          -0.000
  -6745276.84319  -5245000.47955  24927569.015    24927568.6835   24927574.4975
        -0.000          -0.000
  -5133083.611 9  -3981476.47349  20539230.882    20539230.2074   20539235.4554
        -0.000          -0.000
   1293706.301 8   1017356.82045  24340782.076    24340781.1184   24340787.7894
        -0.000          -0.000
 97  3  3 21 45 30.0010000  0  7 26  2 27  4  9  7 15                0.000999991
  -3549267.302 9  -2753471.57647  23197664.113    23197664.1614   23197669.7204
        -0.000          -0.000
  -1029763.888 9   -799356.47648  21590001.628    21590000.9834   21590006.3774
        -0.000          -0.000
   7036787.729 9   5483979.15347  22124014.887    22124014.6334   22124020.0674
        -0.000          -0.000
  -8311908.487 9  -5930541.85546  23662318.838    23662318.9984   23662325.5074
        -0.000          -0.000
  -6845166.032 9  -5322836.15145  24908560.869    24908560.5224   24908566.3594
        -0.000          -0.000
  -5123666.711 9  -3974138.62049  20541022.871    20541022.1664   20541027.4174
        -0.000          -0.000
   1352435.975 8   1063120.14945  24351957.567    24351956.6624   24351963.5724
        -0.000          -0.000
 97  3  3 21 46  0.0010000  0  7 26  2 27  4  9  7 15                0.001000005
  -3524715.067 9  -2734339.95847  23202336.286    23202336.2874   23202341.8744
        -0.000          -0.000
  -1016983.425 9   -789397.67548  21592433.669    21592433.0104   21592438.3874
        -0.000          -0.000
   7125110.690 9   5552802.21447  22140822.247    22140821.9784   22140827.4304
        -0.000          -0.000
  -8413925.195 9  -6010035.31146  23642905.640    23642905.7884   23642912.3724
        -0.000          -0.000
  -6944955.456 9  -5400594.09645  24889571.646    24889571.4284   24889577.0384
        -0.000          -0.000
  -5113809.043 9  -3966457.31049  20542898.660    20542897.9784   20542903.2514
        -0.000          -0.000
   1411667.690 8   1109274.68145  24363228.603    24363228.1584   24363235.2664
        -0.000          -0.000
 97  3  3 21 46 30.0010000  0  7 26  2 27  4  9  7 15                0.001000022
  -3499712.073 9  -2714857.10047  23207094.142    23207094.1734   23207099.7664
        -0.000          -0.000
  -1004048.772 9   -779318.72148  21594895.037    21594894.3964   21594899.7734
        -0.000          -0.000
   7213797.713 9   5621908.96347  22157698.892    22157698.6044   22157704.0064
        -0.000          -0.000
  -8515824.460 9  -6089437.25946  23623514.831    23623514.9114   23623521.4634
        -0.000          -0.000
  -7044682.499 9  -5478303.42745  24870594.268    24870594.0664   24870599.6794
        -0.000          -0.000
  -5103541.827 9  -3958456.87049  20544852.420    20544851.7354   20544857.0334
        -0.000          -0.000
   1471388.312 8   1155810.21845  24374593.059    24374592.6214   24374599.6884
        -0.000          -0.000
 97  3  3 21 47  0.0010000  0  7 26  2 27  4  9  7 15                0.001000048
  -3474251.204 9  -2695017.45947  23211939.213    23211939.2194   23211944.7154
        -0.000          -0.000
   -990948.640 9   -769110.82648  21597387.937    21597387.2804   21597392.6434
        -0.000          -0.000
   7302856.438 9   5691305.34047  22174646.207    22174645.9324   22174651.3984
        -0.000          -0.000
  -8617597.977 9  -6168741.20046  23604147.914    23604147.9784   23604154.5224
        -0.000          -0.000
  -7144346.886 8  -5555963.91745  24851628.466    24851628.3064   24851634.1354
        -0.000          -0.000
  -5092878.674 9  -3950147.91049  20546881.552    20546880.8814   20546886.1844
        -0.000          -0.000
   1531601.921 8   1202729.92245  24386051.594    24386051.0774   24386058.1644
        -0.000          -0.000
 97  3  3 21 47 30.0010000  0  7 26  2 27  4  9  7 15                0.001000066
  -3448353.964 9  -2674837.78047  23216867.276    23216867.3274   23216872.6534
        -0.000          -0.000
   -977693.010 9   -758781.75448  21599910.340    21599909.7044   21599915.0954
        -0.000          -0.000
   7392270.471 9   5760978.58847  22191661.057    22191660.7834   22191666.3944
        -0.000          -0.000
  -8719265.266 9  -6247962.39646  23584801.189    23584801.3414   23584807.7374
        -0.000          -0.000
  -7243982.526 8  -5633602.02645  24832668.134    24832667.9824   24832674.1404
        -0.000          -0.000
  -5081843.855 9  -3941549.33649  20548981.347    20548980.6774   20548985.9924
        -0.000          -0.000
   1592285.716 8   1250015.96645  24397599.880    24397599.1134   24397605.7984
        -0.000          -0.000
 97  3  3 21 48  0.0010000  0  7 26  2 27  4  9  7 15                0.001000077
  -3422010.281 9  -2654310.22947  23221880.367    23221880.3774   23221885.5844
        -0.000          -0.000
   -964266.170 9   -748319.27748  21602465.351    21602464.7354   21602470.1564
        -0.000          -0.000
   7482042.645 9   5830930.89747  22208744.127    22208743.8674   22208749.5424
        -0.000          -0.000
  -8820814.328 9  -6327091.46346  23565476.935    23565477.1394   23565483.4424
        -0.000          -0.000
  -7343586.653 8  -5711215.60045  24813713.754    24813713.7344   24813719.9474
        -0.000          -0.000
  -5070426.980 9  -3932653.05949  20551153.850    20551153.2034   20551158.5334
        -0.000          -0.000
   1653448.492 8   1297675.24945  24409238.677    24409238.0084   24409244.6644
        -0.000          -0.000
 97  3  3 21 48 30.0010000  0  7 26  2 27  4  9  7 15                0.001000087
  -3395209.182 9  -2633426.25947  23226980.382    23226980.4264   23226985.6634
        -0.000          -0.000
   -950642.457 9   -737703.39448  21605057.765    21605057.1504   21605062.6454
        -0.000          -0.000
   7572177.702 9   5901165.98047  22225896.332    22225896.0624   22225901.7304
        -0.000          -0.000
  -8922235.409 9  -6406120.80046  23546177.101    23546177.2814   23546183.5534
        -0.000          -0.000
  -7443133.055 8  -5788784.16045  24794770.577    24794770.5084   24794776.9574
        -0.000          -0.000
  -5058609.458 9  -3923444.59349  20553402.618    20553401.9664   20553407.3014
        -0.000          -0.000
   1715103.102 8   1345717.79845  24420970.928    24420970.3844   24420977.1034
        -0.000          -0.000
 97  3  3 21 49  0.0010000  0  7 26  2 27  4  9  7 15                0.001000088
  -3367962.333 9  -2612194.95447  23232165.261    23232165.3374   23232170.7144
        -0.000          -0.000
   -936822.341 9   -726934.47348  21607687.607    21607687.0294   21607692.5324
        -0.000          -0.000
   7662661.772 9   5971673.02147  22243114.982    22243114.6424   22243120.2744
        -0.000          -0.000
  -9023542.636 9  -6485061.41946  23526898.963    23526899.1264   23526905.2384
        -0.000          -0.000
  -7542621.166 8  -5866307.29345  24775838.675    24775838.6844   24775844.8824
        -0.000          -0.000
  -5046397.429 9  -3913928.72149  20555726.487    20555725.8374   20555731.1514
        -0.000          -0.000
   1777234.827 8   1394132.11945  24432794.304    24432794.0484   24432800.4814
        -0.000          -0.000
 97  3  3 21 49 30.0010000  0  7 26  2 27  4  9  7 15                0.001000077
  -3340270.505 9  -2590616.90447  23237434.772    23237434.8394   23237440.4424
        -0.000          -0.000
   -922820.116 9   -716023.64548  21610352.194    21610351.6254   21610357.0454
        -0.000          -0.000
   7753495.621 9   6042452.60647  22260400.047    22260399.7464   22260405.3544
        -0.000          -0.000
  -9124738.274 9  -6563915.09846  23507641.987    23507642.1784   23507648.1474
        -0.000          -0.000
  -7642056.486 9  -5943789.29845  24756916.990    24756917.0524   24756923.0434
        -0.000          -0.000
  -5033792.022 9  -3904106.31749  20558125.206    20558124.5564   20558129.8984
        -0.000          -0.000
   1839835.549 8   1442911.90045  24444706.953    24444706.7514   24444712.9324
        -0.000          -0.000
 97  3  3 21 50  0.0010000  0  7 26  2 27  4  9  7 15                0.001000059
  -3312133.359 9  -2568691.85647  23242789.021    23242789.1224   23242794.8504
        -0.000          -0.000
   -908650.015 9   -704982.00548  21613048.769    21613048.1684   21613053.5144
        -0.000          -0.000
   7844680.236 9   6113505.53347  22277751.874    22277751.5834   22277757.1514
        -0.000          -0.000
  -9225832.759 9  -6642689.96546  23488404.178    23488404.3664   23488410.4284
        -0.000          -0.000
  -7741424.342 9  -6021218.71945  24738008.200    24738008.2534   24738014.0264
        -0.000          -0.000
  -5020812.264 9  -3893992.21049  20560595.190    20560594.5474   20560599.8984
        -0.000          -0.000
   1902901.904 8   1492054.52545  24456708.254    24456707.9144   24456713.7604
        -0.000          -0.000
 97  3  3 21 50 30.0010000  0  7 26  2 27  4  9  7 15                0.001000043
  -3283532.717 9  -2546405.64847  23248231.557    23248231.6944   23248237.3694
        -0.000          -0.000
   -894313.199 9   -693810.45548  21615777.012    21615776.3694   21615781.6754
        -0.000          -0.000
   7936229.406 9   6184842.52547  22295173.108    22295172.8334   22295178.3954
        -0.000          -0.000
  -9326822.787 9  -6721383.40146  23469186.358    23469186.5604   23469192.6954
        -0.000          -0.000
  -7840700.130 8  -6098576.39545  24719116.755    24719116.7324   24719122.5124
        -0.000          -0.000
  -5007444.019 9  -3883575.38349  20563139.061    20563138.4154   20563143.7484
        -0.000          -0.000
   1966443.853 8   1541567.72845  24468800.036    24468799.5434   24468805.2404
        -0.000          -0.000
 97  3  3 21 51  0.0010000  0  7 26  2 27  4  9  7 15                0.001000033
  -3254472.506 9  -2523761.31947  23253761.671    23253761.7754   23253767.2074
        -0.000          -0.000
   -879834.270 9   -682528.16848  21618532.286    21618531.6524   21618536.9534
        -0.000          -0.000
   8028143.907 9   6256464.18547  22312663.912    22312663.6144   22312669.1974
        -0.000          -0.000
  -9427698.813 9  -6799987.99346  23449990.294    23449990.4104   23449996.7194
        -0.000          -0.000
  -7939880.365 8  -6175859.62445  24700243.345    24700243.0884   24700249.2284
        -0.000          -0.000
  -4993676.169 9  -3872847.17649  20565759.000    20565758.3324   20565763.6834
        -0.000          -0.000
   2030463.146 8   1591452.89845  24480982.382    24480982.1984   24480987.7654
        -0.000          -0.000
 97  3  3 21 51 30.0010000  0  7 26  2 27  4  9  7 15                0.001000016
  -3224981.552 9  -2500781.37647  23259373.538    23259373.6804   23259379.0624
        -0.000          -0.000
   -865249.380 9   -671163.31448  21621307.680    21621307.0314   21621312.3694
        -0.000          -0.000
   8120403.641 9   6328354.85847  22330220.423    22330220.1504   22330225.6664
        -0.000          -0.000
  -9528488.447 9  -6878525.28846  23430810.604    23430810.7774   23430816.9854
        -0.000          -0.000
  -8038984.902 8  -6253083.88045  24681384.035    24681383.7244   24681390.1714
        -0.000          -0.000
  -4979537.358 9  -3861829.91149  20568449.501    20568448.8694   20568454.2074
        -0.000          -0.000
   2094935.451 8   1641691.04945  24493251.012    24493250.7574   24493256.3124
        -0.000          -0.000
 97  3  3 21 52  0.0010000  0  7 26  2 27  4  9  7 15                0.001000014
  -3195037.288 9  -2477448.19747  23265071.731    23265071.9064   23265077.2924
        -0.000          -0.000
   -850516.865 9   -659683.42948  21624111.134    21624110.4904   21624115.9164
        -0.000          -0.000
   8213034.151 9   6400534.45747  22347847.535    22347847.2174   22347852.6674
        -0.000          -0.000
  -9629163.202 9  -6956973.09746  23411652.779    23411652.9704   23411659.1374
        -0.000          -0.000
  -8137969.463 9  -6330214.64345  24662547.519    24662547.2244   24662553.7434
        -0.000          -0.000
  -4965004.430 9  -3850505.54349  20571215.060    20571214.4054   20571219.7004
        -0.000          -0.000
   2159892.661 8   1692307.04845  24505611.876    24505611.7374   24505617.4214
        -0.000          -0.000
 97  3  3 21 52 30.0010000  0  7 26  2 27  4  9  7 15                0.001000013
  -3164660.497 9  -2453777.98247  23270852.213    23270852.3344   23270857.8264
        -0.000          -0.000
   -835641.091 9   -648091.91448  21626941.826    21626941.2104   21626946.6894
        -0.000          -0.000
   8306006.351 9   6472980.30547  22365539.533    22365539.2304   22365544.7144
        -0.000          -0.000
  -9729722.716 9  -7035331.09546  23392516.824    23392517.0284   23392523.0334
        -0.000          -0.000
  -8236854.724 9  -6407268.03145  24643730.218    24643730.0304   24643736.2754
        -0.000          -0.000
  -4950083.974 9  -3838879.20349  20574054.336    20574053.6694   20574058.9584
        -0.000          -0.000
   2225317.127 8   1743287.13145  24518061.955    24518061.1904   24518067.4804
        -0.000          -0.000
 97  3  3 21 53  0.0010000  0  7 26  2 27  4  9  7 15                0.001000013
  -3133864.766 9  -2429781.30147  23276712.479    23276712.5684   23276718.0934
        -0.000          -0.000
   -820615.841 9   -636383.92248  21629801.032    21629800.4114   21629805.8654
        -0.000          -0.000
   8399317.410 9   6545690.19047  22383295.915    22383295.6274   22383301.2354
        -0.000          -0.000
  -9830156.890 9  -7113591.41946  23373404.727    23373404.9484   23373410.8544
        -0.000          -0.000
  -8335649.991 9  -6484251.29645  24624930.315    24624930.0954   24624935.9984
        -0.000          -0.000
  -4934785.889 9  -3826958.60449  20576965.441    20576964.8144   20576970.0764
        -0.000          -0.000
   2291209.317 8   1794631.68445  24530600.850    24530600.0494   24530606.3174
        -0.000          -0.000
 97  3  3 21 53 30.0010000  0  7 26  2 27  4  9  7 15                0.001000015
  -3102635.790 9  -2405447.03847  23282655.277    23282655.3134   23282660.8544
        -0.000          -0.000
   -805414.049 9   -624538.36348  21632693.891    21632693.2684   21632698.6984
        -0.000          -0.000
   8492968.085 9   6618664.70647  22401117.069    22401116.7794   22401122.3894
        -0.000          -0.000
  -9930462.772 9  -7191751.77046  23354317.131    23354317.3124   23354323.3224
        -0.000          -0.000
  -8434349.245 9  -6561159.74145  24606148.653    24606148.5084   24606153.9704
        -0.000          -0.000
  -4919116.558 9  -3814748.72349  20579947.240    20579946.5794   20579951.8184
        -0.000          -0.000
   2357574.546 8   1846344.84745  24543229.649    24543228.7364   24543235.1684
        -0.000          -0.000
 97  3  3 21 54  0.0010000  0  7 26  2 27  4  9  7 15                0.001000015
  -3070985.421 9  -2380784.41947  23288678.110    23288678.1334   23288683.7324
        -0.000          -0.000
   -790043.067 9   -612560.96348  21635618.869    21635618.2834   21635623.6854
        -0.000          -0.000
   8586932.156 9   6691883.42947  22418997.928    22418997.6514   22419003.2484
        -0.000          -0.000
 -10030636.818 9  -7269809.39046  23335254.668    23335254.8104   23335260.9454
        -0.000          -0.000
  -8532957.895 9  -6637997.58045  24587384.124    24587383.8694   24587389.2964
        -0.000          -0.000
  -4903080.750 9  -3802253.27649  20582998.745    20582998.0874   20583003.3504
        -0.000          -0.000
   2424400.905 8   1898417.32145  24555946.533    24555945.5114   24555951.9444
        -0.000          -0.000
 97  3  3 21 54 30.0010000  0  7 26  2 27  4  9  7 15                0.001000011
  -3038907.138 9  -2355788.36147  23294782.449    23294782.4884   23294788.0034
        -0.000          -0.000
   -774505.356 9   -600453.65048  21638575.599    21638574.9864   21638580.3974
        -0.000          -0.000
   8681220.481 9   6765354.82047  22436940.486    22436940.2094   22436945.7894
        -0.000          -0.000
 -10130661.591 9  -7347750.71346  23316220.540    23316220.6464   23316226.9274
        -0.000          -0.000
  -8631481.774 9  -6714769.37145  24568635.465    24568635.2694   24568640.8954
        -0.000          -0.000
  -4886664.701 9  -3789461.53949  20586122.623    20586121.9644   20586127.2224
        -0.000          -0.000
   2491689.885 8   1950850.30545  24568751.298    24568750.3984   24568756.5454
        -0.000          -0.000
 97  3  3 21 55  0.0010000  0  7 26  2 27  4  9  7 15                0.001000015
  -3006393.052 9  -2330452.72947  23300969.557    23300969.6054   23300975.1774
        -0.000          -0.000
   -758801.306 9   -588216.72048  21641564.033    21641563.3784   21641568.7904
        -0.000          -0.000
   8775857.979 9   6839098.29947  22454949.354    22454949.0434   22454954.7624
        -0.000          -0.000
 -10230525.695 9  -7425566.84446  23297216.965    23297217.0824   23297223.3924
        -0.000          -0.000
  -8729902.296 9  -6791460.62945  24549906.461    24549906.2444   24549912.1674
        -0.000          -0.000
  -4869857.504 9  -3776365.01049  20589320.921    20589320.2604   20589325.4924
        -0.000          -0.000
   2559446.463 8   2003647.62345  24581644.765    24581643.9534   24581650.4734
        -0.000          -0.000
 97  3  3 21 55 30.0010000  0  7 26  2 27  4  9  7 15                0.001000015
  -2973457.468 9  -2304788.63847  23307236.909    23307236.9964   23307242.5974
        -0.000          -0.000
   -742941.336 9   -575858.29748  21644581.976    21644581.3484   21644586.8154
        -0.000          -0.000
   8870833.181 9   6913104.91847  22473022.383    22473022.1314   22473027.9594
        -0.000          -0.000
 -10330237.653 9  -7503264.42446  23278242.350    23278242.5194   23278248.6254
        -0.000          -0.000
  -8828222.749 9  -6868073.93545  24531196.550    24531196.2964   24531202.2094
        -0.000          -0.000
  -4852666.481 9  -3762969.39849  20592592.299    20592591.6354   20592596.8314
        -0.000          -0.000
   2627646.055 8   2056790.17145  24594622.504    24594621.8974   24594628.4804
        -0.000          -0.000
 97  3  3 21 56  0.0010000  0  7 26  2 27  4  9  7 15                0.001000024
  -2940084.939 9  -2278784.08647  23313587.506    23313587.6194   23313593.2504
        -0.000          -0.000
   -726906.054 9   -563363.27048  21647633.406    21647632.7664   21647638.2434
        -0.000          -0.000
   8966172.411 9   6987395.21447  22491164.902    22491164.6214   22491170.4174
        -0.000          -0.000
 -10429765.532 9  -7580818.54146  23259302.836    23259303.0094   23259308.8904
        -0.000          -0.000
  -8926430.369 9  -6944599.31145  24512508.181    24512508.0144   24512513.6484
        -0.000          -0.000
  -4835058.652 9  -3749249.00149  20595943.000    20595942.3364   20595947.4954
        -0.000          -0.000
   2696305.931 8   2110291.40945  24607688.117    24607687.6614   24607694.0664
        -0.000          -0.000
 97  3  3 21 56 30.0010000  0  7 26  2 27  4  9  7 15                0.001000027
  -2906283.247 9  -2252445.10147  23320019.920    23320019.9864   23320025.3964
        -0.000          -0.000
   -710701.221 9   -550736.12348  21650717.102    21650716.4814   21650721.8994
        -0.000          -0.000
   9061867.072 9   7061962.44547  22509375.116    22509374.8344   22509380.4884
        -0.000          -0.000
 -10529126.064 9  -7658242.28846  23240395.201    23240395.3594   23240401.1244
        -0.000          -0.000
  -9024537.581 9  -7021046.44645  24493838.983    24493838.6894   24493844.1414
        -0.000          -0.000
  -4817040.499 9  -3735208.87149  20599371.765    20599371.0824   20599376.2454
        -0.000          -0.000
   2765410.435 8   2164139.07545  24620838.425    24620837.8894   24620844.2834
        -0.000          -0.000
 97  3  3 21 57  0.0010000  0  7 26  2 27  4  9  7 15                0.001000023
  -2872064.570 9  -2225781.20347  23326531.604    23326531.6784   23326536.9374
        -0.000          -0.000
   -694312.326 9   -537965.55148  21653835.857    21653835.2224   21653840.5664
        -0.000          -0.000
   9157899.250 9   7136792.68547  22527649.542    22527649.2034   22527654.8724
        -0.000          -0.000
 -10628324.393 9  -7735539.63746  23221518.387    23221518.5384   23221524.3404
        -0.000          -0.000
  -9122530.229 9  -7097404.28945  24475191.607    24475191.4584   24475196.5994
        -0.000          -0.000
  -4798622.265 9  -3720856.98749  20602876.605    20602875.9264   20602881.0944
        -0.000          -0.000
   2834955.120 8   2218329.75945  24634072.431    24634071.6484   24634078.0294
        -0.000          -0.000
 97  3  3 21 57 30.0010000  0  7 26  2 27  4  9  7 15                0.001000014
  -2837409.240 9  -2198777.06647  23333126.329    23333126.3834   23333131.6844
        -0.000          -0.000
   -677716.713 9   -525033.90048  21656993.877    21656993.2364   21656998.5944
        -0.000          -0.000
   9254265.670 9   7211883.35147  22545987.430    22545987.1074   22545992.8344
        -0.000          -0.000
 -10727352.592 9  -7812704.42546  23202673.800    23202673.9434   23202679.9564
        -0.000          -0.000
  -9220407.913 9  -7173672.54845  24456566.122    24456565.8624   24456570.9764
        -0.000          -0.000
  -4779799.720 9  -3706190.05949  20606458.372    20606457.7264   20606462.9194
        -0.000          -0.000
   2904952.096 8   2272872.87345  24647392.428    24647391.7254   24647397.4894
        -0.000          -0.000
 97  3  3 21 58  0.0010000  0  7 26  2 27  4  9  7 15                0.001000020
  -2802282.252 9  -2171405.38547  23339810.704    23339810.7954   23339816.1634
        -0.000          -0.000
   -660895.315 9   -511926.31648  21660194.875    21660194.2104   21660199.6344
        -0.000          -0.000
   9350976.576 9   7287242.46747  22564390.827    22564390.4984   22564396.3204
        -0.000          -0.000
 -10826186.830 9  -7889718.07646  23183866.241    23183866.4244   23183872.4614
        -0.000          -0.000
  -9318138.968 9  -7249826.54945  24437968.494    24437968.2174   24437973.3654
        -0.000          -0.000
  -4760553.643 9  -3691193.10349  20610120.743    20610120.0814   20610125.2944
        -0.000          -0.000
   2975431.506 8   2327791.89345  24660804.110    24660803.5814   24660808.9984
        -0.000          -0.000
 97  3  3 21 58 30.0010000  0  7 26  2 27  4  9  7 15                0.001000025
  -2766735.105 9  -2143706.32347  23346575.024    23346575.1334   23346580.5064
        -0.000          -0.000
   -643891.029 9   -498676.22148  21663430.632    21663430.0094   21663435.4714
        -0.000          -0.000
   9447995.291 9   7362841.44647  22582852.897    22582852.5774   22582858.3494
        -0.000          -0.000
 -10924864.057 9  -7966609.39546  23165088.573    23165088.7034   23165094.6544
        -0.000          -0.000
  -9415747.658 9  -7325885.20945  24419394.082    24419393.8354   24419399.1314
        -0.000          -0.000
  -4740956.444 9  -3675922.55249  20613849.993    20613849.3294   20613854.5374
        -0.000          -0.000
   3046350.059 8   2383053.11645  24674299.342    24674299.2584   24674304.2354
        -0.000          -0.000
 97  3  3 21 59  0.0010000  0  7 26  2 27  4  9  7 15                0.001000034
  -2730787.201 9  -2115694.97347  23353415.692    23353415.7964   23353421.0384
        -0.000          -0.000
   -626723.672 9   -485299.05148  21666697.500    21666696.8684   21666702.3074
        -0.000          -0.000
   9545318.504 9   7438677.69547  22601372.954    22601372.6454   22601378.2934
        -0.000          -0.000
 -11023380.741 9  -8043375.61146  23146341.470    23146341.5814   23146347.3664
        -0.000          -0.000
  -9513247.851 9  -7401859.34145  24400840.371    24400840.0504   24400845.6344
        -0.000          -0.000
  -4721041.475 9  -3660404.38249  20617639.671    20617638.9964   20617644.1924
        -0.000          -0.000
   3117696.927 8   2438648.04244  24687876.062    24687875.9704   24687881.2464
        -0.000          -0.000
 97  3  3 21 59 30.0010000  0  7 26  2 27  4  9  7 15                0.001000045
  -2694439.067 9  -2087371.75947  23360332.560    23360332.6384   23360337.7524
        -0.000          -0.000
   -609421.495 9   -471816.82848  21669989.960    21669989.3494   21669994.7854
        -0.000          -0.000
   9642939.182 9   7514745.73347  22619949.655    22619949.3054   22619954.9164
        -0.000          -0.000
 -11121734.190 9  -8120014.60646  23127625.363    23127625.4684   23127631.1914
        -0.000          -0.000
  -9610647.920 9  -7477755.45345  24382305.685    24382305.2224   24382311.0214
        -0.000          -0.000
  -4700813.232 9  -3644642.10049  20621488.938    20621488.2714   20621493.4744
        -0.000          -0.000
   3189463.255 8   2494569.82144  24701532.871    24701532.4454   24701538.6904
        -0.000          -0.000
 97  3  3 22  0  0.0010000  0  6 26  2 27  4  9  7                   0.001000037
  -2657632.479 9  -2058691.30147  23367336.528    23367336.5904   23367341.7294
        -0.000          -0.000
   -591913.270 9   -458174.05348  21673321.591    21673321.0124   21673326.4664
        -0.000          -0.000
   9740932.780 9   7591104.35347  22638597.286    22638596.9754   22638602.4724
        -0.000          -0.000
 -11219831.239 9  -8196453.82346  23108958.077    23108958.2614   23108963.9774
        -0.000          -0.000
  -9707860.727 9  -7553505.64945  24363806.583    24363806.2194   24363811.9564
        -0.000          -0.000
  -4680205.020 9  -3628583.74049  20625410.507    20625409.8264   20625415.0294
        -0.000          -0.000
 97  3  3 22  0 30.0010000  0  6 26  2 27  4  9  7                   0.001000077
  -2620525.647 9  -2029776.91147  23374397.492    23374397.6314   23374402.9634
        -0.000          -0.000
   -574335.250 9   -444476.88848  21676666.612    21676666.0064   21676671.4304
        -0.000          -0.000
   9839165.595 9   7667649.36647  22657290.379    22657290.0744   22657295.6294
        -0.000          -0.000
 -11317811.187 9  -8272801.78947  23090313.141    23090313.2194   23090319.0684
        -0.000          -0.000
  -9805032.819 9  -7629224.09945  24345315.265    24345314.9694   24345320.7304
        -0.000          -0.000
  -4659356.065 9  -3612337.79249  20629377.938    20629377.2794   20629382.4354
        -0.000          -0.000
 97  3  3 22  1  0.0010000  0  6 26  2 27  4  9  7                   0.001000090
  -2583063.092 9  -2000585.32547  23381526.248    23381526.3764   23381532.0114
        -0.000          -0.000
   -556640.184 9   -430688.51748  21680033.946    21680033.3254   21680038.6874
        -0.000          -0.000
   9937661.658 9   7744399.51447  22676033.539    22676033.2194   22676038.8414
        -0.000          -0.000
 -11415640.104 9  -8349032.07647  23071696.878    23071696.9374   23071702.8054
        -0.000          -0.000
  -9902119.683 9  -7704876.14646  24326840.278    24326840.1684   24326845.7264
        -0.000          -0.000
  -4638186.935 9  -3595842.35949  20633406.326    20633405.6414   20633410.7634
        -0.000          -0.000
 97  3  3 22  1 30.0010000  0  6 26  2 27  4  9  7                   0.001000099
  -2545185.068 9  -1971069.98347  23388734.114    23388734.2564   23388740.1044
        -0.000          -0.000
   -538759.356 9   -416755.39848  21683436.516    21683435.9204   21683441.2724
        -0.000          -0.000
  10036459.491 9   7821384.79947  22694834.108    22694833.8134   22694839.5164
        -0.000          -0.000
 -11513266.975 9  -8425104.92847  23053119.092    23053119.1684   23053124.9974
        -0.000          -0.000
  -9999064.112 9  -7780417.19246  24308392.638    24308392.4594   24308397.8464
        -0.000          -0.000
  -4616628.065 9  -3579043.23149  20637508.816    20637508.1404   20637513.2314
        -0.000          -0.000
 97  3  3 22  2  0.0010000  0  6 26  2 27  4  9  7                   0.001000101
  -2506904.339 9  -1941240.85447  23396018.783    23396018.9334   23396024.7134
        -0.000          -0.000
   -520677.688 9   -402665.77948  21686877.339    21686876.7184   21686882.0944
        -0.000          -0.000
  10135561.643 9   7898607.21947  22713692.745    22713692.4484   22713698.0844
        -0.000          -0.000
 -11610700.959 9  -8501027.46047  23034577.974    23034578.0734   23034583.8304
        -0.000          -0.000
 -10095868.501 9  -7855849.13246  24289971.742    24289971.2834   24289976.4434
        -0.000          -0.000
  -4594683.488 9  -3561943.55549  20641684.732    20641684.0694   20641689.1734
        -0.000          -0.000
 97  3  3 22  2 30.0010000  0  6 26  2 27  4  9  7                   0.001000096
  -2468192.885 9  -1911076.09947  23403385.363    23403385.4644   23403391.1564
        -0.000          -0.000
   -502377.964 9   -388406.25448  21690359.582    21690358.9974   21690364.4384
        -0.000          -0.000
  10234986.823 9   7976081.35647  22732612.809    22732612.5104   22732618.0754
        -0.000          -0.000
 -11707936.264 9  -8576795.17547  23016074.725    23016074.7934   23016080.3934
        -0.000          -0.000
 -10192515.378 9  -7931158.30546  24271580.337    24271579.8664   24271585.0074
        -0.000          -0.000
  -4572324.493 9  -3544520.95649  20645939.475    20645938.8244   20645943.9214
        -0.000          -0.000
 97  3  3 22  3  0.0010000  0  6 26  2 27  4  9  7                   0.001000084
  -2429047.831 9  -1880573.47746  23410834.445    23410834.4974   23410840.0554
        -0.000          -0.000
   -483862.579 9   -373978.67748  21693882.929    21693882.3684   21693887.7964
        -0.000          -0.000
  10334727.371 9   8053801.23947  22751592.900    22751592.6104   22751598.1474
        -0.000          -0.000
 -11804962.939 9  -8652400.32847  22997611.269    22997611.3254   22997616.8144
        -0.000          -0.000
 -10289006.347 9  -8006346.02346  24253218.445    24253218.0974   24253223.3454
        -0.000          -0.000
  -4549562.404 9  -3526784.25449  20650270.990    20650270.3354   20650275.3724
        -0.000          -0.000
 97  3  3 22  3 30.0010000  0  6 26  2 27  4  9  7                   0.001000086
  -2389476.576 9  -1849738.75246  23418364.504    23418364.5744   23418370.1494
        -0.000          -0.000
   -465129.579 9   -359381.53248  21697447.820    21697447.2004   21697452.6144
        -0.000          -0.000
  10434805.885 9   8131784.47447  22770637.181    22770636.8964   22770642.5004
        -0.000          -0.000
 -11901760.257 9  -8727826.74947  22979191.219    22979191.3274   22979196.8814
        -0.000          -0.000
 -10385338.365 9  -8081409.86146  24234886.785    24234886.5084   24234891.9764
        -0.000          -0.000
  -4526412.445 9  -3508745.31749  20654676.339    20654675.6754   20654680.6824
        -0.000          -0.000
 97  3  3 22  4  0.0010000  0  6 26  2 27  4  9  7                   0.001000077
  -2349543.039 9  -1818621.73246  23425963.466    23425963.5934   23425969.2564
        -0.000          -0.000
   -446246.877 9   -344667.73648  21701041.100    21701040.4824   21701045.8614
        -0.000          -0.000
  10535177.151 9   8209995.81147  22789737.171    22789736.8944   22789742.5324
        -0.000          -0.000
 -11998389.516 9  -8803122.22447  22960803.195    22960803.3274   22960808.9694
        -0.000          -0.000
 -10481559.400 9  -8156387.24546  24216576.363    24216576.0934   24216581.6884
        -0.000          -0.000
  -4502941.929 9  -3490456.59549  20659142.670    20659142.0144   20659146.9814
        -0.000          -0.000
 97  3  3 22  4 30.0010000  0  6 26  2 27  4  9  7                   0.001000082
  -2309207.500 9  -1787191.44847  23433638.991    23433639.1394   23433644.9584
        -0.000          -0.000
   -427179.395 9   -329809.95648  21704669.560    21704668.9104   21704674.2714
        -0.000          -0.000
  10635868.689 9   8288456.70547  22808898.110    22808897.8484   22808903.5054
        -0.000          -0.000
 -12094807.167 9  -8878252.80047  22942455.395    22942455.5694   22942461.2734
        -0.000          -0.000
 -10577628.005 9  -8231245.85046  24198295.020    24198294.7994   24198300.5464
        -0.000          -0.000
  -4479120.221 9  -3471894.21249  20663675.773    20663675.1054   20663680.1134
        -0.000          -0.000
 97  3  3 22  5  0.0010000  0  6 26  2 27  4  9  7                   0.001000098
  -2268497.592 9  -1755469.46547  23441385.841    23441386.0064   23441391.9854
        -0.000          -0.000
   -407930.059 9   -314810.47948  21708332.546    21708331.9244   21708337.2964
        -0.000          -0.000
  10736861.970 9   8367152.72047  22828116.562    22828116.2544   22828121.8964
        -0.000          -0.000
 -12191020.619 9  -8953224.26447  22924146.635    22924146.7544   22924152.3554
        -0.000          -0.000
 -10673554.033 9  -8305993.35646  24180041.026    24180040.7164   24180046.4474
        -0.000          -0.000
  -4454963.980 9  -3453071.15849  20668272.575    20668271.9234   20668276.9324
        -0.000          -0.000
 97  3  3 22  5 30.0010000  0  6 26  2 27  4  9  7                   0.001000112
  -2227425.178 9  -1723464.99547  23449201.807    23449201.9054   23449207.9004
        -0.000          -0.000
   -388517.892 9   -299684.11848  21712026.535    21712025.9574   21712031.3084
        -0.000          -0.000
  10838138.389 9   8446069.36247  22847388.851    22847388.5724   22847394.2184
        -0.000          -0.000
 -12287051.120 9  -9028053.16547  22905872.606    22905872.7454   22905878.2514
        -0.000          -0.000
 -10769346.187 9  -8380636.55146  24161812.538    24161812.0964   24161817.8284
        -0.000          -0.000
  -4430485.781 9  -3433997.22549  20672930.626    20672929.9484   20672934.9774
        -0.000          -0.000
 97  3  3 22  6  0.0010000  0  6 26  2 27  4  9  7                   0.001000126
  -2185973.630 9  -1691165.11046  23457089.740    23457089.8054   23457095.9484
        -0.000          -0.000
   -368924.666 9   -284416.67648  21715754.993    21715754.4264   21715759.7764
        -0.000          -0.000
  10939686.957 9   8525198.06547  22866712.917    22866712.6344   22866718.2904
        -0.000          -0.000
 -12382890.196 9  -9102732.91147  22887634.973    22887635.0604   22887640.6184
        -0.000          -0.000
 -10864982.515 9  -8455158.29346  24143613.610    24143613.2044   24143618.7754
        -0.000          -0.000
  -4405671.475 9  -3414661.39649  20677652.590    20677651.9194   20677656.9634
        -0.000          -0.000
 97  3  3 22  6 30.0010000  0  6 26  2 27  4  9  7                   0.001000133
  -2144144.644 9  -1658571.12346  23465049.433    23465049.5444   23465055.7524
        -0.000          -0.000
   -349138.504 9   -268998.88848  21719520.227    21719519.6294   21719524.9534
        -0.000          -0.000
  11041499.654 9   8604532.60747  22886087.174    22886086.9124   22886092.7034
        -0.000          -0.000
 -12478525.542 9  -9177253.90547  22869435.983    22869436.1794   22869441.7894
        -0.000          -0.000
 -10960469.396 9  -8529563.60546  24125442.996    24125442.6844   24125448.1444
        -0.000          -0.000
  -4380522.360 9  -3395064.67449  20682438.321    20682437.6564   20682442.7204
        -0.000          -0.000
 97  3  3 22  7  0.0010000  0  6 26  2 27  4  9  7                   0.001000127
  -2101940.820 9  -1625685.04646  23473080.540    23473080.5954   23473086.7374
        -0.000          -0.000
   -329166.598 9   -253436.36748  21723320.718    21723320.1484   21723325.4424
        -0.000          -0.000
  11143576.936 9   8684073.30947  22905511.831    22905511.5644   22905517.4154
        -0.000          -0.000
 -12573953.488 9  -9251613.29747  22851276.603    22851276.8104   22851282.4244
        -0.000          -0.000
 -11055820.475 9  -8603863.09646  24107298.318    24107297.9654   24107303.3144
        -0.000          -0.000
  -4355045.086 9  -3375212.24549  20687286.491    20687285.8304   20687290.8994
        -0.000          -0.000
 97  3  3 22  7 30.0010000  0  6 26  2 27  4  9  7                   0.001000117
  -2059346.457 9  -1592494.66546  23481185.877    23481186.0144   23481192.0484
        -0.000          -0.000
   -309010.762 9   -237730.52148  21727156.262    21727155.6434   21727160.8934
        -0.000          -0.000
  11245930.298 9   8763829.14847  22924989.075    22924988.8104   22924994.6414
        -0.000          -0.000
 -12669157.905 9  -9325798.51447  22833159.797    22833160.0124   22833165.5414
        -0.000          -0.000
 -11151021.446 9  -8678045.61446  24089182.076    24089181.6474   24089187.1724
        -0.000          -0.000
  -4329236.438 9  -3355101.59749  20692197.701    20692197.0304   20692202.0994
        -0.000          -0.000
 97  3  3 22  8  0.0010000  0  6 26  2 27  4  9  7                   0.001000101
  -2016400.803 9  -1559030.52946  23489358.137    23489358.2764   23489364.2994
        -0.000          -0.000
   -288676.796 9   -221885.87548  21731025.695    21731025.0744   21731030.3244
        -0.000          -0.000
  11348553.204 9   8843795.01147  22944517.729    22944517.4204   22944523.1934
        -0.000          -0.000
 -12764147.758 9  -9399816.53847  22815083.841    22815083.9774   22815089.5254
        -0.000          -0.000
 -11246091.557 9  -8752126.17546  24071090.448    24071090.1724   24071095.8314
        -0.000          -0.000
  -4303119.526 9  -3334750.74849  20697167.543    20697166.8804   20697171.9744
        -0.000          -0.000
 97  3  3 22  8 30.0010000  0  6 26  2 27  4  9  7                   0.001000090
  -1973084.908 9  -1525277.88946  23497600.929    23497601.0794   23497607.0184
        -0.000          -0.000
   -268155.935 9   -205895.59948  21734930.666    21734930.0714   21734935.3704
        -0.000          -0.000
  11451476.291 9   8923994.77647  22964103.409    22964103.1224   22964108.7724
        -0.000          -0.000
 -12858889.242 9  -9473641.02147  22797055.036    22797055.1774   22797060.7454
        -0.000          -0.000
 -11341018.594 9  -8826095.22746  24053026.285    24053025.9374   24053031.7594
        -0.000          -0.000
  -4276674.634 9  -3314144.32749  20702199.840    20702199.1864   20702204.2634
        -0.000          -0.000
 97  3  3 22  9  0.0010000  0  6 26  2 27  4  9  7                   0.001000070
  -1929410.710 9  -1491246.07246  23505912.103    23505912.1954   23505918.0254
        -0.000          -0.000
   -247473.375 9   -189779.32048  21738866.415    21738865.8564   21738871.1854
        -0.000          -0.000
  11554676.990 9   9004410.86347  22983741.872    22983741.5874   22983747.2414
        -0.000          -0.000
 -12953388.717 9  -9547276.92647  22779072.298    22779072.4774   22779078.0444
        -0.000          -0.000
 -11435802.225 9  -8899952.55846  24034989.484    24034989.1444   24034994.9734
        -0.000          -0.000
  -4249901.469 9  -3293282.11249  20707294.561    20707293.8894   20707298.9624
        -0.000          -0.000
 97  3  3 22  9 30.0010000  0  6 26  2 27  4  9  7                   0.001000057
  -1885363.010 9  -1456923.21746  23514294.227    23514294.2924   23514300.1194
        -0.000          -0.000
   -226611.977 9   -173523.68748  21742836.211    21742835.6584   21742840.9814
        -0.000          -0.000
  11658164.745 9   9085050.62147  23003434.959    23003434.6434   23003440.4404
        -0.000          -0.000
 -13047637.310 9  -9620717.35247  22761137.424    22761137.5634   22761143.0814
        -0.000          -0.000
 -11530402.511 9  -8973667.00946  24016987.583    24016987.3254   24016993.1484
        -0.000          -0.000
  -4222779.721 9  -3272148.27249  20712455.652    20712455.0064   20712460.0524
        -0.000          -0.000
 97  3  3 22 10  0.0010000  0  6 26  2 27  4  9  7                   0.001000044
  -1840944.005 9  -1422311.02546  23522746.975    23522747.0314   23522752.7944
        -0.000          -0.000
   -205556.755 9   -157117.02148  21746842.927    21746842.3444   21746847.6204
        -0.000          -0.000
  11761926.247 9   9165903.70647  23023180.078    23023179.8244   23023185.6454
        -0.000          -0.000
 -13141635.877 9  -9693962.94247  22743250.116    22743250.2364   22743255.7184
        -0.000          -0.000
 -11624819.696 9  -9047238.80446  23999020.644    23999020.4234   23999026.0434
        -0.000          -0.000
  -4195303.179 9  -3250737.97149  20717684.255    20717683.5864   20717688.6754
        -0.000          -0.000
 97  3  3 22 10 30.0010000  0  6 26  2 27  4  9  7                   0.001000030
  -1796123.761 9  -1387386.17146  23531275.968    23531275.9774   23531281.7374
        -0.000          -0.000
   -184294.761 9   -140549.22948  21750888.967    21750888.3444   21750893.6224
        -0.000          -0.000
  11865956.292 9   9246966.04146  23042976.382    23042976.0894   23042982.0404
        -0.000          -0.000
 -13235365.281 9  -9766998.79847  22725414.012    22725414.1134   22725419.5814
        -0.000          -0.000
 -11719032.941 9  -9120651.65946  23981092.513    23981092.2854   23981097.7994
        -0.000          -0.000
  -4167455.075 9  -3229038.14049  20722983.547    20722982.8974   20722988.0024
        -0.000          -0.000
 97  3  3 22 11  0.0010000  0  6 26  2 27  4  9  7                   0.001000019
  -1750908.294 9  -1352153.35446  23539880.069    23539880.2004   23539885.8324
        -0.000          -0.000
   -162815.016 9   -123811.76548  21754976.401    21754975.7844   21754981.0734
        -0.000          -0.000
  11970257.287 9   9328239.52446  23062824.254    23062823.9394   23062829.8984
        -0.000          -0.000
 -13328832.352 9  -9839830.24247  22707627.658    22707627.8074   22707633.3314
        -0.000          -0.000
 -11813033.204 9  -9193898.56446  23963204.704    23963204.5494   23963210.1014
        -0.000          -0.000
  -4139237.147 9  -3207050.13749  20728353.234    20728352.5704   20728357.6634
        -0.000          -0.000
 97  3  3 22 11 30.0010000  0  6 26  2 27  4  9  7                   0.001000019
  -1705323.159 9  -1316632.48146  23548554.718    23548554.8354   23548560.3364
        -0.000          -0.000
   -141120.131 9   -106906.65148  21759104.805    21759104.1964   21759109.4714
        -0.000          -0.000
  12074832.544 9   9409726.68646  23082724.296    23082724.0224   23082729.7744
        -0.000          -0.000
 -13422056.507 9  -9912472.39647  22689887.604    22689887.7674   22689893.3344
        -0.000          -0.000
 -11906836.569 9  -9266992.03246  23945354.481    23945354.3074   23945359.9414
        -0.000          -0.000
  -4110671.850 9  -3184791.45449  20733789.071    20733788.3974   20733793.4364
        -0.000          -0.000
 97  3  3 22 12  0.0010000  0  6 26  2 27  4  9  7                   0.001000005
  -1659386.749 9  -1280837.89146  23557296.256    23557296.3724   23557301.6614
        -0.000          -0.000
   -119231.740 9    -89850.76448  21763270.017    21763269.4224   21763274.6874
        -0.000          -0.000
  12179669.149 9   9491417.51546  23102674.101    23102673.7324   23102679.4884
        -0.000          -0.000
 -13515038.375 9  -9984925.76347  22672193.821    22672193.9674   22672199.4474
        -0.000          -0.000
 -12000476.411 9  -9339958.09746  23927535.311    23927535.1124   23927540.8504
        -0.000          -0.000
  -4081775.187 9  -3162274.56749  20739287.900    20739287.2304   20739292.2194
        -0.000          -0.000
 97  3  3 22 12 30.0010000  0  6 26  2 27  4  9  7                   0.001000008
  -1613071.324 9  -1244747.96546  23566110.049    23566110.0914   23566115.2784
        -0.000          -0.000
    -97141.905 9    -72637.90248  21767473.575    21767472.9924   21767478.2304
        -0.000          -0.000
  12284812.104 9   9573347.06246  23122682.026    23122681.7104   23122687.4484
        -0.000          -0.000
 -13607743.476 9 -10057163.46147  22654552.657    22654552.7894   22654558.2574
        -0.000          -0.000
 -12093908.241 9  -9412762.06946  23909755.813    23909755.6104   23909761.2734
        -0.000          -0.000
  -4052515.129 9  -3139474.51649  20744855.873    20744855.1964   20744860.1744
        -0.000          -0.000
 97  3  3 22 13  0.0010000  0  6 26  2 27  4  9  7                   0.001000029
  -1566382.043 9  -1208366.73146  23574994.736    23574994.7904   23575000.1014
        -0.000          -0.000
    -74855.588 9    -55271.93748  21771714.533    21771713.9564   21771719.2074
        -0.000          -0.000
  12390267.730 9   9655520.24446  23142749.574    23142749.2684   23142755.0514
        -0.000          -0.000
 -13700182.391 9 -10129193.75047  22636962.078    22636962.2274   22636967.6504
        -0.000          -0.000
 -12187130.385 9  -9485402.63746  23892016.231    23892016.0214   23892021.4954
        -0.000          -0.000
  -4022888.280 9  -3116388.65549  20750493.689    20750493.0134   20750497.9924
        -0.000          -0.000
 97  3  3 22 13 30.0010000  0  6 26  2 27  4  9  7                   0.001000050
  -1519346.393 9  -1171715.59446  23583945.340    23583945.3744   23583950.7634
        -0.000          -0.000
    -52401.313 9    -37775.09948  21775987.385    21775986.8284   21775992.0764
        -0.000          -0.000
  12495993.481 9   9737903.91946  23162868.465    23162868.1104   23162874.0904
        -0.000          -0.000
 -13792379.697 9 -10201035.76047  22619417.496    22619417.6234   22619423.0244
        -0.000          -0.000
 -12280171.701 9  -9557902.31846  23874311.108    23874310.7684   23874316.1034
        -0.000          -0.000
  -3992938.483 9  -3093051.14749  20756192.923    20756192.2374   20756197.2534
        -0.000          -0.000
 97  3  3 22 14  0.0010000  0  6 26  2 27  4  9  7                   0.001000075
  -1471932.691 9  -1134769.87246  23592967.802    23592967.8984   23592973.2334
        -0.000          -0.000
    -29752.396 9    -20126.58848  21780297.353    21780296.7744   21780302.0544
        -0.000          -0.000
  12601990.988 9   9820499.34446  23183039.189    23183038.8864   23183044.8854
        -0.000          -0.000
 -13884302.432 9 -10272663.82047  22601925.185    22601925.3034   22601930.7054
        -0.000          -0.000
 -12373010.529 9  -9630244.22846  23856644.487    23856644.1794   23856649.3164
        -0.000          -0.000
  -3962646.513 9  -3069447.00849  20761957.222    20761956.5774   20761961.6384
        -0.000          -0.000
 97  3  3 22 14 30.0010000  0  6 26  2 27  4  9  7                   0.001000115
  -1424154.773 9  -1097540.34446  23602059.773    23602059.8444   23602064.9214
        -0.000          -0.000
     -6883.086 9     -2306.34948  21784649.190    21784648.6224   21784653.8984
        -0.000          -0.000
  12708255.416 9   9903302.77246  23203260.816    23203260.4474   23203266.4594
        -0.000          -0.000
 -13975948.836 9 -10344076.54847  22584485.457    22584485.5464   22584491.0144
        -0.000          -0.000
 -12465641.603 9  -9702424.22146  23839017.367    23839017.0324   23839022.0264
        -0.000          -0.000
  -3932023.068 9  -3045584.57649  20767784.627    20767783.9624   20767789.0884
        -0.000          -0.000
 97  3  3 22 15  0.0010000  0  6 26  2 27  4  9  7                   0.001000162
  -1376046.613 9  -1060053.46546  23611214.512    23611214.5764   23611219.3834
        -0.000          -0.000
     16216.541 9     15693.36348  21789044.869    21789044.3094   21789049.5994
        -0.000          -0.000
  12814756.854 9   9986290.87446  23223527.351    23223527.0274   23223533.0214
        -0.000          -0.000
 -14067327.713 9 -10415280.82747  22567096.618    22567096.6844   22567102.1594
        -0.000          -0.000
 -12558096.248 9  -9774466.76346  23821423.774    23821423.5514   23821428.3504
        -0.000          -0.000
  -3901111.226 9  -3021497.42349  20773666.934    20773666.3004   20773671.4064
        -0.000          -0.000
 97  3  3 22 15 30.0010000  0  6 26  2 27  4  9  7                   0.001000184
  -1327680.051 9  -1022365.26246  23620418.493    23620418.5644   23620423.1594
        -0.000          -0.000
     39495.524 9     33832.82348  21793474.758    21793474.1824   21793479.4634
        -0.000          -0.000
  12921434.335 9  10069416.14846  23243827.356    23243827.0044   23243833.0364
        -0.000          -0.000
 -14158477.423 9 -10486306.52247  22549751.266    22549751.3724   22549756.8454
        -0.000          -0.000
 -12650435.762 9  -9846419.59446  23803852.157    23803851.9274   23803856.6564
        -0.000          -0.000
  -3869984.377 9  -2997242.73149  20779590.267    20779589.5994   20779594.6864
        -0.000          -0.000
 97  3  3 22 16  0.0010000  0  6 26  2 27  4  9  7                   0.001000189
  -1279042.971 9   -984466.26446  23629674.061    23629674.0674   23629678.5994
        -0.000          -0.000
     62980.404 9     52132.73048  21797943.834    21797943.2184   21797948.4244
        -0.000          -0.000
  13028310.310 9  10152696.05446  23264165.117    23264164.8044   23264170.9134
        -0.000          -0.000
 -14249369.603 9 -10557131.55747  22532454.986    22532455.1064   22532460.5594
        -0.000          -0.000
 -12742638.294 9  -9918265.68146  23786306.524    23786306.2934   23786311.0424
        -0.000          -0.000
  -3838607.479 9  -2972793.19049  20785561.150    20785560.4764   20785565.5284
        -0.000          -0.000
 97  3  3 22 16 30.0010000  0  6 26  2 27  4  9  7                   0.001000198
  -1230141.807 9   -946361.48046  23638979.566    23638979.5554   23638984.4474
        -0.000          -0.000
     86665.485 9     70588.63748  21802450.995    21802450.3884   21802455.5864
        -0.000          -0.000
  13135396.557 9  10236139.83846  23284542.938    23284542.6674   23284548.7634
        -0.000          -0.000
 -14339999.130 9 -10627751.91747  22515208.783    22515208.8654   22515214.2804
        -0.000          -0.000
 -12834685.971 9  -9989991.09346  23768790.393    23768790.1994   23768795.0264
        -0.000          -0.000
  -3806989.955 9  -2948156.15449  20791577.753    20791577.0514   20791582.1124
        -0.000          -0.000
 97  3  3 22 17  0.0010000  0  6 26  2 27  4  9  7                   0.001000190
  -1180974.472 9   -908049.27246  23648335.618    23648335.6184   23648340.7884
        -0.000          -0.000
    110502.278 9     89162.76048  21806986.933    21806986.3284   21806991.5544
        -0.000          -0.000
  13242666.728 9  10319726.94346  23304955.832    23304955.5854   23304961.6444
        -0.000          -0.000
 -14430380.178 9 -10698178.66047  22498009.908    22498009.9724   22498015.3164
        -0.000          -0.000
 -12926587.895 9 -10061602.95046  23751302.074    23751301.7874   23751306.6744
        -0.000          -0.000
  -3775151.083 9  -2923346.63549  20797636.407    20797635.7264   20797640.8104
        -0.000          -0.000
 97  3  3 22 17 30.0010000  0  6 26  2 27  4  9  7                   0.001000163
  -1131499.017 9   -869496.98146  23657750.280    23657750.3204   23657755.6174
        -0.000          -0.000
    134492.030 9    107856.06948  21811551.982    21811551.3774   21811556.6564
        -0.000          -0.000
  13350129.334 9  10403464.00846  23325405.386    23325405.1084   23325411.1924
        -0.000          -0.000
 -14520506.748 9 -10768407.11447  22480859.331    22480859.4454   22480864.7484
        -0.000          -0.000
 -13018315.432 9 -10133078.90246  23733846.704    23733846.3814   23733851.4834
        -0.000          -0.000
  -3743057.535 9  -2898338.66749  20803743.570    20803742.9084   20803748.0084
        -0.000          -0.000
 97  3  3 22 18  0.0010000  0  6 26  2 27  4  9  7                   0.001000142
  -1081667.597 9   -830667.30446  23667232.941    23667233.0654   23667238.0844
        -0.000          -0.000
    158665.016 9    126692.16848  21816151.959    21816151.3834   21816156.6264
        -0.000          -0.000
  13457811.324 9  10487372.02846  23345896.693    23345896.4124   23345902.4764
        -0.000          -0.000
 -14610352.584 9 -10838416.80947  22463762.126    22463762.2614   22463767.6604
        -0.000          -0.000
 -13109817.290 9 -10204379.00946  23716434.347    23716434.0354   23716439.3184
        -0.000          -0.000
  -3710674.248 9  -2873104.93049  20809905.878    20809905.2224   20809910.3294
        -0.000          -0.000
 97  3  3 22 18 30.0010000  0  6 26  2 27  4  9  7                   0.001000118
  -1031502.171 9   -791577.38146  23676779.270    23676779.3564   23676784.1804
        -0.000          -0.000
    182989.552 9    145646.35048  21820780.752    21820780.1484   21820785.4254
        -0.000          -0.000
  13565693.761 9  10571436.24146  23366426.070    23366425.8004   23366431.9024
        -0.000          -0.000
 -14699938.968 9 -10908224.33547  22446714.385    22446714.4934   22446719.9334
        -0.000          -0.000
 -13201101.925 9 -10275509.84246  23699063.549    23699063.1704   23699068.4794
        -0.000          -0.000
  -3678018.783 9  -2847659.11249  20816120.021    20816119.3704   20816124.4944
        -0.000          -0.000
 97  3  3 22 19  0.0010000  0  6 26  2 27  4  9  7                   0.001000080
   -980987.508 9   -752215.31146  23686392.055    23686392.0924   23686396.8174
        -0.000          -0.000
    207499.418 9    164744.94348  21825444.818    21825444.2194   21825449.5444
        -0.000          -0.000
  13673784.161 9  10655662.47146  23386994.941    23386994.6604   23387000.8094
        -0.000          -0.000
 -14789250.056 9 -10977817.33747  22429719.023    22429719.1484   22429724.5064
        -0.000          -0.000
 -13292158.181 9 -10346462.72546  23681736.158    23681735.7854   23681741.0304
        -0.000          -0.000
  -3645047.951 9  -2821967.55149  20822394.161    20822393.4974   20822398.6274
        -0.000          -0.000
 97  3  3 22 19 30.0010000  0  6 26  2 27  4  9  7                   0.001000034
   -930140.236 9   -712594.05746  23696067.989    23696067.9644   23696072.7784
        -0.000          -0.000
    232225.543 9    184012.04648  21830150.028    21830149.4724   21830154.7744
        -0.000          -0.000
  13782104.708 9  10740068.04846  23407607.624    23407607.3314   23407613.5184
        -0.000          -0.000
 -14878272.570 9 -11047185.48347  22412778.612    22412778.7164   22412783.9544
        -0.000          -0.000
 -13382975.134 9 -10417229.14246  23664454.192    23664453.8504   23664459.0544
        -0.000          -0.000
  -3611723.400 9  -2796000.36549  20828735.644    20828734.9574   20828740.0934
        -0.000          -0.000
 97  3  3 22 20  0.0010000  0  6 26  2 27  4  9  7                   0.000999981
   -878972.483 9   -672723.11146  23705804.706    23705804.7734   23705809.7854
        -0.000          -0.000
    257190.965 9    203465.62348  21834900.874    21834900.2734   21834905.5194
        -0.000          -0.000
  13890682.560 9  10824674.12446  23428269.371    23428269.0274   23428275.1994
        -0.000          -0.000
 -14966963.550 9 -11116295.29047  22395901.223    22395901.3304   22395906.5154
        -0.000          -0.000
 -13473546.684 9 -10487804.30946  23647218.940    23647218.6914   23647223.7804
        -0.000          -0.000
  -3578013.021 9  -2769732.53049  20835150.520    20835149.8564   20835154.9774
        -0.000          -0.000
 97  3  3 22 20 30.0010000  0  7 26  2 27  4  9  7 24                0.000999909
   -827443.691 9   -632570.84246  23715610.281    23715610.3554   23715615.5324
        -0.000          -0.000
    282447.199 9    223145.80248  21839706.946    21839706.3764   21839711.6034
        -0.000          -0.000
  13999568.651 9  10909520.38446  23448989.714    23448989.4424   23448995.6404
        -0.000          -0.000
 -15055258.849 9 -11185096.77147  22379099.079    22379099.1834   22379104.4084
        -0.000          -0.000
 -13563833.872 9 -10558157.91946  23630037.869    23630037.6254   23630042.6344
        -0.000          -0.000
  -3543855.817 9  -2743116.52449  20841650.414    20841649.7464   20841654.8914
        -0.000          -0.000
  -2514258.26918  -1573739.56355  24842783.652    24842783.7805   24842791.6795
        -0.000          -0.000
 97  3  3 22 21  0.0010000  0  7 26  2 27  4  9  7 24                0.000999915
   -775571.086 9   -592150.63946  23725481.372    23725481.4714   23725486.5814
        -0.000          -0.000
    307975.847 9    243038.25248  21844564.872    21844564.2934   21844569.5044
        -0.000          -0.000
  14108733.836 9  10994584.12146  23469763.207    23469762.9324   23469769.1214
        -0.000          -0.000
 -15143173.588 9 -11253601.70947  22362369.431    22362369.5344   22362374.7924
        -0.000          -0.000
 -13653867.904 9 -10628314.26146  23612904.965    23612904.7064   23612909.6184
        -0.000          -0.000
  -3509293.720 9  -2716185.01249  20848227.357    20848226.6734   20848231.8094
        -0.000          -0.000
  -2622650.317 8  -1658200.80545  24822157.225    24822157.2984   24822165.2734
        -0.000          -0.000
 97  3  3 22 21 30.0010000  0  7 26  2 27  4  9  7 24                0.000999948
   -723340.272 9   -551451.31246  23735420.759    23735420.8604   23735425.6914
        -0.000          -0.000
    333765.257 9    263133.88948  21849472.404    21849471.8454   21849477.0744
        -0.000          -0.000
  14218196.109 9  11079879.35146  23490593.241    23490592.9414   23490599.1664
        -0.000          -0.000
 -15230689.313 9 -11321795.73447  22345715.716    22345715.8434   22345721.0844
        -0.000          -0.000
 -13743635.752 9 -10698263.19546  23595822.628    23595822.4014   23595827.2684
        -0.000          -0.000
  -3474349.474 9  -2688955.72849  20854877.020    20854876.3794   20854881.4774
        -0.000          -0.000
  -2730970.292 8  -1742605.88645  24801544.672    24801544.6084   24801552.3534
        -0.000          -0.000
 97  3  3 22 22  0.0010000  0  7 26  2 27  4  9  7 24                0.000999986
   -670762.416 9   -510481.56846  23745426.080    23745426.1534   23745430.8764
        -0.000          -0.000
    359780.725 9    283405.67648  21854423.001    21854422.4884   21854427.7224
        -0.000          -0.000
  14327920.269 9  11165378.63346  23511473.103    23511472.7864   23511479.0454
        -0.000          -0.000
 -15317828.170 9 -11389696.09147  22329133.686    22329133.8024   22329139.0164
        -0.000          -0.000
 -13833157.813 9 -10768020.60446  23578787.157    23578786.9164   23578791.8064
        -0.000          -0.000
  -3439093.888 9  -2661483.83449  20861585.913    20861585.2554   20861590.3744
        -0.000          -0.000
  -2839283.449 9  -1827005.62145  24780933.302    24780933.2184   24780941.2224
        -0.000          -0.000
 97  3  3 22 22 30.0010000  0  7 26  2 27  4  9  7 24                0.001000018
   -617862.784 9   -469261.09346  23755492.468    23755492.5254   23755497.4254
        -0.000          -0.000
    385977.007 9    303818.35648  21859408.064    21859407.5174   21859412.7524
        -0.000          -0.000
  14437869.045 9  11251052.96346  23532395.626    23532395.3624   23532401.7064
        -0.000          -0.000
 -15404631.513 9 -11457335.01547  22312615.520    22312615.6184   22312620.7704
        -0.000          -0.000
 -13922448.952 9 -10837598.08246  23561795.545    23561795.3394   23561800.2784
        -0.000          -0.000
  -3403597.947 9  -2633824.65549  20868340.573    20868339.9194   20868345.0664
        -0.000          -0.000
  -2947651.495 9  -1911448.14645  24760311.477    24760311.5324   24760319.4334
        -0.000          -0.000
 97  3  3 22 23  0.0010000  0  7 26  2 27  4  9  7 24                0.001000053
   -564657.676 9   -427802.57646  23765616.996    23765617.1254   23765622.2284
        -0.000          -0.000
    412348.961 9    324367.92748  21864426.517    21864425.9234   21864431.1634
        -0.000          -0.000
  14548040.794 9  11336901.01746  23553360.526    23553360.2684   23553366.7344
        -0.000          -0.000
 -15491114.779 9 -11524724.53147  22296158.198    22296158.3404   22296163.4384
        -0.000          -0.000
 -14011509.787 9 -10906996.10346  23544847.721    23544847.5124   23544852.6304
        -0.000          -0.000
  -3367884.047 9  -2605995.63849  20875136.726    20875136.0844   20875141.2354
        -0.000          -0.000
  -3056083.044 9  -1995940.19745  24739677.662    24739677.7184   24739685.5854
        -0.000          -0.000
 97  3  3 22 23 30.0010000  0  7 26  2 27  4  9  7 24                0.001000081
   -511172.268 9   -386125.65046  23775795.128    23775795.1894   23775800.4264
        -0.000          -0.000
    438883.438 9    345044.14148  21869475.813    21869475.2674   21869480.4874
        -0.000          -0.000
  14658418.118 9  11422909.28846  23574364.709    23574364.4574   23574370.9084
        -0.000          -0.000
 -15577299.705 9 -11591881.57847  22279757.758    22279757.8954   22279762.9924
        -0.000          -0.000
 -14100353.178 9 -10976224.69446  23527941.418    23527941.1364   23527946.3024
        -0.000          -0.000
  -3331957.942 9  -2578001.27149  20881973.238    20881972.5714   20881977.7434
        -0.000          -0.000
  -3164601.240 9  -2080499.74545  24719027.251    24719027.2044   24719035.1714
        -0.000          -0.000
 97  3  3 22 24  0.0010000  0  7 26  2 27  4  9  7 24                0.001000082
   -457435.328 9   -344252.75346  23786021.025    23786021.0804   23786026.4374
        -0.000          -0.000
    465578.732 9    365845.66448  21874555.747    21874555.1914   21874560.3914
        -0.000          -0.000
  14768959.255 9  11509045.20746  23595400.071    23595399.7454   23595406.2014
        -0.000          -0.000
 -15663213.039 9 -11658826.98147  22263408.938    22263409.0934   22263414.2254
        -0.000          -0.000
 -14189000.510 9 -11045300.49846  23511072.410    23511072.0744   23511077.2654
        -0.000          -0.000
  -3295816.179 9  -2549838.85349  20888850.786    20888850.1204   20888855.2424
        -0.000          -0.000
  -3273217.356 9  -2165135.66745  24698358.269    24698358.1324   24698366.2114
        -0.000          -0.000
 97  3  3 22 24 30.0010000  0  7 26  2 27  4  9  7 24                0.001000090
   -403416.949 9   -302160.53446  23796300.318    23796300.3854   23796305.7754
        -0.000          -0.000
    492486.994 9    386813.13548  21879676.241    21879675.6664   21879680.8874
        -0.000          -0.000
  14879692.557 9  11595330.87545  23616472.001    23616471.6164   23616477.9614
        -0.000          -0.000
 -15748821.285 9 -11725534.66547  22247118.211    22247118.3514   22247123.5104
        -0.000          -0.000
 -14277407.560 9 -11114189.07546  23494249.060    23494248.7504   23494253.9504
        -0.000          -0.000
  -3259401.049 9  -2521463.42349  20895780.362    20895779.7034   20895784.8094
        -0.000          -0.000
  -3381854.368 9  -2249787.80645  24677685.312    24677685.1444   24677693.1484
        -0.000          -0.000
 97  3  3 22 25  0.0010000  0  7 26  2 27  4  9  7 24                0.001000081
   -349134.246 9   -259862.33646  23806629.879    23806630.0334   23806635.3994
        -0.000          -0.000
    519600.905 9    407940.85248  21884835.893    21884835.2944   21884840.5504
        -0.000          -0.000
  14990575.976 9  11681733.53646  23637572.532    23637572.1394   23637578.4274
        -0.000          -0.000
 -15834158.574 9 -11792031.19447  22230878.978    22230879.1534   22230884.3854
        -0.000          -0.000
 -14365602.735 9 -11182912.56046  23477466.068    23477465.6794   23477470.9494
        -0.000          -0.000
  -3222717.569 9  -2492878.89049  20902760.978    20902760.3204   20902765.4724
        -0.000          -0.000
  -3490529.391 9  -2334469.55245  24657005.121    24657004.9524   24657012.6824
        -0.000          -0.000
 97  3  3 22 25 30.0010000  0  7 26  2 27  4  9  7 24                0.001000072
   -294551.499 9   -217330.35346  23817016.668    23817016.8124   23817022.2094
        -0.000          -0.000
    546950.848 9    429252.49348  21890040.393    21890039.8014   21890045.0494
        -0.000          -0.000
  15101622.148 9  11768262.99046  23658703.988    23658703.5714   23658709.7784
        -0.000          -0.000
 -15919190.246 9 -11858289.59847  22214697.955    22214698.0854   22214703.2554
        -0.000          -0.000
 -14453543.261 9 -11251437.60946  23460731.386    23460731.0044   23460736.4144
        -0.000          -0.000
  -3185733.084 9  -2464059.80549  20909798.868    20909798.2284   20909803.3474
        -0.000          -0.000
  -3599198.114 9  -2419146.44745  24636326.053    24636325.8464   24636333.2354
        -0.000          -0.000
 97  3  3 22 26  0.0010000  0  7 26  2 27  4  9  7 24                0.001000070
   -239685.071 9   -174577.32146  23827457.411    23827457.5644   23827463.0584
        -0.000          -0.000
    574535.400 9    450746.95448  21895289.584    21895288.9974   21895294.1994
        -0.000          -0.000
  15212820.441 9  11854910.94946  23679864.328    23679863.9114   23679870.0774
        -0.000          -0.000
 -16003915.438 9 -11924309.17147  22198575.263    22198575.4264   22198580.5304
        -0.000          -0.000
 -14541231.982 9 -11319766.42746  23444044.614    23444044.2964   23444049.8524
        -0.000          -0.000
  -3148472.428 9  -2435025.52149  20916889.309    20916888.6694   20916893.7804
        -0.000          -0.000
  -3707854.458 9  -2503813.66045  24615649.359    24615649.1514   24615656.8764
        -0.000          -0.000
 97  3  3 22 26 30.0010000  0  7 26  2 27  4  9  7 24                0.001000068
   -184560.240 9   -131622.91746  23837947.463    23837947.5734   23837953.0864
        -0.000          -0.000
    602323.164 9    472399.75648  21900577.329    21900576.7564   21900581.9944
        -0.000          -0.000
  15324163.486 9  11941671.70646  23701052.182    23701051.8034   23701057.9744
        -0.000          -0.000
 -16088357.778 9 -11990108.35447  22182506.413    22182506.5704   22182511.6814
        -0.000          -0.000
 -14628691.856 9 -11387916.93746  23427401.520    23427401.2074   23427406.8144
        -0.000          -0.000
  -3110975.907 9  -2405807.45149  20924024.673    20924024.0204   20924029.1054
        -0.000          -0.000
  -3816524.794 9  -2588491.76345  24594969.859    24594969.6974   24594977.6074
        -0.000          -0.000
 97  3  3 22 27  0.0010000  0  7 26  2 27  4  9  7 24                0.001000059
   -129182.951 9    -88471.81646  23848485.295    23848485.4274   23848491.0974
        -0.000          -0.000
    630300.831 9    494200.52948  21905901.269    21905900.6714   21905905.9944
        -0.000          -0.000
  15435659.125 9  12028551.35546  23722269.012    23722268.6054   23722274.9784
        -0.000          -0.000
 -16172514.805 9 -12055685.21947  22166491.792    22166491.9474   22166497.1164
        -0.000          -0.000
 -14715931.763 9 -11455896.05346  23410800.215    23410799.9804   23410805.5604
        -0.000          -0.000
  -3073240.941 9  -2376403.58349  20931205.376    20931204.7094   20931209.7654
        -0.000          -0.000
  -3925218.375 9  -2673188.00445  24574285.959    24574285.9074   24574293.8634
        -0.000          -0.000
 97  3  3 22 27 30.0010000  0  7 26  2 27  4  9  7 24                0.001000049
    -73559.415 9    -45128.82546  23859069.895    23859070.0604   23859075.8944
        -0.000          -0.000
    658475.260 9    516154.62848  21911262.723    21911262.1294   21911267.4574
        -0.000          -0.000
  15547338.598 9  12115574.28146  23743520.933    23743520.5934   23743526.9064
        -0.000          -0.000
 -16256357.867 9 -12121017.44047  22150536.966    22150537.1224   22150542.2794
        -0.000          -0.000
 -14802950.868 9 -11523703.11346  23394241.009    23394240.7444   23394246.3174
        -0.000          -0.000
  -3035256.521 9  -2346805.33549  20938433.558    20938432.8754   20938437.9444
        -0.000          -0.000
  -4033919.328 9  -2757890.01545  24553600.819    24553600.5574   24553608.4974
        -0.000          -0.000
 97  3  3 22 28  0.0010000  0  7 26  2 27  4  9  7 24                0.001000023
    -17687.467 9     -1592.26346  23869701.913    23869702.0694   23869708.0014
        -0.000          -0.000
    686855.201 9    538268.85848  21916663.225    21916662.6504   21916667.9604
        -0.000          -0.000
  15659215.862 9  12202751.33646  23764810.652    23764810.2644   23764816.5034
        -0.000          -0.000
 -16339871.605 9 -12186093.03047  22134644.818    22134644.9554   22134650.1104
        -0.000          -0.000
 -14889765.341 9 -11591350.72346  23377720.592    23377720.3714   23377725.9764
        -0.000          -0.000
  -2997007.964 9  -2317001.26949  20945711.952    20945711.2664   20945716.3734
        -0.000          -0.000
  -4142629.061 9  -2842598.78145  24532913.948    24532913.7884   24532921.8544
        -0.000          -0.000
 97  3  3 22 28 30.0010000  0  7 26  2 27  4  9  7 24                0.000999997
     38482.458 9     42176.49046  23880390.653    23880390.8104   23880396.6334
        -0.000          -0.000
    715465.301 9    560562.43848  21922107.554    21922106.9914   21922112.2414
        -0.000          -0.000
  15771335.199 9  12290117.04546  23786146.385    23786145.9834   23786152.1194
        -0.000          -0.000
 -16423002.159 9 -12250870.03747  22118825.598    22118825.7454   22118830.8384
        -0.000          -0.000
 -14976323.800 9 -11658798.83847  23361248.997    23361248.8344   23361254.3774
        -0.000          -0.000
  -2958434.518 9  -2286944.04249  20953052.194    20953051.5244   20953056.6454
        -0.000          -0.000
  -4251307.230 8  -2927283.00445  24512233.178    24512233.1144   24512240.9604
        -0.000          -0.000
 97  3  3 22 29  0.0010000  0  7 26  2 27  4  9  7 24                0.000999976
     94969.697 9     86192.50646  23891139.792    23891139.9484   23891145.8224
        -0.000          -0.000
    744327.479 9    583052.44648  21927599.870    21927599.2894   21927604.5274
        -0.000          -0.000
  15883703.501 9  12377676.73846  23807529.483    23807529.1414   23807535.1734
        -0.000          -0.000
 -16505703.423 9 -12315312.52747  22103088.051    22103088.1814   22103093.2984
        -0.000          -0.000
 -15062598.892 9 -11726026.14947  23344831.446    23344831.2704   23344836.7614
        -0.000          -0.000
  -2919523.993 9  -2256624.15849  20960456.624    20960455.9684   20960461.1004
        -0.000          -0.000
  -4359921.272 8  -3011917.21545  24491564.419    24491564.2734   24491572.3234
        -0.000          -0.000
 97  3  3 22 29 30.0010000  0  7 26  2 27  4  9  7 24                0.000999964
    151780.353 9    130460.53346  23901950.434    23901950.5644   23901956.6274
        -0.000          -0.000
    773456.699 9    605750.53448  21933143.021    21933142.4214   21933147.6754
        -0.000          -0.000
  15996319.345 9  12465429.33146  23828959.565    23828959.1944   23828965.2114
        -0.000          -0.000
 -16587947.581 9 -12379398.85047  22087437.438    22087437.5654   22087442.6564
        -0.000          -0.000
 -15148570.801 9 -11793017.21347  23328471.527    23328471.3664   23328476.7914
        -0.000          -0.000
  -2880280.848 9  -2226045.08949  20967924.401    20967923.7384   20967928.8654
        -0.000          -0.000
  -4468457.986 8  -3096491.19145  24470910.452    24470910.3524   24470918.3374
        -0.000          -0.000
 97  3  3 22 30  0.0010000  0  7 26  2 27  4  9  7 24                0.000999954
    208896.053 9    174966.23746  23912819.122    23912819.2404   23912825.4824
        -0.000          -0.000
    802827.452 9    628636.83348  21938732.119    21938731.5124   21938736.7704
        -0.000          -0.000
  16109142.038 9  12553343.07946  23850428.980    23850428.6424   23850434.6274
        -0.000          -0.000
 -16669755.262 9 -12443145.05347  22071869.873    22071870.0034   22071875.1294
        -0.000          -0.000
 -15234240.266 9 -11859772.61147  23312169.169    23312169.0714   23312174.4004
        -0.000          -0.000
  -2840741.393 9  -2195235.12149  20975448.546    20975447.8894   20975453.0124
        -0.000          -0.000
  -4576931.903 8  -3181016.22545  24450268.651    24450268.3924   24450276.2944
        -0.000          -0.000
 97  3  3 22 30 30.0010000  0  7 26  2 27  4  9  7 24                0.000999957
    266294.081 9    219691.96546  23923741.609    23923741.7394   23923748.0344
        -0.000          -0.000
    832424.764 9    651699.66948  21944364.341    21944363.7534   21944368.9904
        -0.000          -0.000
  16222153.432 9  12641403.83146  23871934.229    23871933.9234   23871939.9774
        -0.000          -0.000
 -16751143.459 9 -12506564.39047  22056382.199    22056382.3544   22056387.4504
        -0.000          -0.000
 -15319597.934 9 -11926285.04847  23295926.302    23295926.1464   23295931.3504
        -0.000          -0.000
  -2800939.512 9  -2164220.66949  20983022.582    20983021.9264   20983027.0254
        -0.000          -0.000
  -4685345.236 8  -3265494.05845  24429638.296    24429638.0334   24429645.8734
        -0.000          -0.000
 97  3  3 22 31  0.0010000  0  7 26  2 27  4  9  7 24                0.000999962
    323942.952 9    264613.13946  23934711.668    23934711.8244   23934718.2784
        -0.000          -0.000
    862232.821 9    674926.72148  21950036.634    21950036.0164   21950041.2624
        -0.000          -0.000
  16335321.216 9  12729586.45846  23893469.294    23893469.0164   23893475.2234
        -0.000          -0.000
 -16832148.946 9 -12569685.51047  22040967.364    22040967.5064   22040972.5274
        -0.000          -0.000
 -15404673.091 9 -11992577.33047  23279737.087    23279736.9244   23279742.0394
        -0.000          -0.000
  -2760912.661 9  -2133030.91149  20990639.482    20990638.8134   20990643.8574
        -0.000          -0.000
  -4793718.198 8  -3349940.42045  24409015.670    24409015.5604   24409023.3904
        -0.000          -0.000
 97  3  3 22 31 30.0010000  0  7 26  2 27  4  9  7 24                0.000999982
    381839.648 9    309727.42846  23945728.839    23945728.9674   23945735.5594
        -0.000          -0.000
    892260.685 9    698325.05148  21955750.691    21955750.0914   21955755.4054
        -0.000          -0.000
  16448653.980 9  12817897.64546  23915035.783    23915035.3464   23915041.8604
        -0.000          -0.000
 -16912792.350 9 -12632524.48147  22025621.379    22025621.5004   22025626.4714
        -0.000          -0.000
 -15489460.126 9 -12058645.12447  23263602.744    23263602.5734   23263607.5044
        -0.000          -0.000
  -2720651.751 9  -2101658.77349  20998300.912    20998300.2594   20998305.2484
        -0.000          -0.000
  -4902069.846 8  -3434370.18445  24388396.894    24388396.8044   24388404.6964
        -0.000          -0.000
 97  3  3 22 32  0.0010000  0  7 26  2 27  4  9  7 24                0.000999997
    439936.557 9    354997.73046  23956784.267    23956784.4624   23956790.8344
        -0.000          -0.000
    922467.814 9    721863.07048  21961498.902    21961498.2814   21961503.6274
        -0.000          -0.000
  16562111.465 9  12906306.03746  23936626.113    23936625.7184   23936632.2024
        -0.000          -0.000
 -16993134.715 9 -12695128.87847  22010332.588    22010332.7644   22010337.7494
        -0.000          -0.000
 -15574006.913 9 -12124525.70247  23247514.217    23247513.9114   23247518.7604
        -0.000          -0.000
  -2680190.865 9  -2070130.80649  21006000.419    21005999.7494   21006004.7274
        -0.000          -0.000
  -5010439.520 9  -3518814.00545  24367774.758    24367774.6314   24367782.5634
        -0.000          -0.000
 97  3  3 22 32 30.0010000  0  7 26  2 27  4  9  7 24                0.001000011
    498245.188 9    400432.99246  23967880.141    23967880.3314   23967886.3354
        -0.000          -0.000
    952868.572 9    745551.97148  21967283.956    21967283.3464   21967288.6814
        -0.000          -0.000
  16675707.904 9  12994822.70046  23958242.871    23958242.5644   23958248.9084
        -0.000          -0.000
 -17073167.006 9 -12757491.66148  21995102.958    21995103.1174   21995108.1094
        -0.000          -0.000
 -15658308.588 9 -12190215.28947  23231472.061    23231471.7664   23231476.5834
        -0.000          -0.000
  -2639513.641 9  -2038434.27049  21013741.049    21013740.3704   21013745.3744
        -0.000          -0.000
  -5118812.103 8  -3603260.12045  24347152.078    24347152.0074   24347159.7384
        -0.000          -0.000
 97  3  3 22 33  0.0010000  0  7 26  2 27  4  9  7 24                0.001000018
    556769.230 9    446036.13846  23979017.069    23979017.2514   23979022.9324
        -0.000          -0.000
    983475.105 9    769401.21148  21973108.173    21973107.5744   21973112.8844
        -0.000          -0.000
  16789437.966 9  13083443.49646  23979885.132    23979884.8514   23979891.0184
        -0.000          -0.000
 -17152883.657 9 -12819608.49348  21979933.406    21979933.5694   21979938.5184
        -0.000          -0.000
 -15742363.194 9 -12255712.35547  23215476.937    23215476.6304   23215481.4604
        -0.000          -0.000
  -2598603.809 9  -2006556.47849  21021525.888    21021525.2014   21021530.2154
        -0.000          -0.000
  -5227197.910 9  -3687716.48145  24326526.822    24326526.7264   24326534.3964
        -0.000          -0.000
 97  3  3 22 33 30.0010000  0  7 26  2 27  4  9  7 24                0.001000033
    615528.328 9    491822.42546  23990198.600    23990198.8314   23990204.2784
        -0.000          -0.000
   1014325.500 9    793440.47448  21978978.848    21978978.2604   21978983.5084
        -0.000          -0.000
  16903330.297 9  13172190.73846  24001558.210    24001557.9064   24001563.9494
        -0.000          -0.000
 -17232248.543 9 -12881451.22848  21964830.793    21964830.9244   21964835.8444
        -0.000          -0.000
 -15826143.970 9 -12320996.04947  23199533.876    23199533.5774   23199538.3874
        -0.000          -0.000
  -2557419.628 9  -1974464.90449  21029362.956    21029362.2864   21029367.3114
        -0.000          -0.000
  -5335563.899 9  -3772157.47845  24305905.497    24305905.2434   24305912.8494
        -0.000          -0.000
 97  3  3 22 34  0.0010000  0  7 26  2 27  4  9  7 24                0.001000047
    674520.502 9    537790.33546  24001424.662    24001424.8194   24001430.1464
        -0.000          -0.000
   1045402.706 9    817656.47348  21984892.705    21984892.0964   21984897.2934
        -0.000          -0.000
  17017368.801 8  13261051.89645  24023259.056    24023258.7344   24023264.8244
        -0.000          -0.000
 -17311257.238 9 -12943016.40648  21949795.858    21949796.0024   21949800.8864
        -0.000          -0.000
 -15909650.898 9 -12386066.34947  23183642.895    23183642.6384   23183647.5364
        -0.000          -0.000
  -2515964.758 9  -1942162.40849  21037251.527    21037250.8644   21037255.9104
        -0.000          -0.000
  -5443884.878 9  -3856563.33846  24285292.719    24285292.4724   24285300.3024
        -0.000          -0.000
 97  3  3 22 34 30.0010000  0  7 26  2 27  4  9  7 24                0.001000054
    733751.833 9    583944.60146  24012696.210    24012696.3564   24012701.5754
        -0.000          -0.000
   1076708.089 9    842050.26348  21990849.930    21990849.3024   21990854.4884
        -0.000          -0.000
  17131549.903 8  13350024.12645  24044986.916    24044986.6234   24044992.9044
        -0.000          -0.000
 -17389884.555 9 -13004284.41348  21934833.488    21934833.6814   21934838.5574
        -0.000          -0.000
 -15992866.714 9 -12450909.82447  23167807.353    23167807.1714   23167812.0874
        -0.000          -0.000
  -2474240.156 9  -1909649.73649  21045191.441    21045190.7684   21045195.8574
        -0.000          -0.000
  -5552159.554 9  -3940933.14946  24264688.683    24264688.4554   24264696.2794
        -0.000          -0.000
 97  3  3 22 35  0.0010000  0  7 26  2 27  4  9  7 24                0.001000060
    793235.365 9    630295.41446  24024015.671    24024015.7804   24024020.9264
        -0.000          -0.000
   1108260.971 9    866636.91548  21996854.192    21996853.5954   21996858.7884
        -0.000          -0.000
  17245889.288 8  13439119.71145  24066744.958    24066744.5694   24066751.0004
        -0.000          -0.000
 -17468102.150 9 -13065233.15148  21919949.170    21919949.3554   21919954.1954
        -0.000          -0.000
 -16075768.340 9 -12515508.46647  23152031.746    23152031.5424   23152036.3854
        -0.000          -0.000
  -2432221.442 9  -1876907.87949  21053187.344    21053186.6824   21053191.7254
        -0.000          -0.000
  -5660370.554 9  -4025253.34046  24244096.631    24244096.5114   24244104.4524
        -0.000          -0.000
 97  3  3 22 35 30.0010000  0  7 26  2 27  4  9  7 24                0.001000057
    852960.809 9    676834.68146  24035381.007    24035381.1024   24035386.3464
        -0.000          -0.000
   1140035.880 9    891396.57648  22002900.775    22002900.1894   22002905.3194
        -0.000          -0.000
  17360373.495 9  13528328.14045  24088530.531    24088530.2174   24088536.6274
        -0.000          -0.000
 -17545914.060 9 -13125865.77348  21905142.050    21905142.1964   21905147.1364
        -0.000          -0.000
 -16158373.833 9 -12579876.35847  23136312.475    23136312.2444   23136316.9704
        -0.000          -0.000
  -2389940.785 9  -1843961.90749  21061233.140    21061232.4424   21061237.4774
        -0.000          -0.000
  -5768502.571 9  -4109511.97546  24223519.815    24223519.6664   24223527.5674
        -0.000          -0.000
 97  3  3 22 36  0.0010000  0  7 26  2 27  4  9  7 24                0.001000053
    912951.929 9    723581.00546  24046797.041    24046797.1694   24046802.3354
        -0.000          -0.000
   1172052.246 9    916344.38748  22008993.300    22008992.7014   22008997.8224
        -0.000          -0.000
  17475018.618 9  13617661.94746  24110346.794    24110346.6044   24110352.9134
        -0.000          -0.000
 -17623283.745 9 -13186153.80948  21890419.037    21890419.1784   21890424.1104
        -0.000          -0.000
 -16240658.948 9 -12643994.60847  23120654.224    23120654.0344   23120658.5534
        -0.000          -0.000
  -2347404.232 9  -1810816.53549  21069327.584    21069326.9184   21069331.9074
        -0.000          -0.000
  -5876526.954 9  -4193686.75646  24202963.487    24202963.3284   24202970.9884
        -0.000          -0.000
 97  3  3 22 36 30.0010000  0  7 26  2 27  4  9  7 24                0.001000042
    973184.427 9    770515.42446  24058259.050    24058259.1144   24058264.2994
        -0.000          -0.000
   1204309.023 9    941479.52948  22015131.529    22015130.9624   22015136.1224
        -0.000          -0.000
  17589819.689 9  13707117.28546  24132192.890    24132192.5914   24132199.0294
        -0.000          -0.000
 -17700208.986 9 -13246095.51848  21875780.627    21875780.7824   21875785.6784
        -0.000          -0.000
 -16322642.108 9 -12707877.56447  23105053.364    23105053.1344   23105057.6784
        -0.000          -0.000
  -2304641.932 9  -1777495.25649  21077465.001    21077464.3254   21077469.3064
        -0.000          -0.000
  -5984465.616 9  -4277794.73145  24182423.396    24182423.2374   24182430.5844
        -0.000          -0.000
 97  3  3 22 37  0.0010000  0  7 26  2 27  4  9  7 24                0.001000035
   1033669.600 9    817646.71346  24069769.005    24069769.1364   24069774.3064
        -0.000          -0.000
   1236830.159 9    966820.66048  22021320.049    22021319.4884   22021324.7654
        -0.000          -0.000
  17704788.761 9  13796703.52746  24154070.857    24154070.6254   24154076.8714
        -0.000          -0.000
 -17776689.290 9 -13305690.53648  21861226.938    21861227.0584   21861231.8964
        -0.000          -0.000
 -16404324.430 9 -12771526.10947  23089509.804    23089509.5654   23089514.1004
        -0.000          -0.000
  -2261657.570 9  -1744000.95049  21085644.621    21085643.9424   21085648.9544
        -0.000          -0.000
  -6092307.101 9  -4361826.97045  24161901.794    24161901.6244   24161908.7574
        -0.000          -0.000
 97  3  3 22 37 30.0010000  0  7 26  2 27  4  9  7 24                0.001000018
   1094374.841 9    864949.46946  24081321.018    24081321.1094   24081326.2564
        -0.000          -0.000
   1269583.356 9    992342.62248  22027552.757    22027552.2034   22027557.5654
        -0.000          -0.000
  17819895.685 9  13886397.20146  24175975.013    24175974.7114   24175980.9274
        -0.000          -0.000
 -17852756.740 9 -13364963.82448  21846751.683    21846751.8384   21846756.7464
        -0.000          -0.000
 -16485733.270 9 -12834961.54047  23074018.373    23074018.0604   23074022.6304
        -0.000          -0.000
  -2218490.458 9  -1710364.23549  21093859.059    21093858.3864   21093863.4144
        -0.000          -0.000
  -6200083.126 9  -4445808.21245  24141392.591    24141392.3824   24141399.6934
        -0.000          -0.000
 97  3  3 22 38  0.0010000  0  7 26  2 27  4  9  7 24                0.000999991
   1155283.131 9    912410.46346  24092911.579    24092911.6044   24092916.6764
        -0.000          -0.000
   1302566.027 9   1018043.39648  22033829.206    22033828.6084   22033833.9784
        -0.000          -0.000
  17935136.203 9  13976194.93846  24197904.555    24197904.3394   24197910.5274
        -0.000          -0.000
 -17928430.321 9 -13423930.21948  21832351.473    21832351.6274   21832356.5604
        -0.000          -0.000
 -16566872.431 9 -12898186.84147  23058578.176    23058577.8384   23058582.4404
        -0.000          -0.000
  -2175127.055 9  -1676574.56748  21102110.812    21102110.1434   21102115.1694
        -0.000          -0.000
  -6307829.316 9  -4529766.19145  24120889.037    24120888.7574   24120896.2404
        -0.000          -0.000
 97  3  3 22 38 30.0010000  0  7 26  2 27  4  9  7 24                0.000999963
   1216402.667 9    960036.06746  24104542.219    24104542.2334   24104547.3944
        -0.000          -0.000
   1335774.685 9   1043920.27748  22040148.665    22040148.0634   22040153.4044
        -0.000          -0.000
  18050504.905 9  14066092.57145  24219858.486    24219858.1124   24219864.5444
        -0.000          -0.000
 -18003728.146 9 -13482603.82448  21818022.773    21818022.9174   21818027.8524
        -0.000          -0.000
 -16647722.846 9 -12961187.13447  23043192.839    23043192.5004   23043197.0574
        -0.000          -0.000
  -2131547.537 9  -1642616.50348  21110403.711    21110403.0724   21110408.0864
        -0.000          -0.000
  -6415556.257 9  -4613709.21945  24100389.246    24100388.9684   24100396.4914
        -0.000          -0.000
 97  3  3 22 39  0.0010000  0  7 26  2 27  4  9  7 24                0.000999944
   1277736.870 9   1007828.94646  24116213.663    24116213.7734   24116218.9294
        -0.000          -0.000
   1369207.737 9   1069972.00348  22046510.706    22046510.1194   22046515.4064
        -0.000          -0.000
  18165995.918 8  14156085.52045  24241835.641    24241835.3164   24241841.6534
        -0.000          -0.000
 -18078659.663 9 -13540991.99248  21803763.734    21803763.8984   21803768.8074
        -0.000          -0.000
 -16728270.779 9 -13023951.74547  23027864.980    23027864.7324   23027869.2924
        -0.000          -0.000
  -2087731.144 9  -1608473.86648  21118741.691    21118741.0204   21118746.0564
        -0.000          -0.000
  -6523253.929 9  -4697629.38545  24079894.993    24079894.7154   24079902.1864
        -0.000          -0.000
 97  3  3 22 39 30.0010000  0  7 26  2 27  4  9  7 24                0.000999931
   1339290.405 9   1055792.70146  24127926.739    24127926.9044   24127932.1924
        -0.000          -0.000
   1402853.759 9   1096189.67448  22052913.285    22052912.6964   22052917.9934
        -0.000          -0.000
  18281618.152 8  14246180.71745  24263837.844    24263837.4454   24263844.0084
        -0.000          -0.000
 -18153200.738 9 -13599075.91748  21789579.032    21789579.1984   21789584.0864
        -0.000          -0.000
 -16808492.014 9 -13086461.78447  23012599.317    23012599.0994   23012603.6344
        -0.000          -0.000
  -2043651.910 9  -1574126.41648  21127129.746    21127129.0734   21127134.1074
        -0.000          -0.000
  -6630905.759 9  -4781513.86745  24059409.592    24059409.3374   24059416.5254
        -0.000          -0.000
 97  3  3 22 40  0.0010000  0  7 26  2 27  4  9  7 24                0.000999927
   1401073.246 9   1103935.15746  24139683.627    24139683.6854   24139689.0114
        -0.000          -0.000
   1436725.985 9   1122583.60748  22059358.933    22059358.3644   22059363.6244
        -0.000          -0.000
  18397375.167 8  14336380.92845  24285865.566    24285865.2164   24285871.9064
        -0.000          -0.000
 -18227334.159 9 -13656842.18348  21775471.926    21775472.1044   21775476.9394
        -0.000          -0.000
 -16888376.819 9 -13148709.65547  22997397.710    22997397.4734   22997402.0284
        -0.000          -0.000
  -1999304.255 9  -1539569.80548  21135568.880    21135568.1914   21135573.1764
        -0.000          -0.000
  -6738499.122 9  -4865352.75445  24038935.149    24038934.8824   24038942.0754
        -0.000          -0.000
 97  3  3 22 40 30.0010000  0  7 26  2 27  4  9  7 24                0.000999927
   1463079.651 9   1152251.83046  24151483.008    24151483.0964   24151488.3614
        -0.000          -0.000
   1470829.217 9   1149157.54048  22065848.612    22065848.0314   22065853.2874
        -0.000          -0.000
  18513258.481 8  14426679.55745  24307917.283    24307916.9684   24307923.7484
        -0.000          -0.000
 -18301044.269 9 -13714278.60448  21761445.360    21761445.5454   21761450.3184
        -0.000          -0.000
 -16967922.631 9 -13210693.38147  22982260.591    22982260.3334   22982264.9324
        -0.000          -0.000
  -1954704.351 9  -1504816.64048  21144056.001    21144055.3054   21144060.3134
        -0.000          -0.000
  -6846021.945 9  -4949136.70045  24018474.051    24018473.8774   24018480.9474
        -0.000          -0.000
 97  3  3 22 41  0.0010000  0  7 26  2 27  4  9  7 24                0.000999926
   1525302.720 9   1200737.30146  24163323.738    24163323.7794   24163329.1914
        -0.000          -0.000
   1505176.135 9   1175921.36448  22072384.705    22072384.1164   22072389.2914
        -0.000          -0.000
  18629286.159 8  14517090.68945  24329996.720    24329996.3044   24330003.2704
        -0.000          -0.000
 -18374297.422 9 -13771358.95748  21747505.691    21747505.8654   21747510.6564
        -0.000          -0.000
 -17047130.502 9 -13272413.77947  22967187.758    22967187.5474   22967192.1404
        -0.000          -0.000
  -1909841.203 9  -1469858.34748  21152593.182    21152592.4854   21152597.5014
        -0.000          -0.000
  -6953443.606 9  -5032841.79645  23998032.313    23998032.1194   23998039.2984
        -0.000          -0.000
 97  3  3 22 41 30.0010000  0  7 26  2 27  4  9  7 24                0.000999924
   1587750.904 9   1249398.20846  24175207.335    24175207.2924   24175212.8164
        -0.000          -0.000
   1539780.843 9   1202886.05648  22078969.836    22078969.2184   22078974.3674
        -0.000          -0.000
  18745460.716 9  14607616.29845  24352104.189    24352103.7794   24352110.5554
        -0.000          -0.000
 -18447071.601 9 -13828066.08748  21733657.185    21733657.3724   21733662.1154
        -0.000          -0.000
 -17125989.870 9 -13333862.60747  22952181.271    22952181.0864   22952185.6434
        -0.000          -0.000
  -1864714.204 9  -1434694.46048  21161180.546    21161179.8504   21161184.9004
        -0.000          -0.000
  -7060756.649 9  -5116462.28245  23977611.293    23977611.0764   23977618.2104
        -0.000          -0.000
 97  3  3 22 42  0.0010000  0  7 26  2 27  4  9  7 24                0.000999926
   1650397.198 9   1298213.45746  24187128.328    24187128.3094   24187134.0974
        -0.000          -0.000
   1574653.123 9   1230059.24148  22085605.747    22085605.1544   22085610.2974
        -0.000          -0.000
  18861765.028 9  14698243.02945  24374236.272    24374235.8574   24374242.6084
        -0.000          -0.000
 -18519392.418 9 -13884419.94548  21719894.982    21719895.1504   21719899.9434
        -0.000          -0.000
 -17204511.090 9 -13395047.95547  22937239.220    22937239.0204   22937243.4824
        -0.000          -0.000
  -1819342.560 9  -1399339.93748  21169814.453    21169813.7534   21169818.8114
        -0.000          -0.000
  -7167968.022 9  -5200003.52945  23957209.561    23957209.4294   23957216.6344
        -0.000          -0.000
 97  3  3 22 42 30.0010000  0  7 26  2 27  4  9  7 24                0.000999943
   1713241.549 9   1347183.07246  24199087.156    24199087.2104   24199092.9974
        -0.000          -0.000
   1609802.333 9   1257448.22748  22092294.429    22092293.8234   22092298.9824
        -0.000          -0.000
  18978206.196 9  14788976.37445  24396394.240    24396393.8484   24396400.7344
        -0.000          -0.000
 -18591250.582 9 -13940413.28948  21706220.765    21706220.9464   21706225.7724
        -0.000          -0.000
 -17282674.587 9 -13455954.55347  22922365.246    22922365.0174   22922369.4194
        -0.000          -0.000
  -1773722.194 9  -1363791.60348  21178495.656    21178495.0134   21178500.0394
        -0.000          -0.000
  -7275050.406 9  -5283444.28445  23936832.437    23936832.3364   23936839.4384
        -0.000          -0.000
 97  3  3 22 43  0.0010000  0  7 26  2 27  4  9  7 24                0.000999958
   1776259.174 9   1396287.68846  24211079.168    24211079.1394   24211084.7664
        -0.000          -0.000
   1645187.442 9   1285021.03148  22099027.969    22099027.3724   22099032.5764
        -0.000          -0.000
  19094752.820 9  14879791.88245  24418572.393    24418572.0344   24418579.0264
        -0.000          -0.000
 -18662673.074 9 -13996067.14648  21692629.499    21692629.6554   21692634.4784
        -0.000          -0.000
 -17360500.299 9 -13516597.94747  22907555.470    22907555.2504   22907559.6314
        -0.000          -0.000
  -1727886.877 9  -1328075.77248  21187217.860    21187217.1854   21187222.2384
        -0.000          -0.000
  -7382024.056 9  -5366800.29346  23916475.918    23916475.8484   23916482.9214
        -0.000          -0.000
 97  3  3 22 43 30.0010000  0  7 26  2 27  4  9  7 24                0.000999971
   1839450.477 9   1445527.62146  24223103.879    24223103.9144   24223109.5354
        -0.000          -0.000
   1680803.890 9   1312774.09948  22105805.587    22105805.0004   22105810.2594
        -0.000          -0.000
  19211389.458 9  14970677.52345  24440767.722    24440767.3394   24440774.0524
        -0.000          -0.000
 -18733679.977 9 -14051397.17048  21679117.291    21679117.4594   21679122.2524
        -0.000          -0.000
 -17437995.364 9 -13576983.68747  22892808.591    22892808.4084   22892812.7564
        -0.000          -0.000
  -1681861.791 9  -1292212.06848  21195976.128    21195975.4624   21195980.5084
        -0.000          -0.000
  -7488904.839 9  -5450083.95946  23896137.245    23896137.1394   23896144.0734
        -0.000          -0.000
 97  3  3 22 44  0.0010000  0  7 26  2 27  4  9  7 24                0.000999983
   1902809.421 9   1494898.20146  24235160.565    24235160.6274   24235166.2564
        -0.000          -0.000
   1716648.444 9   1340704.91148  22112626.579    22112625.9784   22112631.3454
        -0.000          -0.000
  19328119.377 9  15061635.82345  24462980.698    24462980.3114   24462987.0134
        -0.000          -0.000
 -18804272.757 9 -14106404.50448  21665683.936    21665684.0894   21665688.8464
        -0.000          -0.000
 -17515167.293 9 -13637117.62947  22878123.208    22878122.9754   22878127.4384
        -0.000          -0.000
  -1635651.147 9  -1256203.77348  21204769.726    21204769.0844   21204774.1254
        -0.000          -0.000
  -7595685.686 9  -5533289.73646  23875817.374    23875817.3064   23875824.3244
        -0.000          -0.000
 97  3  3 22 44 30.0010000  0  7 26  2 27  4  9  7 24                0.000999985
   1966353.148 9   1544412.77446  24247252.542    24247252.6254   24247258.3014
        -0.000          -0.000
   1752704.671 9   1368800.66548  22119487.845    22119487.2684   22119492.6824
        -0.000          -0.000
  19444939.255 9  15152664.25445  24485210.973    24485210.5214   24485217.0254
        -0.000          -0.000
 -18874443.090 9 -14161082.65248  21652330.933    21652331.0834   21652335.8804
        -0.000          -0.000
 -17592018.023 9 -13697001.28347  22863498.854    22863498.6694   22863503.1894
        -0.000          -0.000
  -1589255.036 9  -1220050.96048  21213598.563    21213597.9224   21213602.9514
        -0.000          -0.000
  -7702360.176 9  -5616412.66346  23855517.888    23855517.8394   23855524.8284
        -0.000          -0.000
 97  3  3 22 45  0.0010000  0  7 26  2 27  4  9  7 24                0.000999992
   2030097.076 9   1594083.34046  24259382.810    24259382.8584   24259388.4904
        -0.000          -0.000
   1788987.778 9   1397073.21448  22126392.319    22126391.7184   22126397.1854
        -0.000          -0.000
  19561867.713 9  15243777.30045  24507461.908    24507461.4964   24507467.5994
        -0.000          -0.000
 -18944183.030 9 -14215425.43848  21639059.798    21639059.9514   21639064.8114
        -0.000          -0.000
 -17668537.150 9 -13756626.55347  22848937.712    22848937.5604   22848942.1134
        -0.000          -0.000
  -1542652.374 9  -1183737.19348  21222466.776    21222466.1134   21222471.1484
        -0.000          -0.000
  -7808924.491 9  -5699449.72646  23835239.416    23835239.3274   23835246.3054
        -0.000          -0.000
 97  3  3 22 45 30.0010000  0  7 26  2 27  4  9  7 24                0.000999997
   2094009.154 9   1643884.92646  24271544.860    24271544.9104   24271550.7124
        -0.000          -0.000
   1825489.534 9   1425516.13348  22133338.312    22133337.7594   22133343.2784
        -0.000          -0.000
  19678885.780 9  15334960.16345  24529729.716    24529729.3414   24529735.3284
        -0.000          -0.000
 -19013518.873 9 -14269453.34248  21625865.562    21625865.7454   21625870.6104
        -0.000          -0.000
 -17744750.837 9 -13816013.83047  22834434.642    22834434.5304   22834439.0994
        -0.000          -0.000
  -1495858.490 9  -1147274.42448  21231371.339    21231370.6784   21231375.6824
        -0.000          -0.000
  -7915402.590 9  -5782419.62246  23814977.325    23814977.2144   23814984.2144
        -0.000          -0.000
 97  3  3 22 46  0.0010000  0  7 26  2 27  4  9  7 24                0.001000008
   2158080.062 9   1693810.25746  24283736.898    24283736.9794   24283743.1204
        -0.000          -0.000
   1862216.249 9   1454134.34848  22140327.217    22140326.6514   22140332.1254
        -0.000          -0.000
  19795997.979 8  15426216.39945  24552015.435    24552015.0734   24552021.2474
        -0.000          -0.000
 -19082443.840 9 -14323161.08048  21612749.610    21612749.7554   21612754.6004
        -0.000          -0.000
 -17820641.780 9 -13875149.60547  22819993.133    22819992.9384   22819997.5194
        -0.000          -0.000
  -1448866.931 9  -1110657.62448  21240313.521    21240312.8674   21240317.8564
        -0.000          -0.000
  -8021784.902 9  -5865314.86746  23794733.265    23794733.1694   23794740.3564
        -0.000          -0.000
 97  3  3 22 46 30.0010000  0  7 26  2 27  4  9  7 24                0.001000015
   2222287.281 9   1743841.86346  24295955.206    24295955.2604   24295961.5154
        -0.000          -0.000
   1899149.868 9   1482913.77848  22147355.452    22147354.8654   22147360.3554
        -0.000          -0.000
  19913185.627 8  15517531.36345  24574315.334    24574315.3254   24574321.1004
        -0.000          -0.000
 -19150966.904 9 -14376555.64948  21599710.149    21599710.2824   21599715.0544
        -0.000          -0.000
 -17896211.823 9 -13934035.32947  22805612.570    22805612.3344   22805616.9604
        -0.000          -0.000
  -1401696.576 9  -1073901.50548  21249289.751    21249289.0634   21249294.0404
        -0.000          -0.000
  -8128090.963 9  -5948150.70546  23774503.851    23774503.7834   23774510.8924
        -0.000          -0.000
 97  3  3 22 47  0.0010000  0  7 26  2 27  4  9  7 24                0.001000029
   2286640.252 9   1793987.00346  24308201.184    24308201.2424   24308207.5994
        -0.000          -0.000
   1936331.654 9   1511886.58748  22154430.974    22154430.3874   22154435.8344
        -0.000          -0.000
  20030471.839 8  15608923.17445  24596634.292    24596633.9354   24596640.2484
        -0.000          -0.000
 -19219044.328 9 -14429602.97148  21586755.426    21586755.5604   21586760.2984
        -0.000          -0.000
 -17971433.516 9 -13992649.61847  22791298.247    22791298.0334   22791302.7444
        -0.000          -0.000
  -1354332.992 9  -1036994.81248  21258302.705    21258302.0144   21258307.0004
        -0.000          -0.000
  -8234296.858 9  -6030908.47346  23754293.516    23754293.4154   23754300.5414
        -0.000          -0.000
 97  3  3 22 47 30.0010000  0  7 26  2 27  4  9  7 24                0.001000036
   2351129.076 9   1844237.98546  24320472.976    24320473.1964   24320479.3554
        -0.000          -0.000
   1973761.057 9   1541052.35248  22161553.677    22161553.0164   22161558.3534
        -0.000          -0.000
  20147844.133 8  15700382.06045  24618969.541    24618968.9134   24618975.4534
        -0.000          -0.000
 -19286667.063 9 -14482295.98948  21573887.232    21573887.3594   21573892.1344
        -0.000          -0.000
 -18046308.858 9 -14050994.02547  22777049.835    22777049.6474   22777054.4554
        -0.000          -0.000
  -1306780.415 9   -999940.85948  21267351.628    21267350.9494   21267355.9624
        -0.000          -0.000
  -8340404.378 9  -6113589.60446  23734101.807    23734101.7434   23734108.7464
        -0.000          -0.000
 97  3  3 22 48  0.0010000  0  7 26  2 27  4  9  7 24                0.001000030
   2415757.385 9   1894597.67446  24332771.438    24332771.6524   24332777.5434
        -0.000          -0.000
   2011428.954 9   1570403.94548  22168721.566    22168720.9344   22168726.2524
        -0.000          -0.000
  20265291.672 8  15791899.60045  24641319.120    24641318.4504   24641325.1674
        -0.000          -0.000
 -19353834.367 9 -14534634.12848  21561105.626    21561105.7874   21561110.5934
        -0.000          -0.000
 -18120834.031 9 -14109065.57247  22762868.060    22762867.9054   22762872.8544
        -0.000          -0.000
  -1259043.226 9   -962743.04648  21276435.763    21276435.0804   21276440.0484
        -0.000          -0.000
  -8446420.356 9  -6196199.38246  23713927.649    23713927.5694   23713934.5294
        -0.000          -0.000
 97  3  3 22 48 30.0010000  0  7 26  2 27  4  9  7 24                0.001000021
   2480567.786 9   1945099.28145  24345104.382    24345104.5454   24345110.4724
        -0.000          -0.000
   2049370.996 9   1599969.16048  22175941.704    22175941.1054   22175946.3984
        -0.000          -0.000
  20382839.997 8  15883495.67445  24663687.768    24663687.4554   24663694.0374
        -0.000          -0.000
 -19420498.383 9 -14586580.09448  21548419.882    21548420.0394   21548424.8454
        -0.000          -0.000
 -18194979.477 9 -14166841.22147  22748758.587    22748758.4024   22748763.4304
        -0.000          -0.000
  -1211081.508 9   -925370.27948  21285562.592    21285561.9124   21285566.9104
        -0.000          -0.000
  -8552314.497 9  -6278714.23446  23693776.675    23693776.5894   23693783.5064
        -0.000          -0.000
 97  3  3 22 49  0.0010000  0  7 26  2 27  4  9  7 24                0.001000013
   2545557.017 9   1995740.18545  24357471.400    24357471.5834   24357477.5334
        -0.000          -0.000
   2087592.438 9   1629752.09748  22183214.995    22183214.4104   22183219.7374
        -0.000          -0.000
  20500474.972 8  15975159.21645  24686072.774    24686072.6384   24686079.0844
        -0.000          -0.000
 -19486678.766 9 -14638149.19448  21535826.181    21535826.3384   21535831.0974
        -0.000          -0.000
 -18268759.804 9 -14224332.37347  22734718.604    22734718.4324   22734723.4074
        -0.000          -0.000
  -1162895.373 9   -887822.64648  21294732.104    21294731.4444   21294736.4464
        -0.000          -0.000
  -8658098.535 9  -6361143.28746  23673646.528    23673646.4164   23673653.3274
        -0.000          -0.000
 97  3  3 22 49 30.0010000  0  7 26  2 27  4  9  7 24                0.001000030
   2610736.913 9   2046529.67146  24369874.782    24369874.9964   24369881.0444
        -0.000          -0.000
   2126100.864 9   1659758.66048  22190542.893    22190542.2774   22190547.6414
        -0.000          -0.000
  20618209.525 8  16066900.35045  24708476.870    24708476.6884   24708483.5104
        -0.000          -0.000
 -19552378.498 9 -14689343.76548  21523323.903    21523324.0534   21523328.8184
        -0.000          -0.000
 -18342162.135 9 -14281528.96947  22720750.605    22720750.4524   22720755.3594
        -0.000          -0.000
  -1114458.275 9   -850079.45748  21303949.367    21303948.6934   21303953.7424
        -0.000          -0.000
  -8763764.395 9  -6443480.25546  23653538.935    23653538.7764   23653545.6484
        -0.000          -0.000
 97  3  3 22 50  0.0010000  0  7 26  2 27  4  9  7 24                0.001000042
   2676075.402 9   2097442.75246  24382308.513    24382308.7284   24382314.4824
        -0.000          -0.000
   2164866.683 9   1689965.77948  22197919.731    22197919.1214   22197924.5314
        -0.000          -0.000
  20736007.945 8  16158691.29245  24730893.468    24730893.0594   24730899.7624
        -0.000          -0.000
 -19617619.727 9 -14740181.06648  21510908.911    21510909.0484   21510913.7804
        -0.000          -0.000
 -18415212.769 9 -14338451.52247  22706849.518    22706849.3954   22706854.2364
        -0.000          -0.000
  -1065805.229 9   -812167.99148  21313207.697    21313207.0144   21313212.0894
        -0.000          -0.000
  -8869332.149 9  -6525740.77746  23633450.075    23633449.9034   23633456.7114
        -0.000          -0.000
 97  3  3 22 50 30.0010000  0  7 26  2 27  4  9  7 24                0.001000043
   2741569.989 9   2148477.47146  24394772.087    24394772.2314   24394777.6474
        -0.000          -0.000
   2203911.559 9   1720390.34648  22205349.640    22205349.0674   22205354.5294
        -0.000          -0.000
  20853877.523 8  16250537.67045  24753323.430    24753322.9614   24753329.8274
        -0.000          -0.000
 -19682367.751 9 -14790634.05248  21498587.757    21498587.8974   21498592.5784
        -0.000          -0.000
 -18487906.403 9 -14395095.89647  22693016.331    22693016.2624   22693021.1044
        -0.000          -0.000
  -1016926.854 9   -774080.94948  21322508.938    21322508.2654   21322513.3774
        -0.000          -0.000
  -8974765.546 9  -6607896.58646  23613386.562    23613386.3744   23613393.1614
        -0.000          -0.000
 97  3  3 22 51  0.0010000  0  6 26  2  4  9  7 24                   0.000999887
   2807267.822 9   2199670.56046  24407274.070    24407274.2254   24407279.4354
        -0.000          -0.000
   2243280.550 9   1751067.47848  22212841.350    22212840.8104   22212846.1674
        -0.000          -0.000
 -19746574.973 9 -14840665.62648  21486369.531    21486369.6664   21486374.3644
        -0.000          -0.000
 -18560187.997 9 -14451419.19047  22679261.689    22679261.5744   22679266.3754
        -0.000          -0.000
   -967778.615 9   -735783.62248  21331861.551    21331860.8904   21331865.9814
        -0.000          -0.000
  -9079996.477 9  -6689894.65146  23593361.629    23593361.4864   23593368.3174
        -0.000          -0.000
 97  3  3 22 51 30.0010000  0  6 26  2  4  9  7 24                   0.000999908
   2873140.710 9   2251000.03646  24419809.230    24419809.4474   24419814.6494
        -0.000          -0.000
   2282928.086 9   1781961.64248  22220386.099    22220385.5374   22220390.8594
        -0.000          -0.000
 -19810251.261 9 -14890283.48848  21474252.346    21474252.4644   21474257.1394
        -0.000          -0.000
 -18632078.882 9 -14507438.05047  22665581.329    22665581.1654   22665585.9614
        -0.000          -0.000
   -918406.504 9   -697311.85148  21341256.701    21341256.0464   21341261.1344
        -0.000          -0.000
  -9185032.117 9  -6771740.51646  23573373.898    23573373.7044   23573380.6674
        -0.000          -0.000
 97  3  3 22 52  0.0010000  0  6 26  2  4  9  7 24                   0.000999908
   2939145.893 9   2302432.62346  24432369.578    24432369.7324   24432375.1674
        -0.000          -0.000
   2322804.132 9   1813033.86748  22227974.305    22227973.7444   22227979.0464
        -0.000          -0.000
 -19873438.670 9 -14939520.40348  21462228.118    21462228.2694   21462232.9524
        -0.000          -0.000
 -18703617.357 9 -14563182.29447  22651967.967    22651967.8094   22651972.6094
        -0.000          -0.000
   -868871.671 9   -658713.28448  21350682.837    21350682.2104   21350687.3104
        -0.000          -0.000
  -9289902.772 9  -6853457.85546  23553417.634    23553417.4484   23553424.4374
        -0.000          -0.000
 97  3  3 22 52 30.0010000  0  6 26  2  4  9  7 24                   0.000999918
   3005301.777 9   2353982.62445  24444958.615    24444958.6184   24444964.2974
        -0.000          -0.000
   2362925.220 9   1844297.03348  22235609.071    22235608.4694   22235613.7924
        -0.000          -0.000
 -19936138.442 9 -14988377.34748  21450296.690    21450296.8294   21450301.5504
        -0.000          -0.000
 -18774780.507 9 -14618634.08547  22638426.055    22638425.8944   22638430.6934
        -0.000          -0.000
   -819166.950 9   -619982.33848  21360141.380    21360140.7324   21360145.8674
        -0.000          -0.000
  -9394586.876 9  -6935029.83446  23533497.009    23533496.8394   23533503.6284
        -0.000          -0.000
 97  3  3 22 53  0.0010000  0  6 26  2  4  9  7 24                   0.000999950
   3071591.467 9   2405636.91745  24457573.000    24457573.0144   24457578.7964
        -0.000          -0.000
   2403257.429 9   1875724.71648  22243284.021    22243283.4454   22243288.7714
        -0.000          -0.000
 -19998409.156 9 -15036899.95548  21438446.983    21438447.1624   21438451.8574
        -0.000          -0.000
 -18845581.999 9 -14673804.06447  22624952.978    22624952.7514   22624957.6464
        -0.000          -0.000
   -769324.484 9   -581144.05548  21369626.152    21369625.4664   21369630.5974
        -0.000          -0.000
  -9499120.381 9  -7016484.44446  23513604.945    23513604.6614   23513611.5094
        -0.000          -0.000
 97  3  3 22 53 30.0010000  0  6 26  2  4  9  7 24                   0.000999986
   3137972.714 9   2457362.55345  24470204.690    24470204.9694   24470210.9034
        -0.000          -0.000
   2443785.876 9   1907305.31048  22250996.420    22250995.8264   22251001.1444
        -0.000          -0.000
 -20060273.686 9 -15085106.05748  21426674.591    21426674.7324   21426679.3984
        -0.000          -0.000
 -18916047.240 9 -14728712.01547  22611543.812    22611543.5744   22611548.5404
        -0.000          -0.000
   -719373.463 9   -542221.18448  21379131.510    21379130.8464   21379136.0254
        -0.000          -0.000
  -9603532.424 9  -7097844.40946  23493736.003    23493735.7854   23493742.5164
        -0.000          -0.000
 97  3  3 22 54  0.0010000  0  6 26  2  4  9  7 24                   0.001000030
   3204413.424 9   2509134.49345  24482848.052    24482848.2864   24482854.2544
        -0.000          -0.000
   2484506.075 9   1939035.31648  22258745.190    22258744.6024   22258749.9944
        -0.000          -0.000
 -20121764.041 9 -15133020.59448  21414973.334    21414973.4824   21414978.1774
        -0.000          -0.000
 -18986195.562 9 -14783373.03447  22598194.960    22598194.7754   22598199.8104
        -0.000          -0.000
   -669329.688 9   -503226.03748  21388654.514    21388653.8534   21388659.0244
        -0.000          -0.000
  -9707854.689 9  -7179134.42746  23473883.966    23473883.6794   23473890.5304
        -0.000          -0.000
 97  3  3 22 54 30.0010000  0  6 26  2  4  9  7 24                   0.001000063
   3270912.216 9   2560951.68345  24495502.519    24495502.6474   24495508.5274
        -0.000          -0.000
   2525416.556 9   1970913.60348  22266530.254    22266529.6724   22266535.0644
        -0.000          -0.000
 -20182865.451 9 -15180632.06448  21403346.060    21403346.2124   21403350.9374
        -0.000          -0.000
 -19056028.118 9 -14837787.99747  22584906.232    22584906.0654   22584911.1374
        -0.000          -0.000
   -619185.907 9   -464152.96348  21398196.541    21398195.8874   21398201.0504
        -0.000          -0.000
  -9812094.521 9  -7260360.21246  23454047.581    23454047.4114   23454054.2034
        -0.000          -0.000
 97  3  3 22 55  0.0010000  0  6 26  2  4  9  7 24                   0.001000073
   3337498.781 9   2612837.26545  24508173.476    24508173.4954   24508179.4994
        -0.000          -0.000
   2566548.979 9   2002964.82048  22274357.480    22274356.8844   22274362.2794
        -0.000          -0.000
 -20243522.007 9 -15227896.89548  21391803.481    21391803.6524   21391808.3114
        -0.000          -0.000
 -19125514.598 9 -14891933.28947  22571683.395    22571683.1694   22571688.2974
        -0.000          -0.000
   -568895.759 9   -424965.83348  21407766.438    21407765.7824   21407770.8804
        -0.000          -0.000
  -9916231.638 9  -7341505.97046  23434230.900    23434230.7914   23434237.6324
        -0.000          -0.000
 97  3  3 22 55 30.0010000  0  6 26  2  4  9  7 24                   0.001000052
   3404207.445 9   2664818.04445  24520867.862    24520868.0054   24520873.6484
        -0.000          -0.000
   2607943.718 9   2035220.45048  22282234.590    22282233.9814   22282239.3484
        -0.000          -0.000
 -20303658.459 9 -15274756.43548  21380359.882    21380360.0754   21380364.7294
        -0.000          -0.000
 -19194610.881 9 -14945774.52947  22558534.734    22558534.5224   22558539.7494
        -0.000          -0.000
   -518419.053 9   -385633.33348  21417371.873    21417371.1934   21417376.3064
        -0.000          -0.000
 -10020220.868 9  -7422536.49246  23414442.312    23414442.2494   23414449.1194
        -0.000          -0.000
 97  3  3 22 56  0.0010000  0  6 26  2  4  9  7 24                   0.001000020
   3471100.391 9   2716942.38546  24533597.560    24533597.6134   24533602.9904
        -0.000          -0.000
   2649638.061 9   2067709.54548  22290168.760    22290168.1384   22290173.4404
        -0.000          -0.000
 -20363214.299 9 -15321163.55748  21369026.808    21369026.9804   21369031.6484
        -0.000          -0.000
 -19263259.878 9 -14999267.24147  22545471.197    22545470.9954   22545476.2194
        -0.000          -0.000
   -467699.600 9   -346111.67848  21427023.437    21427022.7914   21427027.9164
        -0.000          -0.000
 -10124014.410 9  -7503414.52546  23394691.088    23394690.9934   23394697.8594
        -0.000          -0.000
 97  3  3 22 56 30.0010000  0  6 26  2  4  9  7 24                   0.000999981
   3538195.985 9   2769224.62046  24546365.482    24546365.5054   24546370.9604
        -0.000          -0.000
   2691646.896 9   2100443.69448  22298162.737    22298162.1044   22298167.4204
        -0.000          -0.000
 -20422159.988 9 -15367095.24048  21357809.808    21357809.9564   21357814.6364
        -0.000          -0.000
 -19331438.707 9 -15052393.58047  22532497.184    22532497.0074   22532502.1514
        -0.000          -0.000
   -416717.043 9   -306385.01748  21436725.065    21436724.4054   21436729.5784
        -0.000          -0.000
 -10227580.167 9  -7584115.06246  23374983.346    23374983.1664   23374990.0014
        -0.000          -0.000
 97  3  3 22 57  0.0010000  0  6 26  2  4  9  7 24                   0.000999964
   3605490.890 9   2821662.16146  24559171.131    24559171.3094   24559176.8034
        -0.000          -0.000
   2733991.766 9   2133439.68948  22306220.687    22306220.0754   22306225.4144
        -0.000          -0.000
 -20480495.345 9 -15412551.34348  21346708.905    21346709.0514   21346713.7234
        -0.000          -0.000
 -19399125.684 9 -15105136.66847  22519616.817    22519616.6044   22519621.6744
        -0.000          -0.000
   -365468.526 9   -266451.10848  21446477.350    21446476.7034   21446481.8224
        -0.000          -0.000
 -10330887.904 9  -7664614.54346  23355324.578    23355324.3954   23355331.1244
        -0.000          -0.000
 97  3  3 22 57 30.0010000  0  6 26  2  4  9  7 24                   0.000999961
   3672923.665 9   2874207.13246  24572003.073    24572003.1764   24572008.9704
        -0.000          -0.000
   2776627.868 9   2166662.62748  22314334.152    22314333.5084   22314338.8884
        -0.000          -0.000
 -20538286.699 9 -15457583.53748  21335711.531    21335711.7144   21335716.3544
        -0.000          -0.000
 -19466371.871 9 -15157536.27647  22506820.315    22506820.1134   22506825.1024
        -0.000          -0.000
   -314015.416 9   -226357.77648  21456268.631    21456267.9654   21456273.0714
        -0.000          -0.000
 -10433968.163 9  -7744936.78346  23335709.043    23335708.8454   23335715.4444
        -0.000          -0.000
 97  3  3 22 58  0.0010000  0  6 26  2  4  9  7 24                   0.000999963
   3740431.399 9   2926810.53645  24584849.304    24584849.3534   24584855.2404
        -0.000          -0.000
   2819508.672 9   2200076.23847  22322494.148    22322493.4994   22322498.9174
        -0.000          -0.000
 -20595610.812 9 -15502251.65048  21324803.122    21324803.3064   21324807.8724
        -0.000          -0.000
 -19533228.570 9 -15209632.39147  22494097.974    22494097.7504   22494102.6894
        -0.000          -0.000
   -262390.774 9   -186130.78448  21466092.545    21466091.8544   21466096.9204
        -0.000          -0.000
 -10536868.481 9  -7825118.80446  23316127.648    23316127.5014   23316134.0594
        -0.000          -0.000
 97  3  3 22 58 30.0010000  0  6 26  2  4  9  7 24                   0.000999975
   3807983.198 9   2979448.29146  24597704.096    24597704.2244   24597709.8924
        -0.000          -0.000
   2862628.660 9   2233676.21247  22330699.618    22330698.9494   22330704.3914
        -0.000          -0.000
 -20652495.052 9 -15546577.00748  21313978.382    21313978.5504   21313983.0654
        -0.000          -0.000
 -19599709.684 9 -15261435.84647  22481447.065    22481446.8384   22481451.7574
        -0.000          -0.000
   -210605.814 9   -145778.87148  21475946.844    21475946.1824   21475951.2494
        -0.000          -0.000
 -10639596.600 9  -7905166.63646  23296579.004    23296578.8454   23296585.4994
        -0.000          -0.000
 97  3  3 22 59  0.0010000  0  6 26  2  4  9  7 24                   0.000999977
   3875550.083 9   3032097.78846  24610561.673    24610561.8524   24610567.5964
        -0.000          -0.000
   2905957.870 9   2267439.22947  22338944.811    22338944.2004   22338949.6044
        -0.000          -0.000
 -20708970.672 9 -15590583.95448  21303231.373    21303231.5404   21303236.0984
        -0.000          -0.000
 -19665845.303 9 -15312970.07647  22468861.925    22468861.7304   22468866.5854
        -0.000          -0.000
   -158690.722 9   -105325.55448  21485825.931    21485825.2734   21485830.3314
        -0.000          -0.000
 -10742197.869 9  -7985115.64846  23277054.595    23277054.4814   23277061.0554
        -0.000          -0.000
 97  3  3 22 59 30.0010000  0  6 26  2  4  9  7 24                   0.000999968
   3943156.292 9   3084777.88546  24623426.580    24623426.7964   24623432.8024
        -0.000          -0.000
   2949513.115 9   2301378.36847  22347233.178    22347232.5734   22347237.8434
        -0.000          -0.000
 -20765001.771 9 -15634244.52748  21292568.938    21292569.1314   21292573.7284
        -0.000          -0.000
 -19731617.121 9 -15364220.82847  22456346.013    22456345.7754   22456350.6074
        -0.000          -0.000
   -106612.076 9    -64744.79548  21495736.183    21495735.5324   21495740.6034
        -0.000          -0.000
 -10844666.325 9  -8064961.15146  23257555.672    23257555.4194   23257562.0124
        -0.000          -0.000
 97  3  3 23  0  0.0010000  0  6 26  2  4  9  7 24                   0.000999935
   4010825.638 9   3137507.21346  24636303.659    24636303.9724   24636309.8004
        -0.000          -0.000
   2993306.822 9   2335503.32347  22355566.924    22355566.3034   22355571.5394
        -0.000          -0.000
 -20820542.008 9 -15677522.61448  21282000.039    21282000.2084   21282004.7384
        -0.000          -0.000
 -19796999.302 9 -15415167.97147  22443904.240    22443903.9694   22443908.8064
        -0.000          -0.000
    -54353.505 9    -24023.83348  21505680.662    21505679.9784   21505685.0904
        -0.000          -0.000
 -10946990.883 9  -8144694.54746  23238084.019    23238083.7394   23238090.2534
        -0.000          -0.000
 97  3  3 23  0 30.0010000  0  6 26  2  4  9  7 24                   0.000999897
   4078620.784 9   3190334.57346  24649204.707    24649204.9304   24649210.7424
        -0.000          -0.000
   3037388.929 9   2369853.00447  22363955.449    22363954.8464   22363960.1204
        -0.000          -0.000
 -20875521.714 9 -15720363.91948  21271537.792    21271537.9414   21271542.3964
        -0.000          -0.000
 -19861945.735 9 -15465775.56647  22431545.246    22431545.0454   22431549.9604
        -0.000          -0.000
     -1902.343 9     16847.20148  21515661.783    21515661.0984   21515666.2264
        -0.000          -0.000
 -11049127.693 9  -8224281.63846  23218647.964    23218647.7054   23218654.3134
        -0.000          -0.000
 97  3  3 23  1  0.0010000  0  6 26  2  4  9  7 24                   0.000999863
   4146572.476 9   3243283.88845  24662135.508    24662135.7094   24662141.4344
        -0.000          -0.000
   3081780.609 9   2404443.91647  22372402.842    22372402.2684   22372407.6284
        -0.000          -0.000
 -20929902.161 9 -15762738.26248  21261189.499    21261189.6554   21261194.1284
        -0.000          -0.000
 -19926432.753 9 -15516025.17747  22419273.732    22419273.5504   22419278.4684
        -0.000          -0.000
     50741.629 9     57868.47448  21525679.545    21525678.8734   21525684.0254
        -0.000          -0.000
 -11151052.392 9  -8303703.42146  23199252.229    23199252.0424   23199258.6804
        -0.000          -0.000
 97  3  3 23  1 30.0010000  0  7 26  2  4  9  5  7 24                0.000999814
   4214734.524 9   3296397.12745  24675106.199    24675106.3694   24675112.1544
        -0.000          -0.000
   3126541.484 9   2439322.51347  22380920.534    22380919.9724   22380925.4414
        -0.000          -0.000
 -20983623.889 9 -15804599.33048  21250966.525    21250966.7024   21250971.2034
        -0.000          -0.000
 -19990394.679 9 -15565865.62347  22407102.143    22407101.9364   22407106.8734
        -0.000          -0.000
  -7206770.34718  -5593986.78155  24979280.592    24979279.9845   24979285.7485
        -0.000          -0.000
    103630.370 9     99080.47348  21535743.916    21535743.2754   21535748.4074
        -0.000          -0.000
 -11252686.689 9  -8382898.96046  23179911.723    23179911.5924   23179918.2594
        -0.000          -0.000
 97  3  3 23  2  0.0010000  0  7 26  2  4  9  5  7 24                0.000999870
   4283019.318 9   3349605.99645  24688100.244    24688100.4544   24688106.2144
        -0.000          -0.000
   3171583.827 9   2474420.43447  22389491.789    22389491.2584   22389496.7934
        -0.000          -0.000
 -21036794.076 9 -15846030.61848  21240848.528    21240848.6974   21240853.2744
        -0.000          -0.000
 -20053920.210 9 -15615366.01547  22395013.547    22395013.3454   22395018.2944
        -0.000          -0.000
  -7288803.784 8  -5657908.89545  24963669.984    24963669.6414   24963675.0914
        -0.000          -0.000
    156648.224 9    140393.08948  21545832.902    21545832.2614   21545837.3564
        -0.000          -0.000
 -11354116.555 9  -8461935.16446  23160610.136    23160609.9944   23160616.7704
        -0.000          -0.000
 97  3  3 23  2 30.0010000  0  7 26  2  4  9  5  7 24                0.000999906
   4351377.925 9   3402872.41746  24701108.756    24701108.9274   24701114.5794
        -0.000          -0.000
   3216875.053 9   2509712.28647  22398110.409    22398109.9014   22398115.4754
        -0.000          -0.000
 -21089475.944 9 -15887081.40248  21230823.471    21230823.6574   21230828.2734
        -0.000          -0.000
 -20117053.090 9 -15664560.45147  22382999.680    22382999.4924   22383004.3814
        -0.000          -0.000
  -7370942.462 9  -5721912.99145  24948039.428    24948039.2124   24948044.5754
        -0.000          -0.000
    209738.715 9    181762.30248  21555935.715    21555935.0574   21555940.1584
        -0.000          -0.000
 -11455385.073 9  -8540845.65546  23141339.317    23141339.2044   23141345.9154
        -0.000          -0.000
 97  3  3 23  3  0.0010000  0  7 26  2  4  9  5  7 24                0.000999926
   4419791.228 9   3456181.41946  24714127.595    24714127.6754   24714133.3314
        -0.000          -0.000
   3262415.357 9   2545198.22948  22406776.504    22406775.9924   22406781.4934
        -0.000          -0.000
 -21141684.642 9 -15927763.48148  21220888.535    21220888.7144   21220893.3144
        -0.000          -0.000
 -20179789.284 9 -15713445.78147  22371061.386    22371061.1964   22371066.0264
        -0.000          -0.000
  -7453185.417 9  -5785998.36645  24932389.303    24932388.6884   24932394.2344
        -0.000          -0.000
    262923.312 9    223204.84048  21566056.370    21566055.7304   21566060.8284
        -0.000          -0.000
 -11556474.068 9  -8619616.24246  23122102.676    23122102.5714   23122109.2824
        -0.000          -0.000
 97  3  3 23  3 30.0010000  0  7 26  2  4  9  5  7 24                0.000999933
   4488254.355 8   3509529.26346  24727155.712    24727155.7874   24727161.5724
        -0.000          -0.000
   3308203.413 9   2580877.22447  22415489.749    22415489.1904   22415494.6504
        -0.000          -0.000
 -21193424.696 9 -15968080.38648  21211042.698    21211042.8414   21211047.4724
        -0.000          -0.000
 -20242134.942 9 -15762026.80147  22359197.292    22359197.1304   22359202.0044
        -0.000          -0.000
  -7535534.382 9  -5850166.30445  24916718.586    24916718.0464   24916723.9924
        -0.000          -0.000
    316224.585 9    264738.29448  21576199.291    21576198.6394   21576203.7164
        -0.000          -0.000
 -11657378.529 9  -8698243.06446  23102901.311    23102901.1444   23102907.8394
        -0.000          -0.000
 97  3  3 23  4  0.0010000  0  7 26  2  4  9  5  7 24                0.000999927
   4556765.748 9   3562914.71746  24740192.855    24740193.1304   24740199.0404
        -0.000          -0.000
   3354237.445 9   2616747.87447  22424249.659    22424249.1164   22424254.5154
        -0.000          -0.000
 -21244675.901 9 -16008016.36748  21201289.807    21201289.9924   21201294.6624
        -0.000          -0.000
 -20304086.683 9 -15810300.86647  22347408.232    22347408.0824   22347412.9914
        -0.000          -0.000
  -7617968.571 9  -5914400.67345  24901031.620    24901030.9454   24901037.4244
        -0.000          -0.000
    369650.424 9    306368.81348  21586365.841    21586365.2304   21586370.2664
        -0.000          -0.000
 -11758101.940 9  -8776728.78447  23083734.228    23083734.0844   23083740.8184
        -0.000          -0.000
 97  3  3 23  4 30.0010000  0  7 26  2  4  9  5  7 24                0.000999923
   4625316.204 9   3616330.63045  24753237.697    24753238.0794   24753243.6454
        -0.000          -0.000
   3400515.601 9   2652808.75247  22433056.156    22433055.6094   22433060.9074
        -0.000          -0.000
 -21295422.733 9 -16047559.33648  21191633.010    21191633.1984   21191637.7884
        -0.000          -0.000
 -20365644.764 9 -15858268.18147  22335694.191    22335693.9814   22335698.8974
        -0.000          -0.000
  -7700448.764 9  -5978670.90445  24885335.858    24885335.4214   24885342.1434
        -0.000          -0.000
    423223.728 9    348114.23848  21596560.549    21596559.9034   21596564.9254
        -0.000          -0.000
 -11858626.707 9  -8855059.73447  23064604.919    23064604.7964   23064611.5474
        -0.000          -0.000
 97  3  3 23  5  0.0010000  0  7 26  2  4  9  5  7 24                0.000999929
   4693920.132 9   3669788.22645  24766292.583    24766292.8334   24766298.4964
        -0.000          -0.000
   3447044.075 9   2689064.68847  22441910.205    22441909.6594   22441914.9744
        -0.000          -0.000
 -21345631.838 9 -16086683.29048  21182078.574    21182078.7624   21182083.2554
        -0.000          -0.000
 -20426789.034 9 -15905913.05447  22324058.804    22324058.6264   22324063.4904
        -0.000          -0.000
  -7782939.674 9  -6042949.46445  24869638.269    24869637.9284   24869644.3754
        -0.000          -0.000
    476984.105 9    390005.43748  21606790.801    21606790.1704   21606795.1554
        -0.000          -0.000
 -11958920.475 9  -8933210.67847  23045519.554    23045519.4394   23045526.1764
        -0.000          -0.000
 97  3  3 23  5 30.0010000  0  7 26  2  4  9  5  7 24                0.000999942
   4762588.764 9   3723296.16845  24779359.617    24779359.7674   24779365.8384
        -0.000          -0.000
   3493829.881 9   2725521.13647  22450813.235    22450812.6864   22450818.0654
        -0.000          -0.000
 -21395287.310 9 -16125375.84348  21172629.523    21172629.6934   21172634.1544
        -0.000          -0.000
 -20487504.629 9 -15953223.89847  22312504.965    22312504.8244   22312509.6274
        -0.000          -0.000
  -7865437.890 9  -6107233.71745  24853939.439    24853938.9864   24853945.0884
        -0.000          -0.000
    530915.167 9    432029.63148  21617053.589    21617052.9454   21617057.9344
        -0.000          -0.000
 -12058993.792 9  -9011189.85747  23026476.315    23026476.1624   23026482.7584
        -0.000          -0.000
 97  3  3 23  6  0.0010000  0  7 26  2  4  9  5  7 24                0.000999967
   4831323.816 8   3776855.92046  24792439.701    24792439.7814   24792445.8204
        -0.000          -0.000
   3540888.436 9   2762190.13247  22459768.231    22459767.6664   22459773.0414
        -0.000          -0.000
 -21444382.231 9 -16163631.60448  21163287.058    21163287.2214   21163291.6754
        -0.000          -0.000
 -20547774.805 9 -16000187.65647  22301035.954    22301035.7844   22301040.5304
        -0.000          -0.000
  -7947936.302 9  -6171518.11245  24838240.604    24838240.1344   24838245.8974
        -0.000          -0.000
    585006.471 9    474178.69448  21627346.844    21627346.1804   21627351.1794
        -0.000          -0.000
 -12158830.103 9  -9088984.33447  23007478.140    23007477.9644   23007484.4644
        -0.000          -0.000
 97  3  3 23  6 30.0010000  0  7 26  2  4  9  5  7 24                0.000999998
   4900123.663 9   3830466.13046  24805532.038    24805532.1474   24805538.1604
        -0.000          -0.000
   3588218.035 9   2799070.33447  22468774.800    22468774.2314   22468779.6314
        -0.000          -0.000
 -21492932.723 9 -16201463.13948  21154048.118    21154048.2774   21154052.7734
        -0.000          -0.000
 -20607605.495 9 -16046808.97048  22289650.592    22289650.4164   22289655.1624
        -0.000          -0.000
  -8030465.770 9  -6235826.72545  24822535.913    24822535.3664   24822540.9064
        -0.000          -0.000
    639251.353 9    516447.42648  21637669.286    21637668.6344   21637673.6294
        -0.000          -0.000
 -12258421.605 9  -9166588.08047  22988526.510    22988526.3844   22988532.6454
        -0.000          -0.000
 97  3  3 23  7  0.0010000  0  7 26  2  4  9  5  7 24                0.001000012
   4968967.257 9   3884110.43946  24818632.625    24818632.6784   24818638.8864
        -0.000          -0.000
   3635801.255 9   2836148.15547  22477829.619    22477829.0434   22477834.4384
        -0.000          -0.000
 -21540968.201 9 -16238893.35948  21144907.220    21144907.4154   21144911.9014
        -0.000          -0.000
 -20667019.310 9 -16093105.43848  22278344.569    22278344.4134   22278349.1054
        -0.000          -0.000
  -8113076.418 9  -6300198.59445  24806815.571    24806815.0194   24806820.5484
        -0.000          -0.000
    693617.562 9    558810.70148  21648014.798    21648014.1324   21648019.1334
        -0.000          -0.000
 -12357801.592 9  -9244026.99847  22969615.063    22969614.9464   22969621.1984
        -0.000          -0.000
 97  3  3 23  7 30.0010000  0  7 26  2  4  9  5  7 24                0.001000027
   5037884.492 9   3937812.13546  24831747.072    24831747.2894   24831753.5354
        -0.000          -0.000
   3683669.175 9   2873447.82747  22486938.602    22486938.0174   22486943.3934
        -0.000          -0.000
 -21588469.214 9 -16275907.10748  21135868.110    21135868.3034   21135872.7514
        -0.000          -0.000
 -20725985.725 9 -16139053.27448  22267123.767    22267123.5914   22267128.2234
        -0.000          -0.000
  -8195754.580 9  -6364623.10145  24791082.490    24791081.9114   24791087.5324
        -0.000          -0.000
    748126.027 9    601284.82648  21658387.369    21658386.7114   21658391.7114
        -0.000          -0.000
 -12456950.627 9  -9321285.95247  22950747.509    22950747.3794   22950753.8244
        -0.000          -0.000
 97  3  3 23  8  0.0010000  0  7 26  2  4  9  5  7 24                0.001000030
   5106846.548 8   3991548.75545  24844870.064    24844870.1244   24844876.4794
        -0.000          -0.000
   3731799.692 9   2910952.10047  22496097.428    22496096.8864   22496102.2974
        -0.000          -0.000
 -21635447.429 9 -16312513.48648  21126928.472    21126928.6424   21126933.0864
        -0.000          -0.000
 -20784534.541 9 -16184675.72648  22255982.315    22255982.1344   22255986.6944
        -0.000          -0.000
  -8278521.150 9  -6429116.46945  24775332.534    24775332.0544   24775337.5724
        -0.000          -0.000
    802775.626 9    643868.92848  21668786.801    21668786.1814   21668791.2264
        -0.000          -0.000
 -12555869.672 9  -9398365.68947  22931923.796    22931923.6604   22931930.2194
        -0.000          -0.000
 97  3  3 23  8 30.0010000  0  7 26  2  4  9  5  7 24                0.001000030
   5175861.953 8   4045326.95045  24858003.215    24858003.1924   24858009.7714
        -0.000          -0.000
   3780204.550 9   2948670.16547  22505308.560    22505308.0194   22505313.4314
        -0.000          -0.000
 -21681889.751 9 -16348702.28548  21118090.734    21118090.9104   21118095.3854
        -0.000          -0.000
 -20842648.133 9 -16229959.03148  22244923.641    22244923.4904   22244927.9854
        -0.000          -0.000
  -8361363.686 9  -6493669.02745  24759568.244    24759567.7174   24759573.2554
        -0.000          -0.000
    857587.956 9    686579.82848  21679217.251    21679216.6314   21679221.7474
        -0.000          -0.000
 -12654556.379 9  -9475264.39847  22913144.366    22913144.2104   22913150.6334
        -0.000          -0.000
 97  3  3 23  9  0.0010000  0  7 26  2  4  9  5  7 24                0.001000023
   5244909.338 8   4099130.02545  24871142.465    24871142.4774   24871149.2444
        -0.000          -0.000
   3828878.603 9   2986597.97947  22514570.909    22514570.3584   22514575.7854
        -0.000          -0.000
 -21727800.823 9 -16384477.12848  21109354.091    21109354.2784   21109358.7844
        -0.000          -0.000
 -20900329.969 9 -16274905.90948  22233947.122    22233946.9694   22233951.4554
        -0.000          -0.000
  -8444274.647 9  -6558274.92345  24743790.670    24743790.1314   24743795.8144
        -0.000          -0.000
    912544.831 9    729403.36248  21689675.236    21689674.6114   21689679.7224
        -0.000          -0.000
 -12753028.841 9  -9551996.13647  22894405.709    22894405.5734   22894411.8284
        -0.000          -0.000
 97  3  3 23  9 30.0010000  0  7 26  2  4  9  5  7 24                0.001000010
   5313993.158 9   4152961.54145  24884288.642    24884288.6254   24884295.5064
        -0.000          -0.000
   3877832.081 9   3024743.53047  22523886.405    22523885.8694   22523891.3564
        -0.000          -0.000
 -21773157.304 9 -16419819.82348  21100723.046    21100723.2434   21100727.7344
        -0.000          -0.000
 -20957556.960 9 -16319498.36648  22223057.203    22223057.0284   22223061.5174
        -0.000          -0.000
  -8527233.380 8  -6622918.03945  24728003.755    24728003.3404   24728009.0964
        -0.000          -0.000
    967657.269 9    772348.11548  21700162.771    21700162.1514   21700167.2474
        -0.000          -0.000
 -12851268.475 9  -9628546.44947  22875711.307    22875711.1744   22875717.3034
        -0.000          -0.000
 97  3  3 23 10  0.0010000  0  7 26  2  4  9  5  7 24                0.000999996
   5383106.658 9   4206816.18445  24897440.648    24897440.7004   24897447.3184
        -0.000          -0.000
   3927074.987 9   3063114.61847  22533256.991    22533256.4314   22533262.0314
        -0.000          -0.000
 -21817947.178 9 -16454720.99848  21092199.847    21092200.0244   21092204.4884
        -0.000          -0.000
 -21014315.384 9 -16363725.70448  22212256.496    22212256.2954   22212260.7884
        -0.000          -0.000
  -8610225.552 8  -6687587.20445  24712210.535    24712210.1744   24712216.0614
        -0.000          -0.000
   1022926.188 9    815414.80148  21710680.086    21710679.4594   21710684.5694
        -0.000          -0.000
 -12949265.249 9  -9704907.53147  22857063.137    22857062.9754   22857069.1774
        -0.000          -0.000
 97  3  3 23 10 30.0010000  0  7 26  2  4  9  5  7 24                0.000999980
   5452256.420 8   4260699.10745  24910599.358    24910599.3914   24910605.8934
        -0.000          -0.000
   3976607.156 9   3101711.09647  22542682.677    22542682.1364   22542687.8484
        -0.000          -0.000
 -21862175.029 9 -16489184.22948  21083783.529    21083783.7104   21083788.1694
        -0.000          -0.000
 -21070588.755 9 -16407575.07148  22201548.041    22201547.8094   22201552.3204
        -0.000          -0.000
  -8693249.495 8  -6752281.13545  24696411.519    24696411.0914   24696417.1554
        -0.000          -0.000
   1078346.151 9    858599.17948  21721226.135    21721225.5084   21721230.6194
        -0.000          -0.000
 -13047026.476 9  -9781085.07747  22838459.643    22838459.5144   22838465.8254
        -0.000          -0.000
 97  3  3 23 11  0.0010000  0  7 26  2  4  9  5  7 24                0.000999964
   5521444.599 8   4314611.95245  24923765.271    24923765.2264   24923771.5734
        -0.000          -0.000
   4026425.112 9   3140530.26547  22552162.780    22552162.2334   22552167.9364
        -0.000          -0.000
 -21905840.525 9 -16523209.27048  21075474.229    21075474.4134   21075478.8604
        -0.000          -0.000
 -21126372.575 9 -16451042.97748  22190932.676    22190932.4674   22190937.0354
        -0.000          -0.000
  -8776295.423 8  -6816992.15745  24680608.429    24680608.0104   24680614.2824
        -0.000          -0.000
   1133911.250 9    901896.65948  21731799.834    21731799.2184   21731804.2824
        -0.000          -0.000
 -13144533.995 9  -9857064.93347  22819904.498    22819904.3894   22819910.7354
        -0.000          -0.000
 97  3  3 23 11 30.0010000  0  7 26  2  4  9  5  7 24                0.000999945
   5590668.779 8   4368552.79645  24936938.053    24936938.0674   24936944.5594
        -0.000          -0.000
   4076508.732 9   3179556.45047  22561693.484    22561692.9054   22561698.5524
        -0.000          -0.000
 -21948953.874 9 -16556804.06848  21067269.997    21067270.1534   21067274.6554
        -0.000          -0.000
 -21181670.630 9 -16494132.36448  22180409.731    22180409.5224   22180414.1434
        -0.000          -0.000
  -8859366.932 9  -6881723.14245  24664800.534    24664800.1244   24664806.7394
        -0.000          -0.000
   1189626.331 9    945311.00748  21742402.099    21742401.4694   21742406.5194
        -0.000          -0.000
 -13241777.871 9  -9932839.35047  22801399.587    22801399.5694   22801405.8374
        -0.000          -0.000
 97  3  3 23 12  0.0010000  0  7 26  2  4  9  5  7 24                0.000999926
   5659932.629 8   4422524.58845  24950118.662    24950118.6124   24950124.7444
        -0.000          -0.000
   4126850.163 9   3218783.53847  22571273.225    22571272.5934   22571278.2524
        -0.000          -0.000
 -21991521.194 9 -16589973.38848  21059169.685    21059169.8604   21059174.3654
        -0.000          -0.000
 -21236486.930 9 -16536846.35348  22169978.542    22169978.3334   22169982.9814
        -0.000          -0.000
  -8942453.462 9  -6946465.82346  24648989.610    24648989.1904   24648996.2064
        -0.000          -0.000
   1245486.408 9    988838.33648  21753031.913    21753031.3204   21753036.3434
        -0.000          -0.000
 -13338753.570 9 -10008404.79347  22782945.776    22782945.7154   22782951.8334
        -0.000          -0.000
 97  3  3 23 12 30.0010000  0  7 26  2  4  9  5  7 24                0.000999912
   5729243.915 9   4476533.30945  24963308.281    24963308.1714   24963314.3214
        -0.000          -0.000
   4177445.030 9   3258208.09647  22580901.054    22580900.4784   22580906.0864
        -0.000          -0.000
 -22033536.034 9 -16622712.20249  21051174.526    21051174.7154   21051179.1754
        -0.000          -0.000
 -21290831.668 9 -16579192.89748  22159637.046    22159636.8634   22159641.5614
        -0.000          -0.000
  -9025548.356 9  -7011215.05246  24633177.035    24633176.6474   24633183.8204
        -0.000          -0.000
   1301482.796 9   1032471.88048  21763687.667    21763687.0534   21763692.0854
        -0.000          -0.000
 -13435451.654 9 -10083753.91047  22764544.736    22764544.6344   22764550.6404
        -0.000          -0.000
 97  3  3 23 13  0.0010000  0  7 26  2  4  9  5  7 24                0.000999905
   5798595.086 9   4530573.16145  24976505.669    24976505.7344   24976511.5114
        -0.000          -0.000
   4228287.446 9   3297825.55847  22590576.055    22590575.4404   22590580.9354
        -0.000          -0.000
 -22074998.387 9 -16655020.50549  21043284.531    21043284.6974   21043289.1094
        -0.000          -0.000
 -21344718.448 9 -16621182.59348  22149382.669    22149382.5214   22149387.2524
        -0.000          -0.000
  -9108652.193 9  -7075971.23645  24617362.601    24617362.3554   24617369.6254
        -0.000          -0.000
   1357605.008 9   1076203.46848  21774367.285    21774366.6904   21774371.7194
        -0.000          -0.000
 -13531872.489 9 -10158886.99247  22746196.281    22746196.1764   22746202.2654
        -0.000          -0.000
 97  3  3 23 13 30.0010000  0  7 26  2  4  9  5  7 24                0.000999901
   5867978.697 9   4584638.25746  24989709.122    24989709.2244   24989715.0864
        -0.000          -0.000
   4279381.440 9   3337639.04247  22600298.863    22600298.2694   22600303.6914
        -0.000          -0.000
 -22115904.334 9 -16686895.24448  21035500.364    21035500.5264   21035504.9164
        -0.000          -0.000
 -21398159.176 9 -16662824.71048  22139213.332    22139213.1124   22139217.8064
        -0.000          -0.000
  -9191781.064 8  -7140746.92945  24601543.531    24601543.2874   24601550.3284
        -0.000          -0.000
   1413845.346 9   1120027.10048  21785069.487    21785068.8904   21785073.8974
        -0.000          -0.000
 -13628036.893 9 -10233820.25947  22727896.711    22727896.6644   22727902.8674
        -0.000          -0.000
 97  3  3 23 14  0.0010000  0  7 26  2  4  9  5  7 24                0.000999902
   5937389.652 9   4638724.65446  25002917.611    25002917.5814   25002923.7114
        -0.000          -0.000
   4330748.650 9   3377665.41747  22610073.721    22610073.1124   22610078.5164
        -0.000          -0.000
 -22156242.672 9 -16718327.69548  21027824.168    21027824.3504   21027828.7454
        -0.000          -0.000
 -21451157.369 9 -16704121.99948  22129128.163    22129127.9244   22129132.5554
        -0.000          -0.000
  -9274943.233 8  -7205548.54545  24585718.303    24585717.8924   24585724.7754
        -0.000          -0.000
   1470184.385 9   1163927.64648  21795790.507    21795789.8984   21795794.8844
        -0.000          -0.000
 -13723961.445 9 -10308566.63547  22709642.893    22709642.8214   22709649.0494
        -0.000          -0.000
 97  3  3 23 14 30.0010000  0  7 26  2  4  9  5  7 24                0.000999910
   6006833.518 9   4692836.72545  25016132.410    25016132.5914   25016138.3724
        -0.000          -0.000
   4382405.815 9   3417917.72647  22619903.858    22619903.2174   22619908.5954
        -0.000          -0.000
 -22195996.720 9 -16749304.85049  21020259.193    21020259.3974   21020263.7844
        -0.000          -0.000
 -21503692.703 9 -16745058.62048  22119131.005    22119130.7944   22119135.4054
        -0.000          -0.000
  -9358141.836 9  -7270378.54845  24569885.931    24569885.6824   24569892.2374
        -0.000          -0.000
   1526637.171 9   1207916.82448  21806533.174    21806532.5524   21806537.5304
        -0.000          -0.000
 -13819635.290 9 -10383117.65847  22691436.846    22691436.7254   22691442.9244
        -0.000          -0.000
 97  3  3 23 15  0.0010000  0  7 26  2  4  9  5  7 24                0.000999925
   6076301.883 9   4746967.88445  25029351.903    25029352.0114   25029357.7494
        -0.000          -0.000
   4434364.356 9   3458404.88047  22629791.224    22629790.5924   22629796.0824
        -0.000          -0.000
 -22235177.328 9 -16779835.17249  21012803.404    21012803.5894   21012807.9544
        -0.000          -0.000
 -21555752.742 9 -16785624.87848  22109224.320    22109224.1034   22109228.6814
        -0.000          -0.000
  -9441389.424 9  -7335246.72645  24554044.532    24554044.3484   24554050.5874
        -0.000          -0.000
   1583219.725 9   1252007.12948  21817300.509    21817299.8584   21817304.8504
        -0.000          -0.000
 -13915061.978 9 -10457476.08447  22673277.741    22673277.6664   22673283.8064
        -0.000          -0.000
 97  3  3 23 15 30.0010000  0  7 26  2  4  9  5  7 24                0.000999947
   6145779.840 9   4801106.53345  25042573.232    25042573.3874   25042579.0434
        -0.000          -0.000
   4486631.811 9   3499132.74947  22639737.358    22639736.7564   22639742.3634
        -0.000          -0.000
 -22273782.771 9 -16809917.31549  21005457.042    21005457.2254   21005461.5554
        -0.000          -0.000
 -21607327.641 9 -16825813.10248  22099409.887    22099409.6674   22099414.2424
        -0.000          -0.000
  -9524682.704 9  -7400150.51346  24538194.627    24538194.2524   24538200.2294
        -0.000          -0.000
   1639936.019 9   1296201.62948  21828093.231    21828092.5964   21828097.6324
        -0.000          -0.000
 -14010241.074 9 -10531641.58147  22655165.783    22655165.6454   22655171.7734
        -0.000          -0.000
 97  3  3 23 16  0.0010000  0  7 26  2  4  9  5  7 24                0.000999960
   6215243.041 9   4855233.66745  25055791.811    25055791.8464   25055797.6054
        -0.000          -0.000
   4539180.826 9   3540080.02447  22649737.040    22649736.4844   22649742.1914
        -0.000          -0.000
 -22311834.643 9 -16839568.10049  20998215.980    20998216.1384   20998220.5154
        -0.000          -0.000
 -21658421.426 9 -16865626.43348  22089687.010    22089686.8084   22089691.3494
        -0.000          -0.000
  -9608025.535 9  -7465092.93345  24522334.895    24522334.5724   24522340.3734
        -0.000          -0.000
   1696767.989 9   1340486.27648  21838907.988    21838907.3694   21838912.3884
        -0.000          -0.000
 -14105168.936 9 -10605611.31447  22637101.575    22637101.4314   22637107.4664
        -0.000          -0.000
 97  3  3 23 16 30.0010000  0  7 26  2  4  9  5  7 24                0.000999967
   6284694.625 9   4909351.76645  25069008.229    25069008.2574   25069014.0014
        -0.000          -0.000
   4592000.091 9   3581237.88547  22659788.241    22659787.6564   22659793.3994
        -0.000          -0.000
 -22349339.804 9 -16868792.88449  20991078.911    20991079.0984   20991083.4874
        -0.000          -0.000
 -21709031.880 9 -16905063.14148  22080056.189    22080055.9854   22080060.4724
        -0.000          -0.000
  -9691410.360 9  -7530068.08245  24506467.080    24506466.7764   24506472.5254
        -0.000          -0.000
   1753725.238 9   1384868.53948  21849746.621    21849745.9864   21849750.9674
        -0.000          -0.000
 -14199822.547 9 -10679367.33547  22619089.542    22619089.4204   22619095.4074
        -0.000          -0.000
 97  3  3 23 17  0.0010000  0  7 26  2  4  9  5  7 24                0.000999967
   6354115.429 9   4963445.84145  25082218.419    25082218.3714   25082224.4744
        -0.000          -0.000
   4645080.749 9   3622599.42247  22669889.169    22669888.5634   22669894.2904
        -0.000          -0.000
 -22386308.666 9 -16897599.76949  20984043.989    20984044.1784   20984048.5354
        -0.000          -0.000
 -21759180.009 9 -16944139.59048  22070513.365    22070513.1324   22070517.5414
        -0.000          -0.000
  -9774831.954 9  -7595071.87145  24490592.430    24490591.9964   24490597.6744
        -0.000          -0.000
   1810786.390 9   1429331.76848  21860605.048    21860604.4084   21860609.3724
        -0.000          -0.000
 -14294201.205 9 -10752909.11647  22601129.963    22601129.8334   22601135.8164
        -0.000          -0.000
 97  3  3 23 17 30.0010000  0  7 26  2  4  9  5  7 24                0.000999975
   6423534.874 8   5017538.86645  25095428.197    25095428.2184   25095434.8244
        -0.000          -0.000
   4698431.984 9   3664171.79447  22680041.623    22680041.0544   22680046.6134
        -0.000          -0.000
 -22422709.358 9 -16925963.91649  20977117.190    20977117.3644   20977121.6864
        -0.000          -0.000
 -21808854.578 9 -16982847.03448  22061060.618    22061060.4064   22061064.7274
        -0.000          -0.000
  -9858254.397 9  -7660076.30645  24474717.562    24474717.1264   24474722.7584
        -0.000          -0.000
   1867956.778 9   1473880.11748  21871484.202    21871483.5774   21871488.5724
        -0.000          -0.000
 -14388271.758 9 -10826210.82047  22583228.959    22583228.8264   22583234.8594
        -0.000          -0.000
 97  3  3 23 18  0.0010000  0  7 26  2  4  9  5  7 24                0.000999978
   6492953.126 8   5071630.91945  25108637.625    25108637.5234   25108644.9504
        -0.000          -0.000
   4752030.460 9   3705936.81847  22690241.166    22690240.5334   22690245.9884
        -0.000          -0.000
 -22458550.295 9 -16953891.89949  20970296.848    20970297.0264   20970301.3524
        -0.000          -0.000
 -21858075.021 9 -17021200.62248  22051694.276    22051694.0804   22051698.3844
        -0.000          -0.000
  -9941704.321 9  -7725102.16546  24458837.689    24458837.2684   24458842.4384
        -0.000          -0.000
   1925215.644 9   1518497.41048  21882380.201    21882379.5744   21882384.6624
        -0.000          -0.000
 -14482038.030 9 -10899275.40047  22565385.709    22565385.5494   22565391.7864
        -0.000          -0.000
 97  3  3 23 18 30.0010000  0  7 26  2  4  9  5  7 24                0.000999987
   6562382.780 8   5125731.91845  25121849.292    25121849.4964   25121857.1504
        -0.000          -0.000
   4805898.855 9   3747912.16147  22700491.974    22700491.3674   22700496.8174
        -0.000          -0.000
 -22493810.748 9 -16981367.56449  20963586.974    20963587.1514   20963591.5234
        -0.000          -0.000
 -21906833.931 9 -17059194.56748  22042415.779    22042415.5734   22042419.8644
        -0.000          -0.000
 -10025176.363 9  -7790145.23646  24442953.633    24442953.1064   24442958.1954
        -0.000          -0.000
   1982582.265 9   1563198.66448  21893296.681    21893296.0574   21893301.1744
        -0.000          -0.000
 -14575496.766 9 -10972100.36147  22547600.973    22547600.8514   22547607.1274
        -0.000          -0.000
 97  3  3 23 19  0.0010000  0  7 26  2  4  9  5  7 24                0.000999997
   6631798.473 8   5179822.03545  25135058.805    25135059.0024   25135066.5204
        -0.000          -0.000
   4860032.359 9   3790094.08447  22710793.213    22710792.6454   22710798.1734
        -0.000          -0.000
 -22528504.014 9 -17008401.26649  20956985.024    20956985.2114   20956989.6544
        -0.000          -0.000
 -21955144.358 9 -17096839.04848  22033222.608    22033222.4174   22033226.7084
        -0.000          -0.000
 -10108681.250 9  -7855213.92046  24427063.340    24427062.7674   24427067.7394
        -0.000          -0.000
   2040041.758 9   1607972.28847  21904230.807    21904230.1874   21904235.3224
        -0.000          -0.000
 -14668663.238 9 -11044697.57547  22529872.008    22529871.8444   22529878.1004
        -0.000          -0.000
 97  3  3 23 19 30.0010000  0  7 26  2  4  9  5  7 24                0.000999997
   6701192.911 9   5233895.56645  25148264.270    25148264.5184   25148271.6934
        -0.000          -0.000
   4914428.402 9   3832480.59547  22721144.468    22721143.8594   22721149.4864
        -0.000          -0.000
 -22562636.852 9 -17034998.26849  20950489.741    20950489.9584   20950494.4004
        -0.000          -0.000
 -22002998.391 9 -17134127.89648  22024116.302    22024116.1124   22024120.4094
        -0.000          -0.000
 -10192241.455 9  -7920325.70246  24411162.253    24411161.7144   24411167.0114
        -0.000          -0.000
   2097592.573 9   1652817.06947  21915182.356    21915181.7164   21915186.8444
        -0.000          -0.000
 -14761551.974 9 -11117078.35647  22512195.823    22512195.7014   22512201.8854
        -0.000          -0.000
 97  3  3 23 20  0.0010000  0  7 26  2  4  9  5  7 24                0.000999998
   6770576.169 9   5287960.39545  25161467.725    25161467.9774   25161475.0834
        -0.000          -0.000
   4969121.028 9   3875098.21147  22731552.050    22731551.4544   22731557.2094
        -0.000          -0.000
 -22596179.519 9 -17061135.39649  20944106.843    20944107.0264   20944111.3934
        -0.000          -0.000
 -22050352.148 9 -17171026.91648  22015105.189    22015105.0204   22015109.3184
        -0.000          -0.000
 -10275833.416 9  -7985462.23346  24395255.239    24395254.7274   24395260.3054
        -0.000          -0.000
   2155275.528 9   1697764.82447  21926159.044    21926158.4364   21926163.4954
        -0.000          -0.000
 -14854136.749 9 -11189222.30747  22494577.537    22494577.3584   22494583.4984
        -0.000          -0.000
 97  3  3 23 20 30.0010000  0  7 26  2  4  9  5  7 24                0.000999999
   6839918.525 9   5341993.35545  25174663.491    25174663.6934   25174670.5244
        -0.000          -0.000
   5024096.908 9   3917936.55147  22742013.673    22742013.0924   22742018.8094
        -0.000          -0.000
 -22629160.742 9 -17086835.03049  20937830.734    20937830.9214   20937835.2014
        -0.000          -0.000
 -22097221.470 9 -17207548.45548  22006186.236    22006186.0744   22006190.4014
        -0.000          -0.000
 -10359458.094 9  -8050624.27946  24379341.976    24379341.3844   24379347.2034
        -0.000          -0.000
   2213080.036 9   1742807.28947  21937158.907    21937158.3014   21937163.3184
        -0.000          -0.000
 -14946430.736 9 -11261139.65947  22477014.524    22477014.3474   22477020.5974
        -0.000          -0.000
 97  3  3 23 21  0.0010000  0  7 26  2  4  9  5  7 24                0.000999994
   6909217.749 9   5395992.73545  25187850.868    25187851.0844   25187857.5274
        -0.000          -0.000
   5079350.581 9   3960991.34247  22752528.186    22752527.5534   22752533.2434
        -0.000          -0.000
 -22661577.712 9 -17112094.98949  20931661.941    20931662.1224   20931666.4124
        -0.000          -0.000
 -22143597.258 9 -17243685.42448  21997361.208    21997361.0344   21997365.4214
        -0.000          -0.000
 -10443113.945 9  -8115810.60546  24363422.780    24363422.2044   24363427.9384
        -0.000          -0.000
   2271005.772 9   1787944.22647  21948181.875    21948181.2504   21948186.2014
        -0.000          -0.000
 -15038427.048 9 -11332825.05847  22459508.070    22459507.9264   22459514.2784
        -0.000          -0.000
 97  3  3 23 21 30.0010000  0  7 26  2  4  9  5  7 24                0.000999980
   6978488.206 9   5449969.63445  25201032.624    25201032.9284   25201039.1854
        -0.000          -0.000
   5134880.452 9   4004261.35047  22763095.146    22763094.5374   22763100.2014
        -0.000          -0.000
 -22693410.995 9 -17136900.12949  20925604.200    20925604.3954   20925608.7424
        -0.000          -0.000
 -22189459.029 9 -17279421.85848  21988633.950    21988633.7964   21988638.2604
        -0.000          -0.000
 -10526794.086 9  -8181015.83846  24347498.952    24347498.4584   24347503.9864
        -0.000          -0.000
   2329058.010 9   1833179.72347  21959228.884    21959228.2134   21959233.1654
        -0.000          -0.000
 -15130127.285 9 -11404279.74747  22442058.065    22442057.9264   22442064.3274
        -0.000          -0.000
 97  3  3 23 22  0.0010000  0  7 26  2  4  9  5  7 24                0.000999963
   7047743.279 9   5503934.57345  25214211.396    25214211.6454   25214217.7824
        -0.000          -0.000
   5190684.245 9   4047744.80847  22773714.314    22773713.7264   22773719.3254
        -0.000          -0.000
 -22724649.413 9 -17161241.74249  20919659.710    20919659.9114   20919664.2384
        -0.000          -0.000
 -22234797.669 9 -17314750.65748  21980006.293    21980006.1284   21980010.6514
        -0.000          -0.000
 -10610486.036 9  -8246230.28045  24331572.851    24331572.4134   24331577.6204
        -0.000          -0.000
   2387243.070 9   1878518.72547  21970301.110    21970300.4374   21970305.3944
        -0.000          -0.000
 -15221526.755 9 -11475500.07147  22424665.382    22424665.2484   22424671.5334
        -0.000          -0.000
 97  3  3 23 22 30.0010000  0  6  2  4  9  5  7 24                   0.001000020
   5246741.236 9   4091425.56047  22784381.645    22784380.9724   22784386.6534
        -0.000          -0.000
 -22755315.822 9 -17185137.63049  20913824.135    20913824.3114   20913828.5654
        -0.000          -0.000
 -22279626.648 9 -17349682.32148  21971475.539    21971475.3944   21971480.0174
        -0.000          -0.000
 -10694205.228 9  -8311465.93645  24315641.484    24315641.0134   24315646.2374
        -0.000          -0.000
   2445526.365 9   1923934.27547  21981392.042    21981391.4294   21981396.3004
        -0.000          -0.000
 -15312647.231 9 -11546503.00147  22407325.728    22407325.6024   22407331.7734
        -0.000          -0.000
 97  3  3 23 23  0.0010000  0  6  2  4  9  5  7 24                   0.000999993
   5303111.065 9   4135350.08647  22795108.322    22795107.7164   22795113.5194
        -0.000          -0.000
 -22785350.891 9 -17208541.56049  20908108.671    20908108.8374   20908113.0654
        -0.000          -0.000
 -22323883.052 9 -17384167.82148  21963053.766    21963053.6244   21963058.3064
        -0.000          -0.000
 -10777900.386 9  -8376682.87645  24299714.686    24299714.2784   24299719.5364
        -0.000          -0.000
   2503945.561 9   1969455.71947  21992508.836    21992508.2134   21992513.0644
        -0.000          -0.000
 -15403441.351 9 -11617251.62647  22390048.162    22390047.9924   22390054.1934
        -0.000          -0.000
 97  3  3 23 23 30.0010000  0  6  2  4  9  5  7 24                   0.000999976
   5359796.310 9   4179520.40247  22805895.100    22805894.5774   22805900.3614
        -0.000          -0.000
 -22814767.884 9 -17231463.86949  20902510.771    20902510.9534   20902515.2154
        -0.000          -0.000
 -22367577.763 9 -17418215.63848  21954738.944    21954738.8014   21954743.4924
        -0.000          -0.000
 -10861580.660 9  -8441888.25145  24283790.928    24283790.3124   24283795.9264
        -0.000          -0.000
   2562481.979 9   2015068.50647  22003647.943    22003647.3324   22003652.1924
        -0.000          -0.000
 -15493909.612 9 -11687746.33247  22372832.487    22372832.3614   22372838.6144
        -0.000          -0.000
 97  3  3 23 24  0.0010000  0  6  2  4  9  5  7 24                   0.000999973
   5416787.075 9   4223928.77647  22816740.127    22816739.6394   22816745.3014
        -0.000          -0.000
 -22843602.597 9 -17253932.46049  20897023.682    20897023.8614   20897028.1724
        -0.000          -0.000
 -22410741.782 9 -17451849.92748  21946525.129    21946524.9574   21946529.6604
        -0.000          -0.000
 -10945266.109 9  -8507097.69046  24267866.043    24267865.3674   24267871.3244
        -0.000          -0.000
   2621121.334 9   2060761.50247  22014806.699    22014806.0674   22014810.9484
        -0.000          -0.000
 -15584063.603 9 -11757996.15147  22355676.714    22355676.5974   22355682.8944
        -0.000          -0.000
 97  3  3 23 24 30.0010000  0  6  2  4  9  5  7 24                   0.000999988
   5474073.112 9   4268567.24547  22827641.422    22827640.8934   22827646.4864
        -0.000          -0.000
 -22871877.062 9 -17275964.49349  20891643.207    20891643.3764   20891647.6934
        -0.000          -0.000
 -22453429.723 9 -17485113.25448  21938401.813    21938401.6614   21938406.3764
        -0.000          -0.000
 -11028979.674 9  -8572329.00746  24251935.594    24251934.9854   24251941.2784
        -0.000          -0.000
   2679830.950 9   2106509.24447  22025978.783    22025978.1724   22025983.0274
        -0.000          -0.000
 -15673918.144 9 -11828012.62547  22338578.003    22338577.8244   22338584.0974
        -0.000          -0.000
 97  3  3 23 25  0.0010000  0  6  2  4  9  5  7 24                   0.001000009
   5531633.835 9   4313419.74047  22838594.874    22838594.3404   22838599.9034
        -0.000          -0.000
 -22899607.527 9 -17297572.63049  20886366.232    20886366.4094   20886370.7474
        -0.000          -0.000
 -22495685.552 9 -17518039.86548  21930360.793    21930360.6374   21930365.3394
        -0.000          -0.000
 -11112755.491 9  -8637608.81146  24235993.437    24235992.8524   24235999.3274
        -0.000          -0.000
   2738594.927 9   2152299.35047  22037161.257    22037160.6314   22037165.4304
        -0.000          -0.000
 -15763483.198 9 -11897803.53047  22321534.360    22321534.2034   22321540.3554
        -0.000          -0.000
 97  3  3 23 25 30.0010000  0  6  2  4  9  5  7 24                   0.001000031
   5589472.190 9   4358488.57647  22849601.175    22849600.6014   22849606.1654
        -0.000          -0.000
 -22926783.645 9 -17318748.80849  20881194.804    20881194.9904   20881199.3034
        -0.000          -0.000
 -22537504.690 9 -17550626.20248  21922402.861    21922402.7264   21922407.3794
        -0.000          -0.000
 -11196593.896 9  -8702937.36346  24220039.528    24220038.9164   24220045.1854
        -0.000          -0.000
   2797435.064 9   2198148.80347  22048358.241    22048357.5894   22048362.3364
        -0.000          -0.000
 -15852746.880 9 -11967359.59847  22304548.002    22304547.8134   22304553.9444
        -0.000          -0.000
 97  3  3 23 26  0.0010000  0  6  2  4  9  5  7 24                   0.001000064
   5647593.768 9   4403778.10147  22860661.305    22860660.7444   22860666.3894
        -0.000          -0.000
 -22953382.508 9 -17339475.17849  20876133.172    20876133.3644   20876137.6714
        -0.000          -0.000
 -22578873.295 9 -17582861.47348  21914530.713    21914530.5664   21914535.1774
        -0.000          -0.000
 -11280467.954 9  -8768293.70546  24204078.843    24204078.2954   24204084.2164
        -0.000          -0.000
   2856375.851 9   2244076.68347  22059574.340    22059573.6654   22059578.4214
        -0.000          -0.000
 -15941690.242 9 -12036666.06947  22287622.569    22287622.4004   22287628.5084
        -0.000          -0.000
 97  3  3 23 26 30.0010000  0  6  2  4  9  5  7 24                   0.001000084
   5705972.997 9   4449268.38947  22871770.389    22871769.8934   22871775.5794
        -0.000          -0.000
 -22979412.571 9 -17359758.32549  20871179.766    20871179.9734   20871184.2564
        -0.000          -0.000
 -22619792.082 9 -17614746.23848  21906744.088    21906743.9274   21906748.5084
        -0.000          -0.000
 -11364398.339 9  -8833693.95146  24188107.450    24188106.8334   24188112.5594
        -0.000          -0.000
   2915388.395 9   2290060.48247  22070804.093    22070803.4114   22070808.1394
        -0.000          -0.000
 -16030316.469 9 -12105725.42247  22270757.533    22270757.4054   22270763.4424
        -0.000          -0.000
 97  3  3 23 27  0.0010000  0  6  2  4  9  5  7 24                   0.001000090
   5764615.652 9   4494963.93547  22882929.770    22882929.2474   22882934.9394
        -0.000          -0.000
 -23004871.953 9 -17379596.79349  20866335.009    20866335.2174   20866339.4584
        -0.000          -0.000
 -22660204.875 9 -17646236.72348  21899053.823    21899053.6804   21899058.2314
        -0.000          -0.000
 -11448371.267 9  -8899127.35946  24172127.845    24172127.2254   24172132.9504
        -0.000          -0.000
   2974488.859 9   2336112.78547  22082050.476    22082049.8054   22082054.6064
        -0.000          -0.000
 -16118607.281 9 -12174523.41647  22253956.386    22253956.2374   22253962.2324
        -0.000          -0.000
 97  3  3 23 27 30.0010000  0  6  2  4  9  5  7 24                   0.001000078
   5823522.004 9   4540864.96447  22894139.338    22894138.7974   22894144.4534
        -0.000          -0.000
 -23029763.036 9 -17398992.42649  20861598.444    20861598.6264   20861602.8364
        -0.000          -0.000
 -22700085.194 9 -17677312.29448  21891464.922    21891464.7544   21891469.2214
        -0.000          -0.000
 -11532374.659 9  -8964584.52546  24156142.528    24156141.9704   24156147.5844
        -0.000          -0.000
   3033680.317 9   2382235.98847  22093314.240    22093313.5674   22093318.4164
        -0.000          -0.000
 -16206568.864 9 -12243064.86347  22237217.853    22237217.6844   22237223.6564
        -0.000          -0.000
 97  3  3 23 28  0.0010000  0  6  2  4  9  5  7 24                   0.001000052
   5882692.493 9   4586971.82747  22905399.119    22905398.6224   22905404.2664
        -0.000          -0.000
 -23054073.953 9 -17417935.97549  20856972.218    20856972.4084   20856976.6374
        -0.000          -0.000
 -22739413.998 9 -17707958.11448  21883980.949    21883980.7854   21883985.2004
        -0.000          -0.000
 -11616393.231 9  -9030053.51546  24140154.495    24140153.9794   24140159.4114
        -0.000          -0.000
   3092962.410 9   2428429.82047  22104595.210    22104594.5384   22104599.4594
        -0.000          -0.000
 -16294190.225 9 -12311341.20547  22220543.989    22220543.8184   22220549.7584
        -0.000          -0.000
 97  3  3 23 28 30.0010000  0  6  2  4  9  5  7 24                   0.001000014
   5942144.265 9   4633297.86647  22916712.470    22916711.9904   22916717.5654
        -0.000          -0.000
 -23077785.626 9 -17436412.58449  20852460.013    20852460.1924   20852464.4844
        -0.000          -0.000
 -22778163.804 9 -17738152.76048  21876607.134    21876606.9504   21876611.3254
        -0.000          -0.000
 -11700413.159 9  -9095523.53546  24124166.098    24124165.5784   24124171.0084
        -0.000          -0.000
   3152345.708 9   2474702.51047  22115895.387    22115894.7354   22115899.6784
        -0.000          -0.000
 -16381456.000 9 -12379340.47947  22203937.744    22203937.6544   22203943.5914
        -0.000          -0.000
 97  3  3 23 29  0.0010000  0  6  2  4  9  5  7 24                   0.000999969
   6001868.411 9   4679836.15547  22928077.559    22928077.0734   22928082.6734
        -0.000          -0.000
 -23100901.214 9 -17454424.72049  20848061.222    20848061.4074   20848065.7124
        -0.000          -0.000
 -22816355.817 9 -17767912.76648  21869339.444    21869339.2514   21869343.6254
        -0.000          -0.000
 -11784423.327 9  -9160985.94546  24108179.481    24108178.9564   24108184.4834
        -0.000          -0.000
   3211827.554 9   2521052.00447  22127214.344    22127213.7494   22127218.6484
        -0.000          -0.000
 -16468384.009 9 -12447076.54347  22187395.831    22187395.6964   22187401.7224
        -0.000          -0.000
 97  3  3 23 29 30.0010000  0  6  2  4  9  5  7 24                   0.000999930
   6061877.354 9   4726596.35647  22939496.884    22939496.3974   22939502.0274
        -0.000          -0.000
 -23123391.470 9 -17471949.58649  20843781.390    20843781.5704   20843785.8854
        -0.000          -0.000
 -22853997.091 9 -17797243.62348  21862176.511    21862176.3404   21862180.7334
        -0.000          -0.000
 -11868398.047 9  -9226420.73046  24092199.473    24092198.9584   24092204.5554
        -0.000          -0.000
   3271420.322 9   2567487.92047  22138554.449    22138553.8784   22138558.7924
        -0.000          -0.000
 -16554963.846 9 -12514541.30147  22170920.202    22170920.0714   22170926.0994
        -0.000          -0.000
 97  3  3 23 30  0.0010000  0  6  2  4  9  5  7 24                   0.000999920
   6122192.479 9   4773595.14047  22950974.473    22950973.9924   22950979.6274
        -0.000          -0.000
 -23145246.223 9 -17488979.25149  20839622.553    20839622.7594   20839627.0534
        -0.000          -0.000
 -22891092.840 9 -17826149.39248  21855117.475    21855117.2674   21855121.6704
        -0.000          -0.000
 -11952323.006 9  -9291816.74846  24076228.945    24076228.3744   24076233.9734
        -0.000          -0.000
   3331127.938 9   2614013.32347  22149916.449    22149915.8624   22149920.7584
        -0.000          -0.000
 -16641169.943 9 -12581714.84147  22154515.740    22154515.5784   22154521.5854
        -0.000          -0.000
 97  3  3 23 30 30.0010000  0  6  2  4  9  5  7 24                   0.000999934
   6182795.541 9   4820818.28147  22962506.874    22962506.4074   22962511.9944
        -0.000          -0.000
 -23166502.442 9 -17505542.51949  20835577.671    20835577.8694   20835582.0874
        -0.000          -0.000
 -22927693.934 9 -17854669.72048  21848152.539    21848152.3394   21848156.7104
        -0.000          -0.000
 -12036230.463 9  -9357199.12446  24060261.700    24060261.1784   24060266.8014
        -0.000          -0.000
   3390915.386 9   2660600.93847  22161293.682    22161293.0564   22161297.9974
        -0.000          -0.000
 -16727029.963 9 -12648618.71547  22138177.074    22138176.9094   22138182.9544
        -0.000          -0.000
 97  3  3 23 31  0.0010000  0  6  2  4  9  5  7 24                   0.000999962
   6243675.901 9   4868257.49347  22974092.051    22974091.5674   22974097.1134
        -0.000          -0.000
 -23187184.238 9 -17521658.18149  20831642.065    20831642.2444   20831646.4264
        -0.000          -0.000
 -22963819.733 9 -17882819.68548  21841278.013    21841277.8384   21841282.1904
        -0.000          -0.000
 -12120144.009 9  -9422586.25846  24044293.231    24044292.7834   24044298.4864
        -0.000          -0.000
   3450772.355 9   2707242.72947  22172684.147    22172683.5204   22172688.4484
        -0.000          -0.000
 -16812563.186 9 -12715267.93447  22121900.561    22121900.4474   22121906.4584
        -0.000          -0.000
 97  3  3 23 31 30.0010000  0  6  2  4  9  5  7 24                   0.000999996
   6304839.751 9   4915917.59447  22985731.111    22985730.6194   22985736.2004
        -0.000          -0.000
 -23207293.329 9 -17537327.58949  20827815.360    20827815.5534   20827819.7764
        -0.000          -0.000
 -22999458.685 9 -17910590.29348  21834496.105    21834495.9334   21834500.2714
        -0.000          -0.000
 -12204084.450 9  -9487994.33246  24028319.726    24028319.3714   24028325.2394
        -0.000          -0.000
   3510703.848 9   2753942.57447  22184088.814    22184088.1854   22184093.1154
        -0.000          -0.000
 -16897758.505 9 -12781653.85547  22105688.407    22105688.3004   22105694.2804
        -0.000          -0.000
 97  3  3 23 32  0.0010000  0  6  2  4  9  5  7 24                   0.001000014
   6366261.316 9   4963778.53647  22997419.287    22997418.7684   22997424.3464
        -0.000          -0.000
 -23226857.883 9 -17552572.68949  20824092.319    20824092.5214   20824096.8204
        -0.000          -0.000
 -23034621.512 9 -17937989.89548  21827804.819    21827804.6454   21827808.9584
        -0.000          -0.000
 -12288084.641 9  -9553448.97746  24012335.119    24012334.7274   24012340.5824
        -0.000          -0.000
   3570696.292 9   2800689.91747  22195505.047    22195504.3624   22195509.3384
        -0.000          -0.000
 -16982633.025 9 -12847789.80448  22089537.349    22089537.2524   22089543.1604
        -0.000          -0.000
 97  3  3 23 32 30.0010000  0  6  2  4  9  5  7 24                   0.001000001
   6427938.810 9   5011838.90647  23009156.149    23009155.5644   23009161.1724
        -0.000          -0.000
 -23245847.769 9 -17567369.99649  20820478.632    20820478.8324   20820483.2164
        -0.000          -0.000
 -23069276.944 9 -17964994.12248  21821210.062    21821209.9014   21821214.1954
        -0.000          -0.000
 -12372128.057 9  -9618937.32346  23996342.215    23996341.9184   23996347.6364
        -0.000          -0.000
   3630776.368 9   2847505.55347  22206937.967    22206937.2774   22206942.2554
        -0.000          -0.000
 -17067178.387 9 -12913669.26648  22073448.884    22073448.7694   22073454.6904
        -0.000          -0.000
 97  3  3 23 33  0.0010000  0  6  2  4  9  5  7 24                   0.000999976
   6489905.492 9   5060124.62847  23020947.956    23020947.3994   23020953.1484
        -0.000          -0.000
 -23264210.517 9 -17581678.62249  20816984.303    20816984.4924   20816988.9214
        -0.000          -0.000
 -23103369.626 9 -17991559.84348  21814722.424    21814722.2724   21814726.5454
        -0.000          -0.000
 -12456164.580 9  -9684420.28946  23980350.479    23980350.1304   23980356.0924
        -0.000          -0.000
   3690991.140 9   2894426.13547  22218396.367    22218395.6944   22218400.7614
        -0.000          -0.000
 -17151347.859 9 -12979255.82648  22057431.930    22057431.8384   22057437.7384
        -0.000          -0.000
 97  3  3 23 33 30.0010000  0  6  2  4  9  5  7 24                   0.000999942
   6552160.845 9   5108635.26447  23032794.773    23032794.2884   23032800.0164
        -0.000          -0.000
 -23281937.249 9 -17595491.64349  20813611.016    20813611.2174   20813615.6004
        -0.000          -0.000
 -23136894.900 9 -18017683.42948  21808342.715    21808342.5894   21808346.8854
        -0.000          -0.000
 -12540181.478 9  -9749887.97446  23964362.305    23964362.0574   23964368.1614
        -0.000          -0.000
   3751330.036 9   2941443.44847  22229878.434    22229877.7764   22229882.8674
        -0.000          -0.000
 -17235132.128 9 -13044542.22348  22041488.227    22041488.1454   22041494.0954
        -0.000          -0.000
 97  3  3 23 34  0.0010000  0  6  2  4  9  5  7 24                   0.000999912
   6614708.930 9   5157374.00247  23044697.361    23044696.8484   23044702.5504
        -0.000          -0.000
 -23299021.052 9 -17608803.68149  20810360.097    20810360.2874   20810364.6094
        -0.000          -0.000
 -23169855.076 9 -18043366.68148  21802070.591    21802070.4614   21802074.7694
        -0.000          -0.000
 -12624157.746 9  -9815323.96846  23948382.154    23948381.7414   23948387.9214
        -0.000          -0.000
   3811789.383 9   2988554.61547  22241383.501    22241382.8514   22241387.8304
        -0.000          -0.000
 -17318528.830 9 -13109526.63448  22025618.332    22025618.2424   22025624.1694
        -0.000          -0.000
 97  3  3 23 34 30.0010000  0  6  2  4  9  5  7 24                   0.000999903
   6677551.346 9   5206342.07147  23056655.924    23056655.4104   23056661.0574
        -0.000          -0.000
 -23315464.532 9 -17621616.76949  20807231.002    20807231.1744   20807235.4594
        -0.000          -0.000
 -23202267.649 9 -18068623.23148  21795902.706    21795902.5314   21795906.8224
        -0.000          -0.000
 -12708084.422 9  -9880721.32846  23932411.644    23932411.1364   23932416.9914
        -0.000          -0.000
   3872344.163 9   3035740.16047  22252906.800    22252906.1044   22252910.9034
        -0.000          -0.000
 -17401525.895 9 -13174199.63248  22009824.501    22009824.4264   22009830.2724
        -0.000          -0.000
 97  3  3 23 35  0.0010000  0  6  2  4  9  5  7 24                   0.000999908
   6740680.754 9   5255533.79346  23068669.107    23068668.5344   23068674.1924
        -0.000          -0.000
 -23331308.350 9 -17633962.59149  20804215.932    20804216.1214   20804220.4574
        -0.000          -0.000
 -23234154.690 9 -18093470.27248  21789834.825    21789834.6514   21789838.9084
        -0.000          -0.000
 -12791996.574 9  -9946107.37746  23916443.805    23916443.3604   23916448.6734
        -0.000          -0.000
   3932954.947 9   3082969.33647  22264440.621    22264439.9394   22264444.7484
        -0.000          -0.000
 -17484142.098 9 -13238575.84848  21994103.116    21994103.0204   21994108.8814
        -0.000          -0.000
 97  3  3 23 35 30.0010000  0  6  2  4  9  5  7 24                   0.000999929
   6804102.323 9   5304953.17146  23080737.772    23080737.2084   23080742.8944
        -0.000          -0.000
 -23346563.746 9 -17645849.90749  20801312.873    20801313.0814   20801317.4744
        -0.000          -0.000
 -23265518.987 9 -18117909.98148  21783866.418    21783866.2134   21783870.4704
        -0.000          -0.000
 -12875907.231 9 -10011492.25046  23900476.409    23900475.8254   23900480.8194
        -0.000          -0.000
   3993616.413 9   3130238.00347  22275984.128    22275983.4084   22275988.2314
        -0.000          -0.000
 -17566381.812 9 -13302658.70248  21978453.311    21978453.2244   21978459.1434
        -0.000          -0.000
 97  3  3 23 36  0.0010000  0  6  2  4  9  5  7 24                   0.000999952
   6867803.331 9   5354590.29746  23092859.620    23092859.0964   23092864.9014
        -0.000          -0.000
 -23361249.071 9 -17657293.00749  20798518.367    20798518.5654   20798522.9914
        -0.000          -0.000
 -23296380.119 9 -18141957.61748  21777993.666    21777993.4794   21777997.7564
        -0.000          -0.000
 -12959845.067 9 -10076898.34846  23884503.594    23884502.9134   23884507.8284
        -0.000          -0.000
   4054306.430 9   3177528.91947  22287532.954    22287532.2924   22287537.1424
        -0.000          -0.000
 -17648254.141 9 -13366455.28348  21962873.414    21962873.3594   21962879.2924
        -0.000          -0.000
